GFSGBSN_con_3kmhel_000.txt.gz
Helicity
47 49 56 63 68 61 40 36 48 57 41 35 23 29 44 52 47 40 34 36 52 47 61 67 66 90 152 150 96 62 91 283 121 153 152 194 234 204 154 134 130 89 70 49 46 50 2
40 29 55 56 71 61 49 38 49 64 32 34 24 31 53 69 39 21 16 21 32 39 53 48 59 77 151 68 40 72 14 162 213 169 152 170 179 182 140 107 118 37 53 59 34 26 3
40 30 54 53 45 58 51 36 48 59 41 23 22 38 42 57 27 -5 9 9 25 35 44 39 62 95 100 41 36 109 42 67 183 137 118 126 152 189 141 134 90 100 58 40 12 -5 17
43 44 40 52 38 50 53 34 40 60 64 44 35 76 63 42 12 -6 -2 5 14 24 13 25 42 122 48 6 19 86 134 135 108 129 94 116 91 188 146 133 133 115 80 17 -28 46 36
31 40 45 42 48 38 54 38 42 62 77 80 76 91 61 37 4 7 42 17 14 26 10 27 88 90 8 -1 20 21 100 171 85 145 147 111 125 172 150 122 111 104 50 32 81 45 20
31 34 38 42 45 43 29 41 40 50 75 67 61 63 43 12 -15 1 43 49 23 72 38 87 122 81 50 41 45 45 65 132 106 145 159 154 169 177 180 151 163 112 86 60 68 70 25
31 36 32 46 34 57 44 38 34 31 55 65 63 65 46 16 -49 -3 75 103 183 89 112 146 124 153 77 41 29 63 97 108 124 211 218 183 211 184 156 121 97 83 95 72 94 63 5
39 38 32 43 44 47 51 40 31 21 32 44 37 36 57 11 -19 10 216 240 213 68 82 5 96 28 15 -25 48 81 93 136 198 200 213 201 165 99 138 143 113 105 91 71 56 67 -33
36 38 31 30 53 42 48 48 33 18 33 27 24 41 19 2 -9 52 226 223 156 111 18 22 -3 6 42 10 62 62 89 151 182 175 157 205 150 80 125 148 101 74 46 48 44 22 -35
33 30 34 24 45 49 47 50 43 19 23 35 38 82 100 -4 90 65 150 175 75 187 -10 11 52 7 26 61 67 66 75 142 154 139 139 217 123 167 183 127 112 51 21 44 75 28 -16
19 27 27 26 38 40 45 47 48 32 22 31 51 43 111 32 11 60 71 247 51 -62 138 52 56 41 76 94 73 67 62 106 135 208 251 199 90 85 136 81 103 32 12 17 45 14 -17
26 20 14 23 27 51 38 47 42 42 34 24 36 55 54 71 48 18 86 69 -9 56 43 67 39 80 91 36 104 120 116 85 103 158 185 151 156 147 145 129 84 78 70 89 91 45 -12
33 26 13 14 13 46 43 42 39 38 28 30 39 38 132 132 153 52 76 43 152 247 61 78 56 80 45 74 64 67 89 85 141 233 168 162 118 161 119 149 154 174 120 79 81 96 44
31 23 11 3 12 26 53 40 29 26 17 20 32 37 113 183 131 189 94 152 145 97 41 18 86 62 57 62 71 72 81 72 121 209 305 222 140 119 134 130 124 109 137 132 97 65 29
37 22 15 -5 1 8 53 32 25 24 3 4 6 46 128 146 209 238 141 193 46 48 30 11 83 88 -11 -138 56 20 -29 72 79 170 299 236 212 219 164 148 154 106 106 93 101 82 26
31 17 17 -2 4 3 34 30 20 21 31 -28 63 60 61 117 240 267 141 93 38 76 61 53 81 79 87 102 133 85 72 48 84 139 229 226 218 232 206 158 186 96 126 150 156 70 47
29 16 16 4 10 3 21 23 25 15 33 25 57 60 50 143 93 182 90 71 -14 67 -9 21 86 66 -61 159 83 131 91 126 132 140 198 196 205 225 173 135 185 240 217 201 138 130 75
29 27 15 14 13 5 11 21 26 19 44 65 50 59 42 86 22 112 49 14 -31 -11 17 66 55 58 67 204 94 99 164 166 139 210 193 208 138 227 253 196 163 169 149 177 150 132 124
30 34 13 22 14 12 6 20 31 20 51 55 45 61 28 39 39 99 10 15 -55 -87 -20 23 56 61 100 156 83 59 193 172 176 184 159 146 148 251 243 182 231 156 173 180 152 131 71
36 31 10 27 15 11 7 17 30 18 43 47 45 30 36 22 1 27 61 49 -24 -45 -17 10 19 46 113 174 142 104 81 126 156 163 140 151 123 125 140 115 149 127 157 180 176 102 90
35 29 -0 28 12 14 6 18 29 19 25 32 45 14 19 -2 14 71 70 73 17 30 19 20 -15 31 95 210 253 120 151 197 125 98 154 114 115 114 123 112 183 130 151 192 171 138 127
32 32 -0 27 19 23 9 20 24 26 50 40 33 47 25 16 -0 49 19 2 65 115 47 44 -58 35 93 187 167 154 192 217 182 123 101 132 125 153 125 136 116 111 111 140 204 209 200
33 31 14 25 20 27 12 21 17 35 42 37 38 47 18 23 6 15 22 1 11 68 48 97 39 150 116 113 124 163 128 182 151 102 122 109 99 96 100 87 92 93 59 115 167 174 171
45 25 20 29 28 29 17 23 21 40 28 37 27 37 29 30 7 8 27 25 42 15 41 121 113 43 112 9 152 187 170 179 207 214 129 79 108 99 52 107 87 57 74 95 178 162 157
67 41 21 18 28 28 22 25 25 42 37 43 38 36 31 30 32 23 49 89 77 89 85 76 54 51 61 175 221 207 204 138 160 211 197 141 125 107 74 89 71 66 75 105 148 142 226
81 44 31 27 28 29 25 24 29 44 50 57 50 44 48 18 36 40 59 62 64 93 90 56 89 134 46 52 87 52 110 119 122 114 178 176 150 110 97 70 20 58 123 142 147 106 148
71 44 45 36 34 34 27 23 32 40 54 63 58 64 63 23 45 64 56 48 46 81 68 74 136 85 113 63 70 26 49 79 46 70 106 169 176 147 136 83 108 72 112 133 129 64 184
112 44 41 42 39 34 28 24 35 39 60 71 66 79 76 38 67 83 87 69 84 58 63 78 120 66 59 64 30 35 45 58 79 69 62 62 87 71 109 42 -4 160 201 135 116 147 138
166 58 52 47 44 37 29 24 35 39 64 76 82 90 109 85 61 122 124 124 98 64 60 141 70 84 58 85 69 55 45 69 80 55 110 96 120 91 103 95 165 123 125 154 109 80 54

GFSGBSN_con_3kmhel_003.txt.gz
Helicity
20 31 28 53 49 72 73 64 61 50 51 49 27 38 40 49 17 27 37 42 38 36 37 47 77 94 180 230 198 187 106 139 183 113 157 155 177 236 183 141 150 98 80 47 49 52 24
23 32 26 35 49 49 71 66 64 55 56 42 10 24 36 46 32 23 26 31 21 14 16 38 70 125 192 201 140 88 124 88 101 163 134 139 179 169 144 147 108 45 50 50 56 48 12
23 27 38 33 44 45 62 67 68 59 61 65 40 41 52 64 50 36 17 16 16 21 9 37 73 152 150 138 107 84 154 62 5 104 109 90 127 150 147 158 129 119 63 66 53 36 5
28 20 34 43 39 49 55 72 69 59 57 72 75 66 114 120 81 39 7 7 13 21 21 62 77 140 156 129 63 53 63 98 30 73 60 67 88 122 164 157 167 121 82 52 17 32 40
38 32 32 34 41 42 48 56 75 59 54 55 72 67 99 85 47 25 -16 2 16 32 42 87 128 127 119 90 95 49 54 60 81 75 66 50 137 156 160 205 166 157 85 70 80 44 65
55 41 35 34 38 40 43 54 60 58 49 50 68 58 88 86 43 -12 -35 29 33 61 111 130 146 163 119 58 63 63 80 41 99 44 115 95 159 180 177 190 134 171 89 77 80 103 75
46 38 44 41 37 40 45 59 48 61 48 43 77 61 107 121 69 -15 -63 73 174 204 255 200 138 201 115 -38 40 81 96 64 76 84 161 119 169 145 142 164 172 119 86 63 91 103 60
41 53 50 40 40 45 47 53 47 64 52 40 74 56 71 146 67 -4 -36 306 246 220 249 63 87 42 64 66 40 57 86 90 93 127 125 143 142 132 131 149 168 134 105 115 119 83 36
29 35 39 39 38 48 49 48 42 56 55 37 46 47 96 110 51 2 70 172 296 349 283 82 81 92 49 51 34 31 53 89 66 78 123 134 120 125 119 147 132 117 114 101 111 79 6
34 40 33 37 31 44 49 51 43 48 57 40 24 46 98 115 107 120 84 280 372 538 148 80 96 10 -19 40 29 16 31 83 81 71 103 166 155 143 109 114 123 75 59 41 78 90 41
36 34 37 29 28 40 51 48 53 47 61 54 31 31 77 159 239 80 79 277 340 145 284 76 73 28 31 95 27 61 44 68 29 77 184 172 37 160 118 85 104 69 35 60 68 68 6
29 34 33 27 28 28 44 48 46 52 59 71 54 49 67 112 154 61 93 228 140 177 330 61 78 71 117 81 38 51 68 75 80 77 82 4 84 134 116 94 130 77 115 120 66 42 51
26 29 25 27 26 24 29 49 37 56 51 67 54 62 99 127 140 246 195 172 247 290 162 117 112 78 70 84 57 77 71 47 107 171 103 112 245 164 156 180 212 150 110 140 129 103 49
22 23 27 29 18 15 20 35 42 39 32 56 45 59 84 98 167 306 147 205 244 216 295 110 40 48 46 70 49 65 69 80 56 227 139 182 230 167 88 116 150 162 158 138 107 68 47
23 24 29 26 15 14 17 24 46 36 29 41 45 63 109 98 172 318 305 223 179 181 134 56 13 27 53 54 41 79 42 41 49 217 190 158 231 177 101 126 137 117 145 129 76 53 58
27 25 27 22 12 17 20 22 42 36 30 47 58 72 59 89 219 521 216 168 116 80 47 91 24 26 35 25 62 64 41 -58 -62 115 218 152 208 170 170 163 235 93 148 151 148 65 71
22 24 22 11 17 18 21 25 36 40 38 39 86 62 58 101 321 383 205 109 61 25 88 60 2 10 -33 1 103 97 57 31 23 25 198 120 167 278 174 170 153 196 150 180 126 119 66
24 28 23 7 19 18 20 27 31 49 66 74 79 60 47 247 273 252 245 93 18 52 -3 37 65 -34 -18 -50 91 31 70 172 60 20 104 146 135 206 182 173 133 171 155 88 146 125 120
113 40 25 6 17 17 22 26 44 54 56 71 80 66 58 79 119 104 174 71 -31 -48 -41 44 9 6 27 65 44 68 79 16 49 -15 109 142 153 258 199 171 173 130 162 155 143 129 80
165 54 29 8 18 12 21 27 45 55 57 79 86 65 78 94 91 72 110 50 -11 -96 -62 -37 68 86 62 -61 57 22 71 45 116 -24 28 128 128 135 174 122 194 210 188 171 187 141 119
215 62 26 13 11 7 23 24 41 57 52 80 70 31 45 33 89 107 54 70 6 -29 -73 33 78 58 105 90 72 59 77 159 127 87 65 129 126 105 131 117 195 224 170 171 180 153 154
241 149 14 11 14 6 24 23 40 56 67 68 62 48 39 47 3 43 134 66 80 7 -36 -28 32 47 73 93 33 78 73 98 131 184 1 107 61 99 126 106 105 139 152 164 147 197 163
357 226 42 16 26 19 28 25 39 57 76 54 45 23 21 29 -3 15 36 86 49 69 35 37 16 69 67 89 91 122 125 195 83 158 149 58 83 82 100 101 95 112 80 111 121 161 137
347 255 151 36 30 23 27 27 36 46 61 54 35 42 31 30 29 10 17 42 8 -50 20 112 67 27 71 100 181 248 302 251 161 184 171 165 157 135 123 125 108 62 82 90 173 103 194
226 330 234 26 23 19 28 27 29 35 44 58 37 42 22 30 45 34 38 75 4 33 39 91 114 186 96 205 284 319 273 171 169 178 118 144 125 75 130 104 61 52 43 82 125 93 131
183 327 237 23 25 19 30 27 30 28 37 68 43 47 24 30 31 36 64 64 54 52 59 101 181 165 163 216 159 130 117 91 65 110 121 111 124 121 94 83 51 43 48 76 86 67 131
198 303 261 31 25 25 33 27 32 23 38 67 57 58 46 32 31 55 57 66 63 90 38 46 74 1 23 96 72 112 140 169 109 106 129 153 141 122 127 100 75 40 75 82 103 35 182
167 369 331 32 16 34 41 26 30 26 40 72 70 53 52 44 71 59 62 67 76 73 40 15 71 49 81 48 72 71 21 91 123 130 113 146 114 115 128 83 23 143 142 105 92 157 186
175 310 305 71 24 48 44 30 26 30 37 63 79 68 64 70 62 89 88 93 85 62 50 118 46 99 18 38 36 60 63 77 25 31 109 110 124 107 118 93 109 131 146 174 121 99 99

GFSGBSN_con_3kmhel_006.txt.gz
Helicity
21 24 25 20 3 42 60 63 56 41 34 26 15 10 6 36 49 64 71 65 60 51 50 40 64 111 149 210 208 113 74 108 123 87 67 88 159 166 143 108 83 70 61 46 42 46 42
36 29 25 33 32 32 36 64 76 55 41 35 14 16 23 29 7 33 46 39 31 27 11 17 43 74 124 172 113 101 135 151 78 40 90 84 173 109 152 104 72 52 59 36 44 45 46
37 39 32 32 36 45 29 41 76 68 46 40 18 30 60 67 46 33 42 30 16 1 4 13 37 53 115 85 97 111 121 113 86 39 24 56 60 180 142 108 77 64 46 28 60 44 45
33 33 39 33 38 43 36 47 64 72 51 36 26 18 60 72 68 54 64 24 -5 -2 15 47 71 70 140 66 39 84 114 92 63 86 48 59 104 182 198 135 53 78 63 44 32 19 46
28 37 44 42 36 37 41 48 48 60 65 43 27 17 47 59 94 61 56 23 -14 1 32 76 106 127 120 108 81 49 50 79 96 95 65 98 132 119 143 183 130 103 78 39 76 23 50
27 52 44 42 40 39 41 39 58 52 80 52 32 20 43 72 118 111 70 24 -21 69 89 122 129 141 132 71 61 62 43 38 85 91 95 116 132 141 165 184 149 120 94 67 47 51 52
28 57 51 35 43 38 43 49 61 58 73 62 40 24 39 60 122 136 97 107 197 229 247 298 161 254 160 37 46 37 78 74 84 113 102 84 174 120 106 148 135 89 52 33 44 77 111
28 37 61 40 33 38 36 53 56 54 59 58 44 23 38 32 95 114 117 236 228 211 292 168 269 112 147 112 85 43 51 92 79 49 72 106 82 118 108 92 152 73 84 35 48 64 83
31 31 47 52 30 31 31 43 51 51 48 51 47 33 39 72 87 124 139 135 125 262 196 158 204 210 113 59 63 33 49 15 14 -30 105 111 45 124 95 128 93 104 80 61 90 96 86
35 33 41 50 38 28 29 35 44 52 47 58 53 41 51 107 91 119 140 291 241 299 127 132 221 144 54 69 5 34 33 38 26 -80 48 86 103 73 109 101 71 91 138 103 94 123 85
37 38 39 51 50 27 23 32 38 43 45 56 62 56 78 110 121 123 187 247 285 160 236 132 185 68 57 96 22 24 28 37 38 -38 79 102 97 146 82 78 42 108 83 79 97 121 86
16 34 28 42 49 32 26 31 41 38 40 53 62 84 94 110 80 109 202 128 173 184 374 165 131 137 126 20 6 77 44 65 59 -55 34 57 -5 124 82 45 48 63 98 134 106 94 51
22 27 27 28 43 36 32 36 32 39 34 50 69 80 131 117 100 217 313 229 217 268 290 170 162 113 112 45 7 29 22 34 31 42 17 21 180 148 114 135 182 105 113 163 107 98 80
125 17 28 22 39 45 31 29 27 31 39 35 62 97 114 109 95 189 395 290 312 198 329 192 78 97 70 40 33 17 32 17 -38 229 -37 62 164 131 171 98 159 139 115 198 140 111 62
274 33 23 34 46 37 24 28 31 45 42 33 103 113 139 123 152 234 413 356 300 223 190 216 78 2 41 13 26 33 58 -20 -41 245 -93 78 307 74 170 220 150 200 151 152 145 124 120
302 160 35 20 23 33 23 25 31 45 40 54 71 72 91 104 145 375 388 283 174 177 69 120 34 -13 10 25 31 54 6 -96 -36 104 149 -115 232 165 239 204 260 126 138 155 134 88 103
242 298 75 25 22 25 7 24 30 42 48 60 56 78 95 114 171 384 399 200 134 114 62 40 12 -14 3 23 47 68 -18 -53 -3 107 109 90 258 294 80 124 142 211 190 177 137 112 85
77 309 146 42 19 20 -1 25 31 41 69 51 76 88 135 212 240 244 365 187 33 28 21 14 -10 -11 15 -11 10 84 23 73 20 105 116 143 114 175 208 142 75 59 67 75 115 91 132
-46 367 270 65 23 13 4 21 37 51 70 79 72 90 169 178 131 189 233 149 17 40 5 24 24 -5 -7 7 37 75 -11 63 5 55 157 121 146 172 149 145 178 120 87 37 64 121 55
-29 290 330 143 23 14 4 21 38 40 47 74 84 106 131 144 95 83 130 72 -9 -13 -22 13 17 -16 34 16 57 46 23 35 40 38 111 168 97 76 91 94 105 90 66 52 63 73 68
54 41 381 267 26 11 0 21 36 43 59 82 78 74 88 86 74 91 45 97 15 -31 -93 -88 15 8 15 4 24 12 43 -2 64 23 13 106 119 76 103 91 19 49 88 98 75 77 68
174 19 305 254 163 16 -5 21 34 48 75 86 74 86 66 47 21 16 55 193 65 45 -35 -44 -9 11 -3 23 36 -9 47 25 41 -30 -78 94 124 105 82 84 47 55 73 87 78 47 29
155 -26 358 255 259 26 5 20 35 54 122 89 48 61 57 32 12 24 0 133 114 -18 -66 -72 -30 21 24 58 53 21 41 61 42 102 -46 50 81 101 107 98 93 83 61 61 64 66 63
117 -25 242 341 310 30 14 19 41 54 92 81 64 75 45 22 5 25 11 81 53 32 -53 -40 -35 13 44 -18 43 83 89 75 69 111 39 33 67 94 106 123 89 83 102 42 57 61 55
138 -66 241 318 318 20 21 22 32 37 70 69 49 56 48 27 15 23 55 36 12 29 -10 61 93 105 59 101 147 136 98 106 137 188 147 87 117 65 28 64 90 46 36 64 91 34 57
57 66 119 334 230 78 8 6 23 32 38 81 50 62 38 36 28 46 101 36 6 -4 20 50 142 198 146 146 189 163 146 85 83 123 161 152 155 119 171 64 58 56 35 37 44 45 44
69 21 30 224 305 161 13 -2 23 35 42 80 57 61 41 28 4 51 44 44 9 45 47 65 146 116 173 212 173 182 151 150 71 89 162 133 83 58 63 81 76 34 33 45 70 53 58
72 68 -34 264 313 273 20 -3 23 33 38 82 64 44 55 40 43 38 28 59 70 29 63 53 78 97 84 134 126 149 92 99 82 79 64 76 81 69 83 83 31 63 108 65 83 78 77
65 53 -41 205 343 333 32 -3 30 33 31 80 77 55 55 51 69 40 27 47 48 92 81 107 43 43 54 112 63 54 63 111 114 85 118 128 134 98 63 57 83 99 111 109 52 77 120

GFSGBSN_con_3kmhel_009.txt.gz
Helicity
24 33 39 33 21 12 26 38 54 41 30 26 20 9 14 21 9 5 20 57 74 106 115 108 84 109 124 192 154 113 72 71 83 83 69 63 97 149 187 135 103 86 48 54 55 68 45
23 31 42 43 26 27 34 26 47 59 48 34 27 22 22 39 26 18 22 13 42 78 107 111 82 72 114 181 70 88 128 136 92 53 64 66 104 87 164 180 90 137 40 60 34 50 36
34 34 29 46 45 33 29 28 26 56 58 44 37 36 38 47 30 13 22 21 22 73 103 115 98 61 135 94 101 81 89 99 83 63 66 40 63 111 118 206 127 24 87 31 81 51 57
30 39 25 37 44 42 38 32 41 41 55 49 46 43 37 42 36 19 7 21 23 65 93 111 87 66 197 39 40 53 73 79 68 60 74 94 26 94 139 224 246 113 95 89 53 27 43
26 30 24 32 47 57 41 33 35 30 32 46 49 46 50 42 53 45 36 33 37 44 81 92 103 126 144 103 60 34 28 48 66 97 56 78 111 104 135 161 187 133 143 56 83 5 31
16 24 34 46 56 53 49 45 27 33 32 33 53 60 62 46 57 66 61 70 80 85 123 141 135 182 102 58 26 41 47 52 76 83 102 112 145 180 140 159 209 152 115 78 32 43 67
9 19 37 45 51 60 49 45 44 28 32 44 57 67 69 60 64 80 131 105 174 259 459 457 193 196 172 41 84 69 53 73 85 117 153 137 265 189 101 76 140 81 89 85 50 -29 23
32 30 36 45 47 54 53 47 53 37 29 37 58 64 70 75 62 74 139 133 200 263 363 246 199 117 152 180 154 100 69 119 129 154 116 153 186 108 57 108 132 194 106 75 94 51 87
43 28 37 36 47 44 44 50 42 32 27 39 49 59 68 95 126 103 121 118 175 220 283 263 140 157 180 260 192 115 79 49 93 80 76 82 63 46 78 101 106 139 114 131 104 70 55
56 43 35 39 40 46 45 45 41 32 40 46 51 63 73 167 140 62 87 59 219 196 294 322 258 271 293 363 221 54 61 40 57 33 23 36 15 109 56 42 129 95 89 82 139 100 65
141 141 48 38 50 56 60 33 36 33 38 49 50 52 73 123 158 111 120 156 205 183 368 211 212 90 148 358 187 71 42 20 14 49 131 19 12 48 27 -16 73 116 4 131 126 108 168
207 329 151 43 35 55 54 32 36 39 36 43 51 50 87 110 87 99 138 195 201 249 461 221 189 166 212 136 157 43 58 17 31 39 -39 -22 72 54 14 21 98 215 133 206 151 160 109
89 332 379 80 26 35 41 31 36 38 38 33 55 105 119 98 85 230 182 198 212 358 404 237 214 217 145 111 30 14 43 2 8 -45 -17 -42 53 97 12 1 117 115 182 311 244 139 119
-83 259 358 296 73 16 31 10 30 37 28 40 41 97 120 73 169 182 239 259 250 277 355 299 221 168 124 142 -0 -5 23 -7 14 -25 -3 72 25 48 -10 118 97 171 222 350 272 165 89
20 18 365 363 273 25 4 16 28 35 32 61 71 116 191 118 158 211 310 292 357 297 305 194 186 175 102 37 -10 -35 11 19 3 -36 86 51 28 -18 120 129 103 181 49 208 277 250 109
-1 89 194 338 297 54 19 25 25 32 40 80 156 146 127 131 170 215 224 227 269 234 212 122 120 62 44 27 9 7 4 -13 -30 -31 127 30 58 69 213 220 246 229 141 210 304 191 152
-7 119 2 448 398 75 24 26 17 34 48 93 130 73 91 151 190 248 263 252 248 242 189 98 22 20 23 28 22 6 6 -21 -65 87 85 57 78 190 186 242 145 280 204 253 211 239 160
47 118 4 340 339 210 30 30 10 33 58 134 90 61 134 192 244 220 237 237 208 99 199 1 -40 -7 19 30 56 40 22 2 -26 6 37 72 10 263 337 207 79 57 86 111 145 113 229
31 218 47 120 358 327 34 16 1 53 127 119 87 92 99 219 200 191 199 220 151 87 49 40 -11 11 15 28 48 -13 10 -36 5 28 71 3 61 264 264 201 218 192 109 40 115 146 72
23 148 114 34 323 292 40 15 -0 58 66 122 110 81 162 186 74 87 145 111 139 28 -5 -1 -25 -5 1 20 66 11 22 -1 33 42 68 118 115 141 130 54 99 99 85 68 68 69 84
43 131 181 57 404 306 71 4 -0 40 44 112 118 86 107 92 56 91 79 95 83 10 -31 2 3 45 47 24 53 50 19 5 35 46 104 98 135 114 147 138 13 9 10 34 27 16 47
69 78 106 -38 405 396 217 -19 -2 36 63 132 102 97 81 110 63 -6 55 96 207 1 -45 -50 -5 25 52 67 66 20 25 26 32 29 50 80 112 127 88 92 80 33 14 2 36 24 9
89 65 46 22 317 315 390 10 -5 36 113 126 137 98 99 41 22 -3 10 85 57 48 -61 -56 -36 29 35 41 37 66 21 19 2 26 38 64 144 109 80 56 83 74 47 40 28 3 25
88 74 74 6 135 376 463 16 -4 33 88 124 94 96 57 9 5 -7 18 1 122 47 -15 -55 22 34 40 60 63 56 95 161 66 18 78 69 88 128 106 88 66 93 94 10 27 37 20
79 61 97 -6 93 380 417 52 -4 12 55 98 72 103 71 26 24 6 6 68 75 63 28 110 103 55 64 41 63 52 104 111 114 142 52 169 91 85 103 92 116 60 30 60 38 -3 -22
74 68 97 -114 40 336 371 212 30 9 30 103 66 78 66 46 49 39 -0 47 41 65 52 48 71 106 117 118 170 74 92 103 76 101 212 108 64 70 82 67 76 65 38 67 47 60 47
64 66 85 -72 52 333 308 360 22 15 33 92 51 84 62 30 -3 21 18 44 37 48 49 75 68 136 135 106 140 83 75 55 79 96 151 173 137 79 70 37 45 25 37 43 84 81 36
71 77 84 6 -22 256 310 395 31 32 34 94 70 63 77 30 23 31 27 36 35 57 21 22 78 85 76 111 162 179 115 55 48 56 131 165 198 136 94 96 42 70 63 76 61 43 21
82 69 70 66 51 294 276 339 28 28 29 65 67 69 68 52 55 28 23 26 17 38 52 72 91 53 65 108 85 111 116 130 111 74 87 97 129 138 80 65 65 58 126 99 54 37 63

GFSGBSN_con_3kmhel_012.txt.gz
Helicity
29 31 35 43 36 35 29 21 33 34 27 19 23 33 41 42 30 26 33 31 44 49 58 75 89 109 178 210 174 156 122 47 11 53 79 60 86 124 151 190 126 74 124 72 60 93 104
24 27 31 36 32 39 31 35 34 27 30 27 20 26 39 50 46 32 29 41 43 30 50 65 81 101 156 142 112 99 112 103 117 99 45 88 114 94 166 129 167 166 75 116 96 75 63
17 25 26 37 45 36 36 33 38 38 22 32 24 25 37 49 49 38 33 42 43 26 33 57 70 91 146 116 135 107 110 76 61 111 138 33 39 156 177 166 195 140 144 117 65 70 101
9 7 17 31 39 39 40 38 38 41 33 34 36 28 35 34 54 37 50 57 57 36 26 46 57 79 166 72 51 97 159 83 26 48 68 85 76 75 139 163 194 194 136 116 80 130 77
37 19 17 18 35 39 45 51 43 36 34 28 35 41 31 30 42 54 61 65 67 77 37 64 82 121 123 123 107 55 68 45 43 52 65 51 129 127 124 162 195 153 196 116 111 143 83
77 49 32 31 24 42 54 59 54 43 32 39 33 46 47 41 48 63 78 100 99 105 94 125 111 171 109 51 56 30 42 32 50 77 83 87 143 150 156 192 221 237 154 174 114 126 111
177 140 49 43 42 46 54 55 56 55 43 41 43 52 63 50 65 75 140 106 119 134 195 294 143 146 238 72 89 82 30 75 72 105 142 128 184 160 156 128 96 141 147 99 114 97 64
173 124 43 48 39 51 57 58 61 62 52 59 46 67 68 61 64 93 108 147 123 149 135 152 102 177 100 207 131 82 85 121 112 121 112 157 118 70 92 81 78 76 113 142 89 89 16
227 203 173 61 44 47 47 51 59 54 55 59 56 72 74 74 88 109 99 87 108 144 147 224 189 246 223 181 141 97 111 97 126 110 143 159 126 68 94 88 103 82 71 79 122 46 102
173 177 254 233 221 46 32 46 54 60 51 62 63 72 81 118 101 65 69 67 127 132 165 228 251 226 192 275 278 127 142 121 171 128 105 113 74 90 102 107 131 84 24 48 85 77 165
109 129 165 182 352 248 42 29 42 44 42 63 61 74 78 64 104 72 98 113 125 85 219 197 202 127 131 309 313 146 220 190 155 152 201 186 145 89 79 105 136 143 88 42 110 76 185
43 80 120 89 286 358 200 37 24 23 39 46 49 63 75 43 45 128 110 92 110 204 278 277 274 188 219 180 223 216 128 66 90 48 80 58 84 58 56 42 69 112 88 27 -8 114 113
51 74 54 122 123 366 313 70 36 21 33 42 46 66 110 109 70 198 130 144 195 262 221 211 200 210 134 177 160 185 72 101 173 231 96 31 18 54 59 16 20 64 59 13 13 151 110
75 51 36 51 66 382 331 145 31 22 34 38 42 48 132 176 201 212 150 184 198 134 254 330 267 186 166 173 122 125 127 66 24 9 -26 -58 -97 -19 13 -33 -25 -13 30 155 207 335 365
83 74 26 44 25 451 396 97 41 27 40 49 56 109 180 140 215 206 200 232 250 170 212 214 188 169 199 133 55 70 8 18 10 -5 -47 -81 22 -29 -64 -103 -6 -119 -133 -102 105 65 334
24 73 41 40 -61 267 478 205 41 20 52 69 130 158 150 255 256 225 175 280 239 180 253 211 146 114 112 94 81 32 -28 -49 4 -17 28 -15 42 -16 41 29 3 -5 -42 10 188 143 124
41 32 -11 152 2 23 343 218 67 25 57 124 133 116 85 256 252 240 226 254 158 211 258 177 146 81 18 111 59 9 -10 8 -8 -41 55 -42 59 6 25 -25 4 49 86 231 124 152 247
63 -3 20 243 -41 -44 298 223 174 23 76 123 139 118 95 181 202 246 235 234 180 162 173 88 35 -49 28 60 26 2 37 7 -27 13 7 36 106 -12 -20 70 114 67 113 313 292 204 245
51 13 59 131 22 44 327 274 123 55 141 163 130 127 125 184 123 176 178 150 245 220 98 90 39 34 -10 10 67 66 41 14 -4 97 -25 79 75 17 96 215 248 145 119 167 316 167 221
49 3 84 55 114 14 372 477 77 86 73 144 146 113 140 182 144 118 154 125 202 140 65 58 -22 12 7 21 28 3 46 -44 -37 109 89 -3 136 29 121 76 159 117 118 137 168 182 213
47 16 77 61 65 71 294 269 129 53 72 167 145 94 106 75 76 70 96 54 67 34 14 44 -6 -11 10 -4 16 34 -10 12 39 7 -21 75 43 107 102 91 64 19 -16 47 62 70 127
65 36 61 77 56 -57 341 334 434 36 84 157 106 120 102 68 49 58 38 56 112 199 38 -9 27 1 9 32 3 24 1 30 10 -36 16 51 69 266 68 112 66 40 43 66 45 65 51
72 58 60 61 35 -25 315 322 418 16 130 137 161 121 114 60 32 79 40 62 59 119 64 -81 -26 26 0 77 23 47 4 -12 -7 -7 -6 22 50 130 72 68 93 106 54 36 38 61 53
58 76 56 63 108 -64 127 326 339 3 38 126 113 118 90 48 38 11 1 33 81 109 80 -54 -27 4 50 84 41 9 173 136 67 49 23 42 39 83 74 65 32 58 58 47 64 72 36
51 72 53 55 117 -114 140 352 270 60 -3 125 126 91 70 50 15 15 25 45 22 60 56 -69 83 105 100 120 44 67 89 72 84 72 90 61 65 66 77 75 108 45 37 49 63 67 45
55 74 71 55 139 -54 79 318 366 101 4 87 94 103 92 88 24 47 30 48 25 27 89 55 62 129 76 129 96 52 78 97 86 101 96 135 149 113 103 83 63 74 41 63 86 84 81
53 70 80 38 97 21 93 287 377 178 23 79 53 89 72 30 -14 0 12 19 61 36 38 55 70 125 139 106 81 74 23 45 21 69 130 149 153 24 56 66 70 18 -18 48 79 74 80
41 68 90 58 100 36 96 318 313 127 36 71 59 56 94 48 21 18 20 6 30 52 26 55 100 52 81 162 127 145 43 40 42 48 129 140 124 71 90 33 1 56 48 38 29 51 53
32 66 89 52 109 22 163 245 308 305 26 42 65 74 94 70 37 38 16 -2 13 39 42 37 135 88 84 152 86 171 127 127 82 66 45 90 110 114 76 23 14 51 50 74 45 30 75

GFSGBSN_con_3kmhel_015.txt.gz
Helicity
18 31 19 27 39 34 34 40 32 20 17 17 23 23 29 41 44 48 41 40 39 46 72 98 128 112 134 122 140 160 157 117 69 52 58 85 114 143 170 170 165 115 78 104 54 43 64
23 34 31 14 14 31 31 39 35 30 13 18 25 27 30 45 62 53 46 34 36 27 45 69 100 136 149 73 46 95 163 145 81 51 53 79 130 100 156 174 194 213 149 68 7 43 70
90 61 32 27 22 24 36 37 40 40 39 17 20 36 42 42 62 60 51 35 41 36 30 38 81 122 115 64 57 146 102 84 105 150 161 95 67 133 213 191 157 163 180 143 82 56 45
162 117 69 42 29 26 27 40 48 50 51 41 32 40 51 51 55 67 58 52 60 65 46 24 50 112 102 62 24 28 141 71 93 80 61 74 117 165 191 199 234 231 215 174 139 103 79
197 163 101 99 34 34 34 29 46 49 56 51 53 43 47 51 52 68 81 75 67 68 63 71 68 103 84 30 37 40 90 92 90 64 44 53 116 193 197 226 251 252 265 224 152 119 146
113 153 220 147 144 21 41 39 50 63 55 57 52 50 44 52 61 77 91 113 85 85 78 97 123 119 70 88 61 31 73 71 103 163 152 117 210 218 234 285 247 241 192 177 162 87 111
104 134 184 209 144 30 34 39 50 54 57 61 57 54 47 70 66 103 152 123 111 116 139 159 152 130 117 102 86 77 57 79 71 173 220 144 243 302 165 124 173 135 149 142 108 89 100
80 88 132 177 252 222 155 42 52 52 57 73 63 74 56 80 77 103 135 122 120 127 98 78 55 126 87 208 213 107 94 160 123 138 132 190 181 123 120 96 127 102 107 52 69 94 91
96 96 99 145 193 235 190 84 56 37 52 65 72 82 77 86 94 132 95 96 90 87 99 90 135 167 114 142 217 180 121 109 170 189 165 162 196 79 127 115 117 100 102 64 69 88 69
90 123 84 83 152 152 198 233 162 33 18 35 44 71 96 130 121 96 80 37 92 114 77 106 87 21 72 186 177 180 112 163 218 186 150 111 57 110 107 96 115 105 57 47 48 61 50
64 40 55 58 74 145 12 134 239 85 4 30 45 87 106 112 93 96 77 136 111 61 97 97 103 49 82 114 198 61 60 128 176 260 293 255 143 108 101 79 115 76 72 70 42 24 18
16 21 42 67 69 62 106 22 205 68 85 27 62 98 89 42 151 71 61 92 57 137 68 156 146 96 101 93 106 169 150 174 183 203 234 139 214 147 115 80 89 102 108 90 43 37 7
24 16 44 65 66 63 71 97 247 146 59 27 81 97 116 119 84 89 74 81 144 147 132 106 88 96 64 98 113 137 162 168 220 219 252 248 102 161 142 143 130 129 136 136 40 75 6
14 29 40 29 33 64 54 145 256 413 50 24 82 100 114 156 158 118 164 157 122 97 107 212 145 112 151 140 142 113 139 98 155 165 222 176 132 143 133 105 147 140 174 237 135 30 -50
-3 58 61 5 -15 50 160 11 268 545 101 35 77 119 228 186 158 201 186 136 71 77 174 141 138 153 148 121 113 66 58 62 62 88 132 -60 -4 80 96 164 135 89 131 32 113 14 15
-1 64 30 -31 -35 121 -0 -3 122 485 115 62 122 178 231 211 206 194 201 141 109 166 207 143 126 116 109 65 73 63 63 -7 -10 20 37 -49 -72 -112 -84 86 29 43 85 58 49 -24 -7
9 15 24 -42 64 113 -62 43 424 241 92 116 217 149 117 244 263 282 200 120 118 161 174 93 116 146 98 95 80 60 40 22 14 19 62 -23 -35 -48 45 15 -16 -49 -53 -50 -27 -25 187
-4 19 48 -32 102 80 -8 14 263 348 132 122 227 173 135 296 230 227 169 117 148 117 111 95 61 89 39 67 81 99 95 2 -74 75 111 98 6 158 316 66 12 52 -82 -200 -217 -13 53
-6 27 34 -8 47 12 111 78 242 98 154 256 190 189 136 192 204 184 153 89 83 77 139 91 73 54 30 62 69 111 51 -10 110 58 34 88 98 109 11 -6 -5 -80 -53 -118 -136 101 379
-22 39 22 14 39 13 -20 80 304 295 155 143 227 188 154 153 152 107 90 37 67 96 176 92 86 -5 -28 -7 63 31 91 -20 49 97 44 3 53 74 -9 -24 -7 -34 -32 -107 -71 79 199
-22 30 29 40 25 49 -3 -30 250 336 17 168 199 139 195 150 96 111 63 23 28 -11 76 31 18 19 -26 -6 -6 40 42 19 72 151 207 27 66 86 43 34 26 18 31 88 144 155 217
-20 27 46 44 20 68 -71 89 405 366 57 191 177 165 171 58 51 11 41 47 21 44 92 18 38 -14 13 -6 -5 16 68 36 1 92 40 32 142 186 337 20 -3 29 47 -4 69 75 69
-26 17 67 53 46 52 -38 53 223 324 193 190 163 201 78 45 53 68 57 38 23 17 65 119 -17 -10 34 -47 -12 -37 15 2 29 53 42 2 48 131 170 53 29 12 13 -8 -13 56 62
-31 22 65 88 67 46 -9 67 230 381 216 137 142 109 91 69 59 31 12 9 35 102 76 54 -15 -33 8 9 10 77 46 26 -7 -6 6 6 22 82 91 69 45 56 63 24 36 38 53
-37 22 63 78 81 58 15 138 178 246 330 95 111 101 95 51 5 7 14 -11 31 34 21 17 -13 24 3 62 73 64 53 49 68 26 -3 -3 2 29 44 52 77 65 66 52 68 60 73
-27 16 66 78 64 48 47 101 195 221 295 128 120 123 95 77 42 47 27 -1 -7 -30 23 31 72 60 64 68 67 44 70 72 56 42 76 61 46 -5 32 9 34 63 68 42 52 77 106
-14 13 51 67 87 61 93 81 257 296 251 98 52 89 85 55 44 22 5 2 3 -4 48 23 62 38 65 96 62 16 38 52 63 37 94 96 56 22 8 25 35 10 45 32 60 47 59
-10 2 34 66 88 105 113 112 212 343 283 113 60 53 60 30 42 28 18 -3 -12 22 71 14 88 134 59 91 77 52 48 46 77 56 72 127 104 82 29 -7 12 30 32 41 13 38 49
-16 8 30 64 84 112 141 176 213 319 310 107 55 58 80 48 33 26 24 -1 -22 3 27 47 86 81 111 170 127 92 56 51 63 31 50 67 98 75 34 19 5 29 48 40 25 25 16

GFSGBSN_con_3kmhel_018.txt.gz
Helicity
188 159 100 32 27 13 16 37 49 45 18 11 21 19 17 22 35 57 65 61 46 44 53 65 88 89 116 142 148 152 153 136 85 59 73 96 116 135 137 129 128 121 112 119 90 45 56
180 180 117 80 68 32 9 24 39 51 38 25 26 19 25 25 35 59 67 61 50 48 49 50 58 69 83 80 62 92 108 159 101 85 66 75 85 101 114 111 120 172 194 91 100 63 74
143 186 154 95 74 65 32 21 29 41 54 40 33 36 37 35 32 52 64 66 57 63 63 54 46 32 57 54 65 153 139 80 102 56 76 68 52 189 168 135 139 112 92 94 118 115 84
105 142 142 155 129 140 128 50 36 33 50 48 51 50 54 47 35 47 61 63 69 78 77 67 67 63 52 34 58 31 69 81 64 86 60 92 124 165 165 172 190 154 119 105 110 147 113
98 96 82 134 173 125 117 109 43 30 42 38 48 57 73 51 44 46 58 67 91 87 82 85 102 88 54 56 74 54 78 100 104 73 39 58 141 184 213 179 142 145 152 177 150 148 165
63 68 98 109 114 145 188 194 124 31 32 44 54 72 82 72 47 50 58 95 108 120 108 101 128 94 76 88 69 50 96 102 131 137 172 171 214 210 225 224 189 167 153 136 163 184 150
83 90 80 98 135 106 237 214 218 107 32 39 59 54 55 81 60 75 146 160 126 113 149 141 105 105 106 83 79 73 91 153 158 224 252 247 250 199 148 123 143 145 148 123 185 180 115
75 75 72 83 101 127 146 196 221 224 35 43 43 53 46 59 66 98 162 149 107 113 94 52 78 87 99 197 169 116 145 187 197 171 197 246 211 145 97 101 138 135 132 107 99 72 103
61 80 89 87 83 102 102 165 149 139 191 56 43 52 59 55 77 128 136 106 96 101 83 52 98 138 126 157 201 145 173 148 204 190 172 158 176 84 133 124 150 128 120 111 110 77 58
72 76 81 52 54 33 50 129 122 118 175 123 39 37 100 145 163 146 99 86 103 85 84 36 69 67 40 60 116 78 141 168 205 158 129 153 106 176 116 124 137 133 115 89 91 101 139
47 26 42 17 31 41 52 76 173 74 180 215 40 49 161 162 107 136 60 104 131 78 154 67 71 36 48 49 86 66 36 128 164 217 243 236 161 99 76 94 98 107 91 90 74 91 94
14 12 38 47 41 19 40 108 69 97 127 278 42 65 152 209 117 95 100 116 109 171 144 92 82 53 72 33 88 99 85 75 137 146 167 205 212 166 161 84 132 142 82 105 116 116 153
15 25 12 40 62 19 28 55 54 244 11 167 74 114 163 130 130 105 126 134 185 186 110 93 79 7 73 74 100 93 120 159 256 234 233 229 179 319 205 162 120 132 148 206 189 203 216
24 23 17 43 27 -2 26 41 95 198 12 -7 133 166 125 188 157 168 159 194 171 131 121 107 59 31 83 90 107 98 143 137 77 155 176 183 201 230 192 168 193 135 156 259 199 175 38
35 40 12 6 6 -57 -24 332 90 31 17 88 159 199 214 162 166 247 228 188 127 97 99 65 53 60 81 67 93 83 90 99 84 112 96 118 113 185 120 160 131 115 132 52 161 129 80
49 21 -13 16 -9 -73 38 177 42 23 68 62 13 228 140 205 244 281 212 153 115 105 119 83 49 87 88 100 82 65 61 38 71 90 116 -28 29 39 155 146 106 112 120 176 167 111 69
46 -34 -14 13 4 -37 109 119 33 38 127 138 21 187 228 233 231 244 199 150 97 103 114 55 60 79 99 112 99 68 37 17 29 53 101 69 72 11 137 78 28 79 59 133 100 71 5
35 -45 0 38 30 -11 92 40 30 127 161 230 121 325 165 275 316 257 216 107 79 86 86 94 60 72 87 63 34 43 93 51 63 70 153 152 8 59 120 123 10 19 -49 -11 -64 -111 -109
29 -49 -4 45 29 -1 45 -48 32 98 166 184 149 246 189 240 226 176 139 113 114 103 78 34 55 39 47 35 8 66 57 20 52 64 9 171 72 140 83 67 96 -14 -17 -34 -10 -38 -141
30 -46 -14 39 39 9 33 -18 -2 51 261 93 266 222 220 166 140 216 73 75 73 25 24 75 78 29 16 1 1 -19 15 -1 72 71 72 66 41 206 191 7 -9 -49 -6 -43 -50 -171 -131
23 -45 -22 35 66 43 24 -30 87 189 306 164 190 329 266 143 111 91 67 19 30 19 35 27 40 -9 -8 -16 -21 14 46 -2 36 99 170 90 67 155 276 168 34 30 26 -17 -92 -176 -174
2 -35 -34 46 93 68 13 -4 125 357 468 283 206 193 207 95 113 90 27 23 21 30 8 -24 31 -2 21 -20 2 -7 4 54 132 216 194 127 303 315 124 42 -4 19 18 -53 -148 -339 -208
-19 -35 -32 52 83 79 25 -2 82 427 330 95 179 195 170 72 41 27 71 73 28 17 -5 23 5 -4 3 16 10 -20 2 58 42 135 217 107 137 251 105 -5 -69 -45 -23 8 -7 26 16
-14 -29 -14 46 75 86 44 37 84 242 294 294 177 133 196 87 65 30 -6 21 17 19 48 -28 53 25 -14 40 -13 -43 -10 -14 39 84 104 82 160 225 197 52 51 47 150 308 229 121 147
3 -21 -14 32 67 77 64 63 72 282 456 228 204 140 89 72 44 36 25 17 11 18 -3 17 23 48 72 70 20 -19 31 -8 -20 49 112 83 60 73 58 65 61 33 16 48 98 59 17
8 -9 -22 14 63 74 89 109 130 310 383 145 206 140 86 64 10 22 18 -36 -8 28 2 16 29 67 46 37 49 37 27 39 8 24 -8 -2 26 1 8 17 22 29 44 35 33 24 44
7 -1 -28 13 69 76 104 134 159 235 367 206 102 89 83 37 62 64 55 22 32 19 -29 21 28 94 96 50 57 57 54 41 29 29 21 29 1 0 8 1 52 37 55 30 51 45 70
-1 -3 -20 15 57 69 113 149 138 206 301 241 81 85 59 42 45 10 49 7 21 7 -28 16 37 107 96 82 46 20 25 29 39 38 33 46 42 36 10 -14 5 35 38 48 27 31 39
-1 2 -11 15 50 59 115 155 180 220 319 274 62 74 62 38 25 33 14 -9 -20 -19 9 53 54 102 114 111 91 58 33 14 28 38 58 42 65 27 22 6 -8 41 48 26 17 12 9

GFSGBSN_con_3kmhel_021.txt.gz
Helicity
126 117 85 115 129 154 128 37 33 16 33 45 29 23 18 16 8 13 26 34 40 37 41 46 57 93 129 124 64 75 116 115 78 120 99 107 140 157 141 117 126 142 82 94 74 47 38
94 129 131 70 128 101 82 83 47 34 28 37 44 49 27 26 26 20 29 35 43 44 47 45 46 72 98 66 53 74 131 184 146 105 99 114 110 108 128 112 126 123 115 64 66 57 19
59 49 100 115 109 80 74 129 85 66 38 29 55 56 60 45 29 29 37 39 45 53 56 58 62 66 59 48 61 108 134 120 157 125 137 110 106 160 162 116 124 99 76 61 53 77 40
61 68 73 69 98 130 84 99 181 162 84 29 32 48 61 66 46 35 37 43 48 63 74 76 82 75 38 53 62 6 77 85 90 93 104 98 91 121 137 170 155 123 97 60 38 91 109
73 83 79 69 83 103 131 99 187 104 179 52 36 22 43 81 74 37 44 47 76 85 87 84 103 80 36 83 89 47 82 109 107 109 99 94 158 185 211 176 145 140 131 94 107 85 113
91 69 72 85 77 85 104 129 143 188 136 191 44 21 27 59 67 35 51 67 107 121 124 123 112 78 63 90 90 67 71 83 146 150 164 147 196 227 223 220 215 171 148 89 48 94 124
94 75 75 41 69 85 95 103 122 151 252 130 134 56 24 82 96 52 130 185 165 109 139 123 72 53 93 86 95 114 121 170 195 272 232 246 280 302 203 196 160 123 117 117 130 135 110
72 61 72 52 56 92 100 98 108 142 200 249 159 60 44 59 101 113 178 191 126 102 73 26 85 71 110 168 137 147 147 204 217 225 232 295 232 219 205 171 145 128 121 109 73 45 102
67 40 42 56 39 55 64 62 60 100 150 201 93 208 59 56 124 223 126 149 106 96 84 68 100 96 82 120 133 132 147 185 189 211 241 210 233 151 189 162 172 147 133 124 111 92 69
32 26 35 22 15 32 23 48 53 43 87 49 152 258 65 61 202 213 148 107 113 87 119 59 91 115 123 170 97 104 102 166 191 171 170 172 150 155 154 162 167 114 100 89 96 108 128
45 38 34 33 14 25 56 3 51 76 76 96 253 173 126 236 296 247 121 138 105 114 166 83 119 81 80 77 94 79 50 119 147 216 247 237 166 131 152 143 120 139 93 95 101 127 132
43 35 45 36 9 33 35 24 40 76 57 155 198 182 309 349 276 175 153 170 142 217 159 94 99 90 102 36 89 98 105 82 185 173 173 202 150 180 182 102 115 156 79 97 121 147 205
36 40 44 21 1 53 14 3 29 63 62 104 138 114 169 402 275 162 203 239 263 225 137 116 121 99 92 87 69 93 150 154 195 199 200 221 173 249 206 163 115 105 161 251 256 296 323
41 35 49 41 9 8 -45 -42 13 247 159 17 61 0 108 255 187 146 267 360 238 121 171 77 111 94 72 70 91 98 125 128 149 230 233 235 238 196 239 248 234 178 197 308 317 297 180
35 42 49 -34 0 -28 -30 -14 78 158 48 -9 27 -85 91 236 199 163 263 283 129 161 119 89 106 86 58 56 104 87 87 90 129 181 147 181 179 189 114 282 326 239 169 123 282 228 178
36 41 25 -37 4 18 -3 -9 60 125 14 1 18 31 94 178 171 217 290 193 167 137 135 94 75 38 55 83 82 76 43 43 75 155 149 116 102 31 -17 54 88 146 96 146 202 171 152
33 37 18 -46 39 50 44 -13 -6 79 81 12 -15 115 134 216 273 190 233 180 153 94 104 74 52 66 61 97 88 74 21 9 59 105 192 48 41 37 98 132 144 123 129 234 193 164 149
25 28 22 -43 38 95 63 -1 -15 57 56 -6 -38 122 240 213 168 161 196 157 84 98 94 104 76 73 63 98 77 72 39 12 20 122 96 61 53 94 169 174 104 142 100 149 199 160 79
16 20 7 -34 10 121 87 11 -14 125 104 117 36 39 203 258 265 280 165 113 81 90 89 40 45 34 50 80 61 86 40 14 101 136 106 143 116 144 143 162 158 116 116 104 19 71 -73
14 17 0 -35 0 113 94 22 4 129 221 112 28 125 209 175 182 188 125 71 64 43 62 47 42 44 39 61 9 -17 -30 -12 42 112 95 173 137 312 315 149 87 152 76 1 -16 -64 -32
10 13 -18 -30 11 113 114 33 25 132 342 89 77 157 192 198 205 145 129 27 40 41 8 2 24 40 52 -24 -36 -24 -34 2 -21 105 184 138 185 289 351 446 238 47 123 52 78 109 46
20 5 -23 -30 2 91 99 53 49 171 504 137 96 153 169 163 114 117 71 42 0 0 24 18 25 -6 -39 14 11 -22 -36 -22 -2 75 190 256 353 343 349 199 179 64 18 98 81 24 30
17 -4 -13 -25 8 71 105 66 68 177 319 176 180 277 186 73 140 80 44 17 -15 22 -1 30 21 -23 -15 45 64 -39 -17 17 14 111 203 277 183 217 135 -21 -25 39 79 181 92 16 71
8 2 -5 -24 2 50 86 83 102 152 272 202 126 147 156 111 62 53 27 39 22 -5 8 -5 -28 -38 2 9 20 -25 -43 -3 -12 123 259 198 173 165 161 64 22 18 -44 75 100 22 4
8 -1 -9 -18 2 48 87 92 152 189 384 196 106 134 109 52 55 32 22 5 9 -4 13 47 -18 25 37 26 12 0 -23 -40 54 119 244 172 87 91 73 103 53 61 129 78 154 236 169
5 2 -17 -15 4 58 79 101 165 232 398 211 151 114 124 81 37 36 -16 13 10 -23 -8 -6 28 33 23 43 39 11 -7 -6 12 8 37 46 57 31 36 58 33 11 48 125 128 100 197
3 -5 -3 -14 2 49 76 119 177 203 334 285 160 153 72 56 62 67 51 38 37 21 0 2 -20 5 67 83 41 24 14 28 15 14 7 40 48 58 17 15 57 27 -30 46 -9 43 27
3 4 1 -12 3 51 74 108 141 149 303 265 95 159 86 73 79 75 70 50 51 23 -14 -11 -10 32 107 83 49 51 38 28 36 27 24 27 18 19 17 0 9 34 20 -2 6 16 21
13 3 4 -4 2 43 80 106 141 169 254 365 80 83 74 53 37 56 37 28 27 -10 10 36 40 68 115 85 51 37 26 26 39 62 59 26 20 14 25 13 12 39 -2 11 8 11 13

GFSGBSN_con_3kmhel_024.txt.gz
Helicity
51 64 84 102 80 43 14 94 86 100 169 24 18 16 27 18 5 10 22 28 44 49 44 40 46 48 69 82 42 69 100 92 22 69 94 126 119 108 99 109 151 154 132 116 103 87 49
52 66 56 64 119 125 86 39 12 33 68 186 38 27 33 34 5 15 18 32 38 47 44 42 43 50 59 66 36 73 89 137 112 77 75 116 86 97 102 107 134 155 140 122 98 57 49
29 29 37 37 34 80 124 106 86 45 123 92 183 41 23 44 38 8 24 32 38 46 49 49 46 52 47 20 48 73 146 134 143 96 85 87 106 131 134 93 116 110 109 90 85 88 63
66 67 74 76 70 68 34 128 125 69 187 200 159 128 27 24 61 40 30 37 36 45 54 57 60 59 23 34 37 33 71 111 126 117 131 107 92 121 153 178 155 119 124 108 120 96 87
81 80 79 68 87 84 86 84 112 127 106 211 128 168 78 19 54 71 34 24 51 57 66 76 74 50 23 69 60 66 81 111 109 114 111 110 106 131 161 177 141 134 149 118 98 134 109
85 58 65 60 61 70 97 82 101 89 113 149 185 103 151 55 36 86 53 26 103 139 123 108 78 56 62 69 65 86 81 121 139 149 152 135 144 176 221 216 196 166 165 112 88 50 148
68 33 35 51 34 32 45 59 90 97 95 95 197 157 93 83 39 101 156 169 175 146 139 86 102 79 78 67 84 88 79 173 176 198 151 173 188 222 173 156 185 167 162 120 133 141 81
51 35 39 26 33 30 26 27 69 78 101 108 128 180 215 198 89 156 247 213 190 106 86 45 62 72 81 163 134 123 108 174 185 168 212 228 154 179 181 184 160 150 147 134 104 85 96
64 64 44 45 40 34 38 12 35 41 48 40 103 160 223 176 80 288 190 181 182 112 85 74 78 83 116 87 102 113 122 170 160 204 180 189 189 131 194 243 203 172 165 144 118 135 106
52 44 27 50 36 31 11 24 29 46 65 63 43 136 173 163 77 321 240 225 159 104 132 71 87 96 137 155 87 112 128 173 174 110 156 118 121 178 206 209 194 138 159 107 112 132 125
48 32 43 51 38 27 7 18 39 19 27 37 49 116 110 120 160 347 271 164 133 139 171 84 111 146 102 153 143 114 83 108 132 155 203 166 143 139 154 158 241 241 146 132 136 165 141
49 28 40 45 42 29 1 27 14 11 -1 24 53 85 166 32 113 372 256 140 169 262 185 75 90 104 121 76 112 89 74 96 169 107 133 132 157 192 203 132 171 177 167 172 160 145 172
45 21 33 41 35 22 6 -48 -46 -87 -3 57 145 141 51 29 170 306 241 232 308 258 159 99 105 99 116 120 80 76 101 128 155 136 146 180 144 243 240 226 150 152 251 261 221 310 293
36 26 34 38 27 -20 -22 8 -17 -31 61 52 69 17 -26 -67 160 256 287 402 276 145 184 60 148 162 130 94 84 76 127 107 113 176 196 197 185 144 196 198 185 184 221 290 333 278 187
29 27 27 28 9 -16 7 7 -5 15 64 46 12 31 -60 -28 186 175 293 310 215 164 161 142 116 154 96 62 85 77 71 103 102 184 188 138 132 149 136 103 145 221 228 142 206 195 182
21 14 14 21 8 -10 54 40 11 -9 125 58 -6 20 -84 85 199 135 312 220 207 175 155 150 144 98 102 70 68 78 74 49 38 98 157 165 134 161 141 112 73 161 189 206 234 208 221
0 10 10 17 7 -12 68 73 23 9 113 12 5 1 -63 70 181 199 260 213 206 144 147 132 113 84 70 62 76 83 53 32 31 37 104 133 126 120 164 187 245 222 242 186 229 233 216
12 12 9 18 17 -22 83 101 39 19 118 22 9 62 -10 269 222 223 182 170 151 147 142 106 91 91 65 60 59 70 65 37 65 119 102 156 153 108 117 173 114 167 188 204 255 288 239
15 16 18 11 17 -3 103 107 62 16 64 111 99 105 77 215 183 205 191 202 172 139 84 68 63 59 28 60 58 60 41 -16 101 106 88 162 152 78 135 148 232 329 316 200 98 177 61
13 16 10 17 0 17 91 110 66 16 157 138 103 32 256 167 191 254 169 117 114 103 54 53 37 20 45 59 50 43 -29 -26 81 94 102 124 167 234 322 300 356 454 263 294 287 29 35
7 6 4 8 0 10 72 97 75 58 266 38 56 58 93 51 115 153 175 54 95 61 46 -4 -1 9 60 42 76 3 -66 -60 -15 64 121 171 192 291 610 662 505 558 427 207 328 415 227
0 3 -6 -2 -6 23 70 90 74 144 376 50 5 17 155 71 83 130 80 42 68 85 8 26 38 15 2 64 8 -28 -17 -14 -24 51 190 222 293 316 566 344 181 382 318 282 289 277 281
-1 2 7 -15 -10 14 58 91 92 115 240 54 32 50 108 57 83 119 77 88 35 32 4 22 -28 -1 -6 2 23 27 -50 -25 -10 -4 73 171 231 316 294 141 41 34 158 246 245 285 206
5 4 8 -20 -16 17 59 67 105 154 190 197 98 112 162 69 46 30 -9 37 19 20 29 5 -23 12 -9 -8 -13 -13 -13 -55 -34 40 101 177 190 196 267 131 60 87 39 88 147 114 184
2 2 0 -11 -9 12 49 69 121 202 184 168 70 92 102 42 42 27 7 40 48 46 6 -3 -5 17 45 -7 -40 -14 -5 -21 -12 61 111 233 146 127 74 112 142 133 150 90 81 132 99
10 4 0 -8 -10 34 71 86 138 220 208 154 57 47 86 43 45 44 29 37 31 18 10 -7 0 42 30 21 8 2 12 -6 2 -17 -32 67 31 45 40 76 53 142 52 86 164 278 382
4 7 -1 -1 -8 18 57 66 110 197 213 154 126 111 141 76 73 61 56 26 32 17 -12 6 -3 -11 -6 18 24 38 31 37 17 20 11 13 63 83 41 40 60 68 51 61 81 103 55
13 13 0 0 4 30 63 81 117 189 218 166 120 123 82 82 78 70 62 46 59 21 2 -8 -21 -49 0 13 69 48 18 29 38 34 26 18 16 23 26 7 17 8 6 15 87 73 51
14 14 4 -2 1 28 62 95 120 149 174 234 112 155 107 84 48 61 35 57 22 -5 27 0 -15 -9 15 57 72 50 40 31 32 62 33 24 24 13 44 28 12 6 15 46 29 53 32

GFSGBSN_con_3kmhel_027.txt.gz
Helicity
36 38 40 46 51 73 110 117 105 107 42 99 62 101 70 25 20 9 1 26 34 48 58 72 72 68 77 86 45 60 54 56 33 118 109 93 111 111 99 97 132 138 103 85 64 75 73
33 39 53 57 64 64 39 94 133 106 132 96 124 78 106 72 29 44 -3 16 30 43 56 65 65 63 65 75 39 67 69 96 86 64 87 95 70 95 81 92 111 114 106 91 75 39 62
40 51 52 61 67 65 81 98 58 127 104 111 164 217 109 147 53 38 38 -1 20 45 52 58 54 59 55 27 34 56 106 85 90 72 80 99 87 105 98 92 97 95 72 55 41 43 56
50 55 57 59 73 79 81 70 71 80 127 122 99 214 273 167 115 29 57 21 18 40 51 59 55 61 31 45 35 35 51 83 99 129 99 77 77 112 113 128 117 88 76 76 109 121 69
26 41 31 34 55 52 52 60 67 67 86 131 107 160 248 161 157 44 84 55 28 31 42 58 82 46 48 58 55 50 59 71 94 112 134 113 123 124 139 113 88 89 109 84 82 75 96
20 42 52 51 49 43 46 34 27 51 42 94 110 111 152 175 185 74 92 74 106 105 128 90 60 58 70 64 65 84 92 102 108 139 133 121 118 123 142 136 130 85 111 91 110 82 126
63 69 71 43 47 34 35 13 29 39 32 59 84 103 133 190 160 168 144 283 247 187 174 87 71 116 104 73 94 94 83 143 147 141 113 123 108 104 89 115 121 129 106 79 117 126 65
86 77 65 71 60 41 36 39 28 39 35 21 50 80 101 199 229 130 315 351 233 67 59 59 86 77 86 94 96 93 75 117 130 116 145 133 81 77 78 105 86 93 87 85 89 101 103
76 75 73 73 65 33 34 43 35 13 35 33 50 68 61 135 234 72 241 239 229 167 68 72 78 86 94 84 122 88 89 139 127 150 113 141 104 91 89 127 78 116 121 107 87 100 94
64 73 85 74 42 43 33 34 14 12 9 27 42 53 37 64 116 35 176 313 195 145 111 69 94 85 134 151 88 93 95 133 145 78 128 91 86 131 143 128 121 86 152 123 131 134 110
82 86 75 48 37 38 34 15 -0 -1 -4 -14 9 14 58 29 167 111 136 274 204 176 129 86 114 137 106 158 115 109 137 169 148 130 147 107 85 98 76 79 184 163 135 141 146 157 134
81 92 58 40 35 33 25 17 -5 13 -22 -60 -34 35 52 21 -14 125 67 316 285 241 161 85 90 121 135 135 147 136 101 130 119 93 82 109 145 150 122 112 120 185 189 149 168 173 217
104 86 53 29 26 20 14 -6 23 15 6 -44 51 23 8 1 23 2 271 431 450 259 156 106 104 91 109 129 138 121 122 105 105 110 97 114 86 181 189 148 159 168 186 236 229 283 326
88 76 34 22 21 11 3 8 31 23 26 14 77 68 51 18 43 155 393 504 370 200 199 91 115 127 118 139 102 91 104 78 71 116 114 87 98 60 94 71 107 200 214 263 235 242 169
70 47 25 22 19 14 -2 -2 65 30 -3 127 -5 23 42 36 32 251 339 380 266 133 159 138 120 143 100 68 89 78 49 83 84 142 137 113 84 88 83 110 83 220 206 110 172 133 144
62 24 23 23 26 17 -14 35 82 45 26 87 10 -9 31 70 71 261 217 315 247 152 160 135 137 84 81 55 71 25 36 55 75 106 74 133 110 100 113 142 95 151 191 227 301 265 252
34 35 24 24 17 14 -25 74 57 53 9 39 -6 13 57 22 145 243 280 225 255 191 154 166 152 123 88 66 58 45 50 65 37 49 97 86 143 155 190 162 169 211 227 283 272 333 346
35 30 19 19 11 2 -6 67 62 52 12 72 17 122 124 47 274 257 176 218 186 183 174 128 116 113 79 51 36 44 40 57 32 84 53 74 143 118 193 227 240 228 322 293 315 338 442
35 7 14 14 13 17 12 48 56 63 22 51 69 196 54 139 157 180 170 237 196 166 132 122 107 93 72 51 26 33 62 50 102 76 88 130 150 11 38 104 159 373 480 507 380 321 375
19 4 10 9 18 18 13 48 43 28 269 67 122 86 122 107 88 195 154 159 160 145 107 85 72 55 50 37 23 48 23 -20 -2 43 95 127 187 198 221 271 327 472 525 547 382 249 251
16 14 7 4 5 1 9 41 51 90 351 61 113 52 170 114 104 121 170 131 158 92 80 51 19 13 28 23 30 36 -45 -24 -27 49 66 190 202 201 392 540 508 403 389 394 531 451 281
23 17 1 6 4 -1 21 40 49 248 305 95 48 12 174 76 49 104 80 54 72 68 51 17 55 -6 5 25 12 -16 -41 -44 -28 85 136 153 158 153 372 387 345 274 151 218 353 326 319
26 17 1 -0 3 7 29 43 46 232 202 56 18 45 117 22 72 77 61 53 41 48 34 20 -12 -2 -5 13 3 -9 -29 -34 -39 31 94 82 97 147 281 176 159 86 76 123 175 264 246
11 9 -1 4 -1 6 38 55 69 117 128 74 51 56 53 85 108 42 31 54 67 39 34 28 15 8 11 22 -10 -33 -30 8 23 3 22 109 102 148 241 192 159 154 112 73 139 118 193
33 21 15 8 21 34 60 69 93 115 131 113 76 68 46 32 57 -73 12 22 29 36 24 17 -17 6 19 19 -19 -27 -14 4 29 82 79 204 174 126 121 153 197 210 203 105 78 179 217
31 28 20 3 22 53 68 85 132 117 102 99 114 48 50 26 57 36 49 29 48 49 47 31 -0 7 20 6 -19 51 24 16 15 -7 18 26 100 102 59 118 77 156 86 161 203 237 206
49 40 27 9 15 43 67 77 117 133 121 80 53 57 44 33 55 88 67 32 26 44 24 7 -5 -1 14 -1 33 71 60 5 11 4 -16 -23 21 66 97 84 86 91 88 83 112 128 133
63 57 44 16 1 22 45 71 118 159 153 76 114 158 86 59 96 49 42 30 66 53 16 10 14 5 8 -1 9 28 20 25 22 21 7 -18 4 -10 25 47 42 50 44 44 136 139 86
67 58 45 27 5 27 55 88 110 140 138 102 74 123 117 60 41 52 51 55 35 14 44 39 18 25 -16 -37 2 32 34 36 37 55 31 13 -0 -3 39 51 34 37 84 94 70 112 85

GFSGBSN_con_3kmhel_030.txt.gz
Helicity
31 36 29 30 38 40 38 54 76 113 143 163 103 174 156 123 90 63 41 19 7 22 41 56 65 65 67 78 81 48 59 96 87 34 59 101 93 94 80 118 112 101 75 80 70 60 52
29 36 33 44 40 39 41 47 40 43 68 148 141 143 141 143 117 91 18 53 13 17 42 56 58 58 61 70 76 87 88 63 64 29 53 73 86 90 88 85 72 114 87 66 63 38 41
40 23 36 33 31 36 46 49 37 30 26 44 107 119 139 205 177 118 72 46 25 20 39 51 57 56 56 75 51 88 108 95 92 24 46 59 85 80 54 40 72 84 57 53 33 30 18
8 28 18 34 -5 17 17 19 21 19 16 52 55 116 118 156 225 145 154 5 67 29 42 53 55 54 67 66 56 54 63 91 101 105 61 50 90 99 71 83 49 69 59 66 44 52 33
7 59 52 38 -10 58 24 27 32 27 32 40 44 87 110 160 154 256 180 6 72 53 55 64 65 64 83 66 61 59 48 62 97 115 112 94 90 122 86 59 53 34 69 30 48 41 65
68 76 58 35 44 71 29 51 20 27 43 42 63 77 109 143 146 212 174 49 110 122 108 101 81 86 65 79 83 93 94 71 116 99 101 96 108 87 68 65 72 50 12 25 36 39 55
53 52 50 68 82 99 96 44 31 42 22 9 26 46 59 136 119 126 154 111 357 289 242 150 85 142 75 118 61 110 107 120 111 65 59 66 64 53 21 27 38 69 63 40 43 48 35
57 60 75 86 81 80 65 37 30 14 24 6 9 14 42 75 137 6 109 111 395 246 97 103 86 67 113 87 100 86 74 80 64 34 62 55 33 18 37 36 29 31 38 43 50 45 49
73 90 89 98 81 53 42 35 31 13 15 20 4 25 20 55 118 -20 19 100 103 116 125 88 69 83 92 71 107 60 31 73 48 53 11 38 64 34 6 20 23 24 39 45 32 71 76
96 93 105 86 48 39 29 24 25 11 -14 -17 -28 -3 41 33 54 48 2 114 161 177 129 37 84 72 75 88 66 72 46 90 85 25 42 26 36 84 67 51 44 47 86 50 73 96 90
87 95 94 56 26 26 20 18 -4 -1 14 10 -18 -85 35 11 63 73 103 18 144 226 108 60 138 98 95 102 76 118 75 107 61 73 83 75 47 38 36 7 56 91 82 86 101 104 121
88 77 46 16 20 24 20 18 -17 -2 18 3 -15 -23 58 15 15 46 67 184 386 240 160 92 140 123 151 99 114 123 119 137 109 70 68 70 111 96 63 51 59 146 98 60 77 115 168
63 52 30 31 29 26 21 4 -14 12 12 -7 15 63 37 20 19 20 31 218 301 276 106 117 101 118 116 139 123 103 88 102 80 97 67 75 33 99 123 115 104 88 130 111 97 146 184
65 59 40 37 29 29 18 -14 -17 30 40 -21 79 3 7 14 58 9 174 147 238 238 190 95 100 88 138 92 107 95 91 81 27 85 114 82 73 42 67 36 96 76 98 184 137 118 127
90 42 40 32 30 20 13 -31 16 61 25 -6 83 8 19 24 61 78 172 102 90 156 97 83 135 143 145 108 130 109 75 70 51 66 79 56 54 72 49 59 71 158 174 73 126 92 153
80 35 27 27 23 14 15 -27 49 68 23 -2 36 11 12 19 62 122 260 101 212 127 82 41 97 84 88 54 93 56 50 49 22 44 42 86 66 59 103 92 93 139 208 221 292 288 211
74 19 22 24 15 20 -7 1 49 54 15 51 1 -18 10 48 151 170 176 203 269 110 93 105 84 89 112 54 53 51 48 45 12 15 39 73 78 87 126 56 38 157 228 299 256 375 367
44 19 22 17 26 29 -7 27 43 53 26 144 24 35 31 102 193 163 179 180 164 62 121 155 157 137 61 50 47 22 4 30 22 61 49 82 59 -2 79 65 77 73 132 195 317 332 505
60 22 15 12 24 12 8 25 33 8 244 118 63 86 63 129 66 188 169 191 165 117 147 134 121 111 86 58 56 8 4 33 53 58 44 115 -0 -26 28 48 62 135 144 247 399 294 382
73 26 6 -0 12 1 12 53 40 134 212 147 97 140 96 81 117 111 122 157 132 122 112 121 88 69 64 59 35 17 -27 29 34 -33 -1 38 26 63 68 47 45 117 180 266 315 355 425
60 44 3 -9 1 4 29 56 66 163 226 148 161 53 60 36 88 107 151 131 61 87 99 104 70 43 21 17 25 18 -23 24 -10 -35 -19 26 5 41 139 145 131 197 242 249 232 372 233
65 51 7 -18 -11 14 37 52 67 126 241 127 85 29 61 28 43 24 58 41 47 72 60 50 50 5 -3 35 26 2 -4 -34 -28 -6 25 40 29 10 132 124 116 192 171 89 94 144 176
54 69 41 -2 15 39 45 42 56 110 107 95 76 49 62 15 25 48 54 25 30 34 40 45 -13 -0 21 24 20 -2 -6 -17 -15 -15 17 47 41 8 104 88 111 66 53 29 54 87 54
46 54 67 20 28 55 59 56 53 86 83 33 46 42 56 82 65 32 -4 47 38 40 55 28 12 6 24 25 24 15 -21 -6 12 38 12 23 22 64 137 123 82 150 125 48 37 115 58
43 55 69 51 9 59 77 70 75 75 58 42 50 31 32 75 49 15 -3 53 41 61 44 33 13 28 32 10 8 -1 -25 -27 -8 24 49 81 29 69 88 103 190 149 140 115 101 92 2
50 61 65 53 17 40 74 81 90 77 44 58 72 50 64 45 92 -28 11 20 37 38 24 28 14 3 5 2 8 19 -4 14 26 8 -5 41 117 125 49 48 71 126 167 163 94 86 65
56 68 68 56 13 15 73 79 104 74 51 49 75 21 48 46 51 14 -0 27 46 42 31 24 13 1 10 26 21 24 44 31 30 24 17 2 -1 105 86 24 47 66 71 76 29 64 88
61 72 70 60 24 19 66 109 127 89 53 36 107 111 89 43 92 88 27 17 46 12 23 7 -8 8 15 27 -1 1 24 24 31 19 12 -4 -5 -0 49 55 16 44 52 46 72 70 36
62 79 79 57 25 -9 51 109 131 132 73 83 74 153 145 49 57 47 42 32 35 4 33 23 26 4 -10 -10 -24 10 25 34 44 37 16 16 4 13 27 32 32 36 76 82 94 101 26

GFSGBSN_con_3kmhel_033.txt.gz
Helicity
44 33 27 31 25 26 18 14 18 15 22 26 63 88 108 133 169 164 157 119 37 17 17 31 44 65 79 77 64 33 35 60 44 45 33 45 63 83 110 114 139 106 83 68 83 85 61
41 29 25 20 27 12 13 4 11 11 6 10 20 81 98 115 174 178 191 140 29 48 20 33 47 65 75 71 110 63 35 54 75 53 73 95 139 106 166 145 141 159 115 95 59 54 34
33 22 22 56 35 12 17 11 20 23 11 19 11 20 86 105 147 166 154 171 32 44 27 36 46 48 68 84 64 74 79 76 49 53 76 48 109 114 100 111 95 137 53 47 28 19 21
29 51 84 59 26 30 69 52 35 40 25 19 25 4 45 99 132 170 182 213 139 32 51 50 42 55 82 87 74 52 66 60 98 57 73 73 77 88 93 119 54 60 26 63 39 49 49
58 64 61 64 57 75 75 74 33 22 19 16 24 36 49 70 120 165 165 226 140 45 91 67 77 82 84 57 72 57 39 52 88 113 114 74 67 117 102 78 76 47 88 30 81 -12 66
62 68 59 93 84 89 74 61 38 20 30 24 7 4 11 20 53 142 151 208 135 98 61 99 146 90 67 87 99 92 65 60 70 113 166 150 138 100 77 67 93 73 41 71 69 50 3
53 54 88 99 92 91 55 36 40 34 24 18 14 11 3 19 54 67 86 119 52 216 193 250 71 192 57 114 92 101 72 66 52 62 123 114 122 63 26 28 65 103 109 92 86 81 39
64 88 111 93 84 55 25 34 33 24 8 11 14 21 -0 33 58 69 51 83 148 270 265 163 95 152 102 87 113 111 74 105 82 65 94 111 62 20 45 62 44 43 50 48 42 43 48
104 93 111 74 48 18 17 28 19 17 3 13 -4 -27 -13 26 38 33 67 -13 139 104 209 152 88 73 89 90 99 61 35 62 49 39 40 39 53 60 21 25 27 22 35 46 51 81 53
73 52 60 50 28 30 24 22 13 5 3 2 16 3 -32 -74 -5 7 30 -121 94 2 266 222 117 118 103 109 102 46 19 89 95 29 43 41 30 27 21 20 23 34 45 50 42 34 4
31 55 75 41 38 35 21 17 15 -1 -6 4 -4 -26 -25 25 -2 54 21 -85 76 128 211 84 186 91 66 108 87 81 20 89 50 68 78 46 36 17 23 10 45 51 96 55 50 60 85
41 73 54 36 35 26 19 21 7 -0 -15 23 -19 -18 31 41 2 28 -6 62 117 245 205 171 176 147 127 124 111 95 91 128 150 70 33 59 46 60 24 46 35 120 67 41 52 79 76
49 84 45 29 21 24 19 19 -17 -16 22 7 -15 30 39 101 16 6 25 174 134 236 49 121 157 155 146 152 113 84 94 99 89 92 52 32 33 50 52 62 85 102 106 99 22 72 124
45 74 25 23 22 23 20 26 -17 27 34 15 -20 81 31 33 17 40 108 128 152 68 137 107 106 109 181 130 86 62 49 63 39 59 70 44 44 12 83 54 96 51 75 75 88 52 89
30 45 25 23 24 29 31 15 46 34 13 -10 -25 27 -1 5 45 72 123 -1 104 100 83 97 87 136 170 75 104 72 41 36 34 53 78 61 78 84 66 67 50 96 74 52 67 59 127
35 55 22 16 23 33 31 66 67 39 23 27 80 18 20 32 40 74 129 7 120 254 72 44 116 85 114 88 101 68 56 30 60 14 21 94 68 58 99 85 73 70 132 134 163 147 100
59 62 24 8 12 23 26 41 35 35 23 169 69 25 28 35 52 92 106 74 45 116 76 81 39 67 43 48 74 58 54 84 1 16 6 43 69 72 95 38 51 110 138 175 198 235 205
52 65 29 6 6 3 -12 13 17 21 71 46 4 34 23 25 122 154 64 112 48 68 120 67 24 54 36 45 95 81 79 87 11 14 44 39 50 47 33 35 54 77 73 46 175 166 261
46 61 41 10 -4 -8 -13 33 25 95 113 36 65 80 61 126 120 52 93 169 86 150 128 84 81 75 63 44 85 63 36 49 29 31 32 91 33 48 36 1 15 71 57 93 189 152 227
38 31 56 14 -8 -3 9 42 97 158 106 56 79 72 133 142 167 43 92 122 136 125 75 68 75 44 56 33 89 30 30 34 34 37 138 68 40 4 -4 26 63 71 142 148 177 206 146
50 33 54 29 -3 18 28 55 52 129 164 77 55 91 70 119 79 59 67 132 64 76 56 90 91 71 65 63 41 36 35 34 36 51 62 22 10 -12 7 32 30 53 55 58 71 159 211
39 51 49 51 2 9 35 44 88 99 176 61 41 97 72 62 42 106 55 66 51 39 60 55 46 42 46 37 48 37 10 8 12 3 -23 28 17 22 38 81 21 66 25 22 46 51 121
38 65 61 53 10 24 37 39 85 84 66 19 -19 73 62 40 55 27 32 14 26 20 66 81 37 17 26 38 34 38 34 26 17 6 -37 25 22 3 29 25 80 -7 47 74 57 36 138
33 55 85 47 16 -1 51 58 63 69 25 1 16 61 66 56 46 30 16 33 23 37 34 27 25 34 31 20 19 22 22 2 2 -6 -2 28 12 21 54 42 -2 29 27 58 87 63 95
37 51 81 76 31 -29 46 81 84 83 67 27 29 51 85 65 47 49 43 36 32 36 45 36 52 37 39 36 13 19 1 -12 -13 -4 9 -3 9 19 11 34 103 31 21 96 83 96 126
46 59 76 83 56 -4 11 82 101 87 89 70 56 27 68 105 94 28 9 19 33 35 39 33 27 26 21 33 23 39 23 11 -15 -10 -8 -5 18 19 19 14 14 17 42 76 74 55 41
50 66 84 86 70 8 -55 92 102 105 122 75 35 29 52 61 59 -36 -26 6 33 29 33 31 20 16 28 19 32 54 37 20 26 3 2 13 29 99 78 30 56 47 45 75 31 44 -26
51 63 90 80 68 18 -37 86 96 100 132 83 79 26 71 86 63 67 36 19 23 32 41 24 7 12 26 40 35 14 12 13 27 26 12 1 2 7 -0 -26 -36 19 17 26 39 24 -13
52 57 89 78 52 14 -19 75 95 113 117 70 54 119 76 36 82 56 67 51 52 45 20 4 42 14 21 12 7 -1 20 33 59 55 9 24 1 26 9 9 7 -1 35 41 63 66 20

GFSGBSN_con_3kmhel_036.txt.gz
Helicity
32 33 30 26 41 44 47 49 41 36 34 35 42 53 58 81 97 124 159 156 167 96 45 26 18 47 80 85 95 14 39 88 49 28 23 30 70 103 122 126 117 97 94 81 128 169 159
22 27 31 55 62 44 42 53 56 58 52 51 47 57 52 50 56 115 158 165 182 161 48 41 26 58 91 73 109 18 26 13 50 27 14 1 85 107 162 149 116 105 116 94 144 128 88
35 55 43 42 65 50 61 73 86 97 63 40 37 33 22 17 56 103 144 170 192 176 52 40 47 60 84 69 95 58 59 44 69 32 34 59 143 145 217 230 271 220 136 95 90 95 93
52 59 59 64 53 87 87 74 66 68 44 20 13 11 15 44 63 81 129 155 177 199 111 55 47 67 101 80 79 44 64 71 56 86 61 62 104 175 194 186 127 92 64 81 25 24 57
57 49 68 72 97 96 72 73 51 48 46 42 30 8 11 18 15 32 111 121 164 215 159 94 97 83 75 73 84 48 38 66 83 66 86 77 109 109 103 103 103 93 101 63 67 57 61
40 60 93 107 109 84 56 28 25 13 32 35 34 22 10 3 15 24 41 78 159 190 24 116 138 102 86 77 92 55 62 75 75 117 105 105 148 125 122 119 103 65 97 109 110 71 38
61 109 89 78 71 46 27 26 38 27 22 18 25 15 6 -3 1 29 28 22 118 80 155 305 171 196 55 176 110 89 70 87 61 71 133 91 148 134 62 52 49 179 213 184 198 203 106
90 74 37 76 62 36 37 38 27 18 14 14 15 3 -13 -20 -4 39 29 55 120 173 186 188 215 122 115 53 113 92 85 141 101 91 116 162 121 53 39 60 86 126 99 85 59 68 88
73 66 42 71 37 35 40 28 23 14 17 9 6 -11 0 -16 -42 -3 -10 44 -119 143 180 102 167 108 79 103 97 82 87 135 96 99 99 76 72 23 60 80 76 87 82 79 76 47 12
81 49 66 77 31 30 28 27 24 17 6 8 -18 6 -23 -11 -46 10 -2 26 -155 47 214 146 171 100 86 151 104 63 52 122 131 69 63 64 58 46 65 49 46 69 83 83 58 57 43
70 48 85 59 26 30 29 25 23 10 -10 -2 11 7 -6 -4 163 -14 24 5 -188 72 281 131 230 66 83 103 130 81 30 91 72 84 105 54 56 44 41 39 53 62 100 117 76 68 52
61 42 69 38 27 27 32 30 10 -12 24 17 12 12 -14 11 59 66 50 22 58 114 268 197 249 130 165 112 157 134 126 140 186 120 59 57 66 63 53 59 95 116 91 28 20 32 46
31 48 78 27 17 26 35 18 6 28 1 4 13 -8 2 41 6 26 47 90 102 176 82 186 290 159 138 168 157 128 145 132 120 124 68 47 31 35 75 62 77 88 86 41 12 50 48
19 57 77 29 10 7 12 -12 7 23 -4 13 -15 51 16 11 22 36 104 26 225 53 91 124 159 180 175 154 102 96 83 102 79 94 41 42 32 47 57 58 75 59 93 81 95 58 88
15 61 83 37 3 -4 -14 -40 -51 -23 12 15 34 53 -1 -25 27 62 107 58 174 44 52 122 125 251 211 134 116 110 80 66 58 62 70 39 58 48 53 42 44 101 45 101 149 102 141
14 56 89 38 -3 -8 -10 -12 -4 1 18 56 50 24 31 6 48 54 72 -7 192 137 38 51 199 140 121 108 105 88 56 23 50 38 32 104 54 56 61 54 40 69 104 159 173 118 97
17 38 66 45 -1 -8 -11 -11 3 28 104 22 17 24 58 23 50 53 -4 -61 174 140 -41 127 27 94 49 126 71 76 36 22 37 38 23 61 83 92 113 37 79 109 96 150 211 222 157
19 27 38 40 0 -10 -19 -31 7 128 43 14 42 24 40 42 77 101 -47 -19 122 153 65 56 32 34 42 66 73 51 63 112 21 44 22 61 64 55 57 38 27 71 100 108 179 134 209
11 19 39 50 12 -18 -36 -38 -10 20 7 48 64 77 55 46 138 104 86 47 97 154 64 64 81 55 -16 75 144 122 108 68 77 32 57 79 47 55 84 76 17 66 60 108 165 152 280
14 19 46 56 25 -14 -36 -39 -18 50 36 48 46 130 119 155 127 54 82 68 120 202 105 61 39 34 9 96 77 78 67 45 42 91 132 71 57 47 76 81 68 42 86 96 161 286 305
15 25 38 67 42 -14 -38 -47 -52 130 109 18 64 83 96 86 48 36 93 49 94 124 74 86 91 51 39 77 71 50 41 41 38 60 73 82 54 47 14 -30 -53 -37 0 45 133 201 293
18 35 34 58 60 5 -39 -58 70 93 149 39 68 53 108 69 57 54 116 73 66 74 111 70 53 76 97 49 78 29 46 27 25 30 38 52 8 15 -19 44 50 95 100 85 78 86 141
21 36 43 48 68 29 -36 2 81 100 99 44 35 70 80 35 42 54 34 28 25 19 76 117 37 21 52 64 54 58 64 57 55 31 10 11 3 10 8 17 22 -12 36 67 105 107 128
19 38 49 46 61 48 -21 -9 85 85 52 22 20 45 64 52 52 39 7 12 15 44 20 49 73 55 31 23 15 29 35 35 43 52 59 15 22 28 27 62 2 25 95 164 148 103 83
11 35 38 54 67 53 5 -58 89 96 89 47 22 72 80 85 67 44 27 14 29 34 31 31 49 39 22 24 30 25 13 19 -13 -14 17 37 31 30 12 12 42 -13 25 56 125 81 31
3 34 37 48 62 59 16 -30 83 104 112 87 50 43 58 92 44 25 21 16 21 26 22 38 30 27 19 32 36 41 29 37 5 0 14 -14 18 10 22 13 5 10 28 79 105 63 58
6 29 43 51 60 61 17 -13 6 110 121 118 45 40 67 91 100 65 48 31 39 39 41 33 21 23 19 39 36 38 46 56 2 -10 16 13 11 21 22 22 25 49 36 95 38 83 26
13 29 40 50 63 51 13 -8 -17 104 121 127 88 27 79 72 108 83 36 28 24 31 35 23 22 12 20 33 29 37 28 30 19 9 2 19 5 11 9 16 -2 -11 -30 2 84 80 83
17 32 38 44 66 32 5 -3 10 94 114 118 86 36 63 61 77 69 82 91 67 65 46 21 32 16 9 14 28 38 16 22 23 24 39 12 1 15 -6 -11 -5 -10 -24 23 76 67 64

GFSGBSN_con_3kmhel_039.txt.gz
Helicity
25 37 56 46 60 79 53 58 53 72 81 78 63 51 54 85 71 75 116 114 126 171 157 60 63 49 95 100 88 68 74 -2 32 76 44 48 125 146 144 120 135 132 123 110 125 98 90
27 54 72 70 50 60 79 117 56 67 81 55 37 43 19 37 46 38 56 103 160 187 185 183 65 77 117 97 70 23 20 80 79 73 26 39 96 70 125 110 144 156 120 183 146 100 111
50 59 60 68 76 126 123 93 89 65 34 47 47 28 30 26 34 50 48 76 138 173 161 246 74 108 125 69 86 78 69 28 26 55 66 11 84 108 145 181 185 182 187 152 106 61 58
44 43 77 113 103 93 94 98 52 29 33 29 43 62 33 31 42 31 32 61 125 148 163 199 34 106 111 82 38 75 69 83 63 80 65 66 105 129 152 171 174 159 113 79 53 74 88
45 75 90 76 72 92 80 51 46 39 35 34 37 35 21 15 25 26 20 27 90 137 138 161 172 168 80 88 81 67 50 78 67 72 88 78 138 174 182 165 169 125 114 77 102 42 85
53 77 72 57 73 57 32 37 48 41 29 25 29 26 10 5 11 23 20 39 55 117 136 93 229 152 88 80 99 78 59 65 108 85 119 115 114 131 173 162 140 116 129 137 119 154 106
78 74 68 47 75 37 24 34 33 30 30 22 27 13 13 -6 -17 12 2 -6 32 103 107 97 139 259 139 70 104 75 72 102 108 129 123 116 164 168 87 84 92 104 164 159 121 196 113
69 89 61 74 62 37 26 33 32 24 16 17 2 15 -2 2 -6 -7 -14 2 31 72 137 46 155 141 107 135 122 93 119 165 136 111 133 165 148 73 43 47 85 123 102 66 36 105 52
80 72 83 72 55 27 26 31 33 23 11 7 8 -1 13 10 -5 16 13 2 24 -53 138 12 68 113 136 125 131 67 103 129 97 107 130 149 120 81 74 102 65 78 56 55 51 9 19
76 66 60 61 33 18 25 33 27 10 -2 5 1 20 9 -7 -9 89 -8 30 35 -54 201 106 188 160 139 141 135 76 98 133 157 123 106 120 141 127 97 80 73 72 81 86 85 60 63
67 41 69 58 20 7 13 13 6 -22 -32 -73 -47 -24 -16 0 111 99 -10 -3 -15 -73 230 94 198 134 112 166 149 55 87 155 137 159 144 74 95 86 79 56 74 61 86 77 71 63 30
38 42 70 53 11 -12 -6 -11 -28 -55 -46 -43 -29 14 7 44 66 58 -16 3 -10 162 312 153 242 178 181 96 160 126 130 158 149 121 96 77 95 79 37 72 104 83 78 53 60 53 81
40 48 80 59 0 -9 -19 -28 -30 -35 -9 0 7 14 11 45 17 22 48 39 61 196 193 182 251 137 128 144 164 156 152 164 140 162 113 95 55 56 73 69 93 97 92 87 79 86 54
44 46 72 57 3 -4 -7 -7 -8 -7 -17 9 20 58 33 17 1 34 40 101 160 47 179 173 223 139 194 135 132 151 154 129 149 128 136 67 55 80 54 75 41 83 61 75 58 68 52
38 32 35 39 -3 -7 -4 -9 -6 3 76 108 50 26 16 -44 30 41 78 -28 137 126 142 231 255 254 199 144 123 127 113 108 105 94 61 58 57 47 35 79 101 66 64 103 113 95 121
41 41 27 40 -2 -12 -20 -30 -15 18 70 1 24 50 36 43 29 45 -30 176 223 126 68 160 271 186 143 111 124 126 83 42 55 26 67 80 47 49 57 42 24 62 78 117 118 68 54
34 25 30 36 -3 -10 -20 -19 -14 -8 52 28 36 80 58 85 46 65 114 167 200 128 101 192 151 153 144 162 85 84 38 44 63 27 61 90 72 67 64 51 62 89 74 89 108 119 85
29 29 33 31 7 -16 -16 -14 -38 -44 61 36 72 107 76 67 62 38 168 115 113 41 247 175 67 80 101 133 76 80 45 64 13 89 67 84 52 59 26 18 65 94 86 139 121 62 148
29 34 36 17 20 -29 -26 -23 -41 -19 31 76 97 100 84 124 44 135 134 157 181 93 81 62 83 98 70 137 67 99 93 112 12 56 52 77 55 71 79 90 71 69 62 97 89 170 166
26 32 39 28 30 -8 -36 -38 4 38 7 67 107 159 131 131 58 90 88 52 198 147 66 69 43 29 64 138 100 68 119 94 110 76 63 72 45 38 29 66 104 67 36 84 165 148 165
27 34 44 32 31 -2 -53 -43 57 69 78 75 112 95 53 86 101 89 92 191 144 113 94 73 16 11 57 135 105 86 71 84 104 105 102 77 50 39 -18 -29 -20 -33 -7 11 72 131 206
21 30 32 36 43 25 -36 -53 66 91 109 47 59 43 21 82 57 40 63 127 100 93 86 83 93 90 91 77 68 39 39 37 29 50 80 72 28 34 13 19 -3 -4 35 38 66 122 180
25 31 28 34 48 50 3 -65 63 109 71 47 51 53 34 50 50 62 67 35 1 32 79 85 58 69 87 61 57 50 41 20 25 45 46 52 28 13 31 47 -4 -5 -3 36 81 136 148
24 27 28 28 43 57 39 -20 -82 125 82 34 41 61 49 51 28 50 30 21 10 16 19 55 60 42 36 20 27 39 57 60 56 60 57 25 32 16 28 40 13 12 8 41 143 145 145
30 31 31 24 34 47 54 9 -40 44 125 38 44 54 72 78 57 51 19 7 30 42 31 28 54 41 21 37 42 43 29 25 5 8 68 75 30 12 14 11 3 21 7 0 124 84 57
33 38 37 22 36 43 64 19 -14 -53 135 66 64 77 82 98 104 91 56 18 6 12 25 33 15 20 23 32 53 34 17 24 22 23 30 43 44 28 28 27 20 -8 -18 39 105 32 107
38 46 31 21 37 45 65 22 -4 -48 119 86 74 47 60 99 148 123 67 26 28 25 28 20 12 21 20 42 41 37 40 28 19 -3 5 18 34 25 11 16 19 29 3 78 14 62 112
34 48 30 15 37 45 59 14 -2 -43 107 83 95 33 69 93 129 115 107 58 28 14 7 7 23 15 19 32 42 39 30 30 45 23 7 24 28 34 7 9 14 -28 -2 37 78 101 95
30 45 37 23 42 43 33 12 5 -39 110 93 81 67 46 56 72 71 88 73 29 21 28 19 12 12 7 17 26 40 38 27 31 22 38 27 16 6 -5 -15 -11 -9 10 35 30 43 52

GFSGBSN_con_3kmhel_042.txt.gz
Helicity
43 76 65 42 36 61 91 104 113 108 94 58 32 34 45 32 30 27 49 73 109 99 214 166 185 83 104 112 85 58 123 8 24 104 79 111 155 160 191 152 166 157 175 142 92 93 99
52 67 50 83 115 86 84 114 96 79 49 29 34 42 46 46 39 34 24 28 88 100 205 206 176 72 153 81 66 82 59 33 42 84 68 102 109 99 135 138 151 185 105 121 111 95 111
59 65 87 75 54 76 98 94 53 44 48 44 32 40 31 28 55 40 23 13 18 98 139 217 168 75 90 36 97 71 77 64 91 63 77 33 74 154 122 160 133 179 163 176 131 76 92
58 84 79 63 57 103 104 51 22 31 43 42 33 26 21 11 34 11 13 14 3 25 139 186 165 79 120 28 74 153 104 83 57 81 51 33 77 117 117 165 163 153 159 138 92 68 65
72 75 71 55 84 113 72 34 28 32 34 33 36 22 16 4 5 -3 -2 -3 19 15 129 156 61 118 97 77 76 39 69 72 72 63 96 100 100 138 123 165 194 187 147 111 119 65 90
67 55 86 84 99 97 48 27 25 26 21 12 21 10 4 15 -5 -3 6 13 56 9 88 93 -6 165 110 96 82 54 72 87 100 84 121 123 115 165 175 187 160 111 119 119 122 172 128
67 49 90 95 93 65 36 20 20 21 4 4 -1 -4 6 6 5 7 -7 -28 10 10 124 209 83 124 105 73 111 77 88 86 100 132 152 125 134 131 155 102 116 118 142 151 148 128 100
55 69 81 87 89 30 20 21 16 5 -7 -22 -33 -34 -8 2 9 2 21 -20 -0 -2 171 152 149 140 90 123 119 77 93 135 126 143 135 135 114 62 -12 43 66 98 128 117 83 73 44
67 63 61 85 79 17 18 10 11 -13 -26 -65 -69 -51 -28 -21 13 40 73 -12 16 13 129 54 85 91 148 89 126 134 108 134 112 119 134 142 113 92 100 90 98 114 91 63 69 39 -15
66 76 68 83 81 19 16 13 -10 -21 -47 -47 -46 -46 -17 -4 45 82 40 27 21 45 123 78 40 130 150 89 147 154 125 124 141 104 118 94 132 99 99 120 105 110 66 38 48 40 68
57 70 62 85 72 18 25 23 -13 -14 -20 -10 -5 -7 -4 3 90 118 9 17 24 84 191 72 75 137 121 141 123 85 168 151 143 171 137 103 105 113 138 112 93 76 68 49 34 36 19
47 57 42 80 57 21 24 11 8 8 -0 -15 -11 -2 -8 37 28 20 28 26 52 186 271 79 69 146 145 120 191 183 154 183 131 165 152 104 98 101 81 114 87 77 89 72 35 12 55
43 48 53 80 52 23 16 5 -0 -6 15 51 42 30 28 14 3 41 33 32 -31 240 185 130 162 154 136 176 165 155 153 154 162 144 133 110 100 89 105 128 128 106 96 89 96 92 52
36 44 41 56 47 25 6 13 9 -7 35 24 2 7 3 19 -4 58 46 30 -32 279 168 242 232 157 202 144 152 142 124 167 148 133 182 91 73 57 77 71 44 79 63 54 68 55 52
30 38 34 71 45 22 6 11 -2 -7 10 27 46 47 61 79 46 39 73 11 154 254 391 267 214 231 198 184 156 122 104 100 111 76 59 91 82 72 23 89 82 64 64 50 64 64 48
27 45 41 62 46 13 -7 -8 -14 -30 44 40 40 63 97 82 50 43 35 176 243 378 149 217 255 196 176 142 132 107 70 48 68 63 80 58 72 60 72 90 83 67 72 83 96 47 31
29 42 40 49 41 6 -22 -21 -22 39 26 57 61 73 104 78 40 46 153 174 181 259 203 210 137 164 131 133 88 91 48 79 33 52 68 84 53 78 60 44 64 89 68 82 81 72 35
28 42 42 39 39 5 -43 -23 7 50 33 43 104 135 126 56 86 194 109 136 8 244 281 232 111 131 140 131 95 77 37 95 55 52 62 75 50 63 52 62 52 66 63 92 72 52 88
32 43 38 34 31 -19 -60 -23 31 32 14 131 142 91 54 37 199 142 97 83 125 189 144 64 59 76 136 99 47 68 60 85 -0 82 68 55 61 74 76 66 61 37 61 89 105 66 85
30 32 34 38 21 1 -53 -39 51 53 64 89 71 107 95 101 106 120 232 190 130 134 134 61 102 93 147 102 78 72 95 96 64 59 50 66 31 30 19 21 48 56 66 73 123 29 89
34 27 28 34 27 12 -61 -52 64 88 114 37 35 45 58 69 95 106 112 141 79 101 92 81 77 54 82 94 72 81 89 95 122 90 80 49 23 20 8 3 8 2 33 -2 86 159 115
24 28 25 33 32 20 3 -87 4 111 112 -38 -15 -26 50 80 103 67 79 101 76 73 36 31 -0 72 71 84 78 41 59 85 51 86 84 77 30 18 17 19 14 2 -16 12 37 91 182
33 17 28 32 33 33 21 11 -15 134 66 -68 -28 18 29 33 75 56 51 63 78 67 72 67 26 81 96 89 71 52 39 31 27 93 113 67 35 25 19 49 17 -5 4 16 28 72 140
28 17 36 33 38 35 30 31 26 17 84 37 14 57 32 -10 44 31 33 15 37 41 27 74 71 59 50 21 38 84 107 90 54 54 54 59 54 35 21 29 5 27 26 -3 97 113 162
5 19 37 41 35 45 28 39 38 40 56 51 83 71 82 37 50 50 27 22 28 55 44 48 47 36 31 37 63 68 76 71 51 38 45 51 49 18 16 8 17 24 3 -13 -9 76 45
6 21 29 39 35 58 43 38 63 36 44 56 119 88 101 112 80 101 35 18 8 17 11 13 -3 19 33 42 63 41 26 29 21 24 46 72 44 18 33 18 32 13 8 6 30 6 45
14 14 18 37 37 61 54 53 60 38 30 36 112 106 110 108 137 158 64 27 16 21 25 6 -5 20 24 47 48 37 44 32 19 6 25 20 21 23 19 4 35 44 21 23 11 9 126
48 -1 16 33 36 65 70 56 37 22 24 -54 94 81 105 98 111 125 119 81 37 27 28 3 17 12 24 37 35 33 33 39 27 25 26 19 18 31 29 12 31 10 12 3 17 33 61
36 4 15 35 34 65 72 49 19 12 -23 6 40 70 52 15 86 107 120 115 60 18 9 12 5 3 3 24 25 31 33 39 29 36 39 18 30 26 25 37 40 11 -6 15 18 43 29

GFSGBSN_con_3kmhel_045.txt.gz
Helicity
59 54 37 64 62 83 101 93 106 105 64 45 40 43 43 34 36 61 74 34 8 36 103 179 171 144 101 127 75 35 112 42 40 68 77 148 205 223 188 166 209 170 194 133 85 91 58
45 44 56 57 56 57 80 112 108 61 45 31 32 44 27 15 42 29 27 23 11 -1 74 130 216 205 111 104 37 63 70 50 60 115 143 156 141 152 146 148 158 134 97 96 111 87 72
33 50 55 46 53 78 101 125 67 54 46 42 31 29 20 13 16 14 10 11 27 13 5 156 128 254 74 45 77 111 72 22 55 89 116 117 112 165 161 164 125 153 132 130 98 85 88
44 39 32 57 76 98 121 80 56 42 16 14 5 22 10 6 10 1 -4 8 11 7 14 151 125 144 50 27 80 142 112 107 80 85 69 70 89 128 148 161 189 166 182 142 131 98 86
43 42 32 48 72 97 98 50 47 37 10 6 2 7 -13 -21 7 -6 -5 14 21 13 22 101 90 110 110 47 56 59 136 116 84 63 53 60 77 126 146 166 211 193 158 147 133 85 109
48 26 41 66 69 81 60 36 35 28 17 4 -11 -19 -28 -34 -13 -8 3 30 81 -3 8 46 86 162 81 64 52 39 78 134 110 119 111 115 93 148 165 187 192 172 123 121 117 132 127
43 49 27 63 86 106 64 37 48 18 11 2 -36 -50 -56 -37 -30 -2 13 32 1 7 27 102 169 206 36 74 83 59 78 126 136 127 145 123 169 141 99 94 113 127 131 132 132 107 87
42 34 48 67 95 123 63 42 37 22 9 -3 -28 -34 -26 -14 -8 13 76 32 -29 -14 137 108 234 50 138 95 122 87 77 129 125 122 140 126 92 103 137 134 143 134 140 142 114 70 64
43 32 50 62 95 97 53 36 31 12 2 -18 -17 -16 -16 -9 -6 57 95 42 2 2 135 131 160 73 91 125 98 104 78 138 129 130 121 116 85 3 62 108 112 97 79 79 60 60 14
41 31 45 62 97 93 50 23 22 20 18 9 -13 -1 5 1 45 107 102 22 -12 31 178 98 141 79 114 138 121 124 99 96 125 136 147 121 83 8 50 58 55 73 65 50 49 53 45
31 28 45 64 106 75 36 24 24 20 10 18 5 12 -16 10 67 69 20 2 30 74 196 60 142 119 154 209 118 127 172 105 126 134 117 130 112 99 101 103 93 90 73 63 39 36 42
29 24 39 59 104 54 39 32 28 3 11 25 24 29 24 -18 20 16 9 4 78 204 170 87 129 121 136 163 192 156 185 156 120 166 138 102 122 116 86 134 100 80 108 86 54 34 94
21 17 44 69 90 42 29 15 1 -11 2 35 7 39 24 3 -15 13 17 73 230 92 155 170 137 135 163 95 155 186 238 175 176 172 160 154 151 131 117 161 161 111 113 115 125 123 63
14 11 50 53 74 26 3 12 -6 -10 27 23 35 11 -5 -2 41 37 37 63 291 172 125 126 174 121 203 156 131 157 167 168 164 138 191 98 104 73 76 71 51 102 75 86 92 83 59
3 12 45 51 54 21 7 -19 -15 9 20 16 67 87 78 96 58 48 36 302 340 229 160 156 219 213 218 167 165 128 140 107 120 113 75 107 107 90 63 81 74 56 74 63 30 6 25
-1 13 40 48 44 -3 -17 -35 -41 1 17 32 83 81 110 68 77 49 73 330 388 300 232 249 208 144 134 120 146 124 115 82 75 78 82 67 97 66 85 85 105 49 49 72 99 40 35
3 -1 34 35 36 -2 -29 -26 -23 3 38 67 65 92 91 38 47 148 318 434 369 454 344 201 127 136 127 146 98 119 64 58 73 79 85 73 65 73 63 41 64 97 91 87 75 64 33
36 -6 17 22 19 10 -45 -29 -24 -8 48 63 57 66 83 31 92 141 210 202 161 263 210 170 105 179 125 115 94 75 46 39 37 54 54 65 35 62 64 52 43 58 42 77 74 53 82
24 -20 27 25 -0 9 -20 -45 -3 28 40 39 72 81 71 38 36 82 101 117 177 134 147 85 59 85 86 54 57 56 31 43 35 50 27 31 56 70 77 45 60 46 62 84 83 60 48
41 -7 19 25 18 5 -7 -36 51 74 63 12 22 -2 53 53 110 126 69 108 138 101 93 66 60 81 106 82 57 53 63 78 31 52 45 46 29 26 23 21 33 59 56 101 121 78 65
53 -17 6 16 28 11 10 9 35 113 103 11 3 3 18 24 58 105 93 69 95 113 73 81 89 97 105 75 64 62 80 91 106 57 98 56 11 13 20 12 21 11 17 52 120 101 53
59 -4 -2 15 17 23 16 10 27 103 114 -8 3 -13 -14 30 79 74 77 90 67 75 62 97 97 71 51 67 47 58 54 65 52 69 76 77 33 28 30 20 17 8 -14 10 32 10 115
30 16 36 12 13 17 23 16 14 61 86 -27 -19 6 -1 -1 6 74 86 38 83 70 64 48 26 69 123 86 51 52 50 66 31 80 93 59 37 24 23 47 36 26 32 51 45 57 70
25 37 52 31 9 19 18 20 18 34 62 46 19 16 -12 -16 -33 45 57 37 41 36 23 57 44 44 40 29 61 80 102 70 50 78 78 54 65 34 16 39 22 26 46 33 45 62 129
28 66 65 58 10 27 20 22 15 36 67 79 68 35 20 -13 -0 81 37 32 30 56 53 52 56 50 45 50 70 71 77 55 64 66 56 48 55 28 28 22 25 8 26 17 4 55 -19
83 103 59 72 27 28 25 22 31 48 82 97 106 121 75 50 26 92 79 38 34 47 52 38 42 35 28 52 66 41 33 44 34 41 82 77 61 38 35 26 27 33 50 10 19 24 -8
91 92 47 64 30 20 29 37 39 67 87 107 110 62 102 84 138 105 73 32 17 26 29 13 16 32 32 52 62 55 55 52 29 16 26 30 13 10 17 23 44 18 38 10 28 24 30
63 41 33 52 38 15 30 47 53 70 58 69 42 29 115 143 184 123 97 65 47 40 48 16 32 33 36 42 40 38 34 32 22 14 -2 8 13 30 31 26 39 51 42 12 5 6 17
77 48 40 39 11 18 39 58 50 66 39 27 -81 102 98 83 110 128 137 82 56 66 39 25 19 17 16 31 25 32 30 34 35 30 45 26 20 14 18 41 69 101 39 26 -4 -21 5

GFSGBSN_con_3kmhel_048.txt.gz
Helicity
59 31 48 45 32 47 43 65 116 106 69 47 64 49 45 32 25 32 33 28 27 47 27 3 128 121 152 110 127 27 90 173 40 78 75 187 196 240 206 189 207 159 156 134 107 115 59
51 51 57 39 53 38 61 86 122 90 65 44 27 23 7 16 23 18 16 18 23 24 35 21 61 129 128 39 34 45 24 81 98 92 94 140 169 200 162 132 172 92 133 112 108 73 45
52 51 51 46 59 25 59 77 77 55 51 43 17 17 1 19 7 -2 2 16 21 8 31 25 54 109 69 98 56 77 70 48 69 83 139 144 130 164 120 159 122 149 127 121 63 53 64
68 60 44 51 35 45 73 81 53 35 28 41 36 4 7 0 -3 -26 -19 -17 4 17 14 37 64 100 72 70 36 152 144 68 76 122 81 140 119 139 150 149 183 164 134 126 109 76 81
89 51 59 35 23 66 78 91 44 38 35 30 21 17 0 6 -32 -29 -31 3 17 10 5 33 59 108 98 13 90 156 129 62 85 103 79 49 120 131 159 169 213 188 137 150 145 63 97
72 67 50 35 16 61 89 65 35 34 34 6 13 35 -10 13 -11 -22 1 6 23 24 10 12 55 108 94 61 62 70 82 82 139 95 107 106 96 146 169 193 201 194 172 127 110 104 101
72 69 52 38 36 69 74 52 34 24 24 19 16 -5 -17 16 6 2 32 33 32 11 27 44 82 148 30 109 140 117 88 114 136 81 83 126 157 125 92 136 127 113 130 131 125 115 72
61 68 52 40 29 68 54 39 26 29 29 18 17 -4 -9 -16 -9 1 64 82 30 -8 18 71 167 73 229 105 134 203 88 107 133 81 89 203 167 151 110 104 134 133 134 129 124 96 69
49 64 46 52 21 88 37 42 40 7 6 24 40 40 2 -10 -16 46 83 69 50 8 81 130 109 62 150 113 86 84 65 121 126 76 100 41 75 60 160 129 117 154 135 112 87 87 27
37 66 42 43 62 57 50 52 23 -10 6 19 42 32 15 -4 -19 54 42 66 3 -3 141 144 133 28 116 101 155 149 82 94 158 78 99 100 76 21 7 71 113 155 67 73 99 75 55
28 50 38 55 48 47 55 46 11 -9 27 38 25 21 52 72 54 13 20 -3 12 38 145 136 -19 8 116 123 93 132 97 129 124 131 132 118 54 49 77 85 48 93 85 63 44 40 35
32 17 41 45 33 30 33 55 23 5 20 28 20 28 57 48 34 -12 3 24 52 165 189 137 -13 100 177 94 180 168 117 132 124 139 102 151 158 87 62 105 86 52 103 72 56 44 67
45 2 41 46 38 21 32 45 39 17 26 23 34 50 82 53 51 45 61 35 219 216 172 83 10 123 161 134 158 144 134 170 117 120 113 122 133 102 101 158 149 93 104 88 96 114 67
37 -5 14 39 38 18 18 21 29 26 28 29 39 28 40 40 21 15 40 198 216 158 162 135 95 129 165 161 157 190 150 170 179 115 162 104 97 88 87 72 48 109 82 78 120 107 94
37 16 -22 26 29 17 7 11 15 32 43 23 43 44 95 49 20 -22 152 122 64 166 223 156 211 256 227 199 125 209 156 162 118 114 58 84 100 107 76 74 80 66 99 75 46 48 101
48 13 -20 13 17 16 0 -4 -5 9 20 32 67 55 110 59 26 159 152 126 96 316 267 127 203 151 138 130 112 128 138 110 81 101 93 71 93 68 83 84 126 68 47 88 93 97 115
50 24 12 -10 15 3 1 -20 -16 -16 35 81 90 79 93 90 121 142 165 121 189 195 158 106 82 102 84 106 74 108 92 82 79 80 72 63 66 91 74 56 48 94 81 85 62 66 57
61 44 25 -37 14 1 0 -1 8 -15 30 59 76 64 88 67 73 130 98 100 122 129 91 57 57 95 57 81 74 85 55 67 66 42 61 77 53 64 67 38 49 57 34 58 53 47 65
63 42 39 -1 9 -2 6 20 48 35 37 47 63 55 42 37 22 82 121 124 134 117 86 50 40 46 55 65 49 69 59 31 54 71 37 37 56 70 65 33 48 31 52 71 71 62 25
61 40 30 14 8 10 3 23 37 99 66 12 21 28 44 32 49 52 84 68 58 81 83 45 51 65 64 60 62 76 43 63 35 68 68 43 34 28 23 21 26 44 63 90 89 67 65
49 29 30 -6 6 9 10 13 37 84 127 2 14 22 26 46 45 58 67 70 32 56 61 73 67 49 51 37 49 59 55 75 70 69 82 35 21 14 25 18 29 22 23 57 92 100 60
46 44 31 18 12 -5 17 12 26 58 106 12 11 18 9 18 44 28 44 57 40 49 68 67 85 101 66 43 28 37 54 65 60 81 93 82 13 13 27 19 7 24 6 20 16 26 63
56 56 31 40 34 13 9 25 19 34 19 19 17 3 16 7 -1 -1 19 54 46 50 116 107 92 89 114 89 39 37 69 73 40 66 80 59 29 24 23 31 28 22 12 90 97 68 60
81 60 24 56 58 21 25 10 24 24 16 20 27 23 20 14 8 -6 69 73 61 39 31 65 59 52 1 53 56 89 122 89 46 74 59 58 49 21 19 35 25 21 43 79 85 53 99
94 37 37 66 53 22 36 0 20 23 30 21 39 50 61 30 22 36 45 59 71 93 68 41 41 35 18 53 64 61 75 63 63 67 65 45 40 28 31 22 24 40 32 43 20 35 6
86 33 56 47 23 10 11 14 19 21 30 42 77 73 86 83 66 99 76 88 59 59 67 56 40 45 35 46 57 55 52 41 40 47 90 79 57 44 26 30 35 53 63 44 38 36 19
96 67 51 28 14 20 25 0 25 34 38 58 88 92 98 117 154 131 65 76 57 57 36 41 41 47 45 59 52 44 37 47 45 32 31 48 42 35 21 23 57 26 40 61 34 28 36
94 46 29 23 14 19 13 13 33 24 42 67 76 63 68 115 77 128 114 85 58 45 27 16 58 56 61 59 52 55 59 56 56 37 29 22 25 27 38 36 49 40 83 59 29 26 10
78 36 21 17 17 27 7 15 33 9 53 34 50 3 -25 5 151 123 132 105 53 53 41 50 52 33 29 46 40 48 53 50 51 49 52 28 16 17 13 25 39 112 90 94 20 -11 -12

GFSGBSN_con_3kmhel_051.txt.gz
Helicity
53 56 64 58 39 54 31 45 69 89 65 38 41 37 22 43 19 23 27 28 33 35 37 31 71 47 58 132 47 25 128 184 49 80 65 127 179 202 145 183 241 182 146 165 137 131 110
36 67 60 45 56 33 51 59 73 75 43 23 23 29 50 27 22 23 11 20 25 21 25 42 62 61 64 206 24 66 43 157 89 75 60 142 146 212 156 152 184 83 123 107 102 76 76
37 54 61 70 57 16 77 79 55 51 26 30 35 44 31 31 19 5 2 -1 15 12 8 16 37 32 69 137 114 95 83 116 80 66 74 137 127 198 139 151 138 114 103 102 68 70 62
53 52 54 53 50 19 59 49 62 31 21 34 49 42 31 35 18 11 -3 -8 7 24 -3 2 24 26 53 -35 90 52 107 89 82 60 77 88 132 180 156 142 177 170 155 121 89 69 78
44 78 45 61 43 23 47 52 44 16 18 33 42 45 21 30 1 20 3 -7 26 1 8 -1 33 19 115 20 102 53 89 110 98 95 105 121 116 146 194 175 201 163 114 133 174 69 94
54 77 49 60 25 42 49 29 29 36 15 19 27 16 30 9 -3 14 8 -10 6 54 91 83 36 45 115 41 1 69 73 55 100 96 81 79 130 152 174 200 170 174 195 144 125 90 100
73 71 39 60 40 84 39 34 30 20 -1 24 31 52 28 21 -5 3 14 23 57 39 29 -5 20 110 97 35 76 60 114 77 156 192 125 94 176 108 112 186 140 119 131 126 123 112 91
81 73 21 41 52 60 40 15 17 14 4 10 2 19 31 16 1 -2 53 79 70 27 -28 12 83 18 95 196 36 102 117 125 129 97 222 146 86 87 119 143 145 144 153 146 159 122 69
79 76 16 38 44 59 31 14 21 16 11 -15 -8 -12 25 41 16 18 47 82 115 10 19 85 -65 138 231 174 72 19 110 141 136 63 93 202 164 90 104 136 162 176 139 134 132 113 46
82 69 18 26 44 39 40 18 19 12 6 11 -2 -9 26 81 42 27 13 36 7 15 148 117 -91 93 96 99 129 45 67 143 122 67 43 212 129 169 121 65 110 151 142 131 117 112 107
85 56 17 10 38 28 31 7 13 7 6 12 13 32 29 51 59 3 5 16 35 61 192 184 57 100 102 143 116 167 139 131 57 141 76 98 -14 -22 94 159 136 119 77 104 135 109 100
76 51 15 6 24 31 19 6 6 10 -11 -24 16 10 53 41 72 55 36 37 15 190 209 112 28 69 109 95 131 125 113 143 120 188 211 95 88 60 94 112 122 62 142 140 116 99 102
63 46 32 11 14 27 18 9 4 9 -6 -20 25 26 39 48 106 -13 21 73 227 162 177 67 108 116 56 136 130 126 103 149 94 97 128 202 171 99 62 98 84 93 88 134 157 155 99
63 49 46 31 10 19 17 2 6 4 0 -2 20 77 73 9 -43 41 131 222 223 172 133 32 114 47 116 112 209 158 135 159 135 105 140 96 141 125 108 82 41 73 84 84 118 96 93
74 50 42 34 4 10 11 -1 -6 -1 10 16 72 117 102 111 125 130 60 119 153 138 75 93 131 225 176 121 122 116 129 108 101 84 52 79 104 101 91 89 100 78 85 78 78 91 114
84 69 49 43 31 1 13 -1 10 6 16 42 133 126 126 110 93 100 37 101 123 137 132 89 98 98 109 101 88 93 132 113 77 101 101 76 82 85 62 86 128 69 74 84 92 80 111
101 69 51 62 39 -6 22 7 36 19 25 51 88 81 105 86 41 54 28 62 121 84 84 63 49 47 66 41 59 127 94 85 86 100 53 50 55 87 56 61 47 82 78 86 79 77 121
111 68 57 60 42 -11 27 24 20 51 44 25 60 76 60 29 6 49 26 32 82 103 91 78 56 54 43 60 66 80 55 39 92 51 76 59 37 56 64 47 53 54 45 56 56 48 54
99 70 48 40 42 3 20 34 29 41 67 19 6 41 42 32 15 63 82 90 57 70 50 47 36 31 49 50 41 69 71 68 67 82 46 47 62 69 64 38 58 43 52 61 60 53 30
98 62 49 41 31 21 33 38 42 44 81 -3 19 57 35 25 17 10 44 52 46 71 52 48 37 43 47 38 54 68 75 73 62 83 75 63 41 35 25 32 37 46 58 74 60 45 46
87 65 50 37 31 24 31 73 44 56 73 7 13 36 18 28 3 28 -26 28 36 42 51 58 49 42 23 27 45 51 77 82 74 84 85 56 24 30 33 33 43 44 34 53 61 71 37
98 84 52 42 38 39 25 43 73 58 61 32 39 27 7 22 16 -5 30 18 10 7 45 55 51 62 37 19 19 1 63 65 39 77 87 77 27 21 36 32 23 38 25 19 22 31 46
112 104 62 65 40 43 34 29 49 42 11 31 37 28 33 13 -14 -12 -9 22 42 51 68 85 68 84 91 59 46 37 56 63 36 56 92 90 19 25 33 35 30 31 25 47 66 49 36
134 101 83 56 46 48 31 8 22 41 -22 -2 19 42 55 25 19 15 5 32 30 36 33 77 79 76 40 47 56 106 136 103 73 90 51 64 63 41 40 41 34 23 37 48 98 72 69
132 97 71 58 46 43 26 4 2 22 10 -2 19 24 57 48 53 41 61 36 44 72 55 40 48 44 23 45 86 93 97 68 56 75 68 44 49 35 37 33 32 36 44 63 32 43 40
106 98 71 60 31 21 19 15 -3 5 -4 15 18 51 43 62 91 103 118 94 56 64 79 52 53 53 37 44 61 51 45 45 42 51 79 74 52 39 24 35 27 52 78 47 39 49 24
109 74 64 40 28 27 27 17 4 -11 0 13 17 81 67 71 57 150 140 130 91 58 46 62 53 54 43 56 57 58 53 48 40 34 46 58 55 46 30 24 34 27 65 60 61 39 47
108 81 52 38 34 18 11 20 1 4 28 73 56 59 144 101 54 91 174 117 105 76 52 40 70 71 63 62 53 47 49 51 55 46 48 39 38 44 49 36 43 46 88 65 60 59 41
142 69 50 42 12 1 34 -6 -7 6 23 76 88 52 71 74 63 23 155 127 76 63 50 51 46 47 34 54 49 54 54 55 55 55 75 43 40 37 31 31 30 73 85 97 64 52 38

GFSGBSN_con_3kmhel_054.txt.gz
Helicity
39 46 59 74 41 30 30 63 52 50 36 11 15 40 46 59 53 36 32 21 24 23 18 39 59 80 69 44 172 118 246 179 59 74 72 82 104 134 130 134 172 162 134 116 121 104 108
57 46 70 61 48 37 38 49 42 30 14 -7 19 45 47 48 44 22 10 13 13 -5 5 26 45 72 71 94 95 13 54 215 76 68 69 75 102 119 147 130 138 146 160 89 88 95 88
55 62 61 51 46 42 31 57 40 27 1 -9 12 31 46 38 28 27 -6 6 1 -19 -16 6 22 51 34 39 118 -82 18 118 113 54 53 65 84 111 122 134 147 172 105 88 86 89 72
59 67 64 54 36 32 37 44 40 24 14 -11 7 36 39 45 19 15 15 22 9 -3 -13 8 22 20 14 29 112 255 155 18 107 38 34 58 54 84 117 115 96 95 109 93 59 53 94
74 74 61 41 30 34 21 26 23 23 -5 6 17 24 31 31 26 -1 -7 19 10 -24 15 21 39 15 31 43 19 217 90 44 42 31 25 53 101 92 150 84 122 105 103 91 54 83 55
61 68 59 37 41 29 34 25 30 24 1 9 4 14 22 29 18 -3 -26 -1 17 33 73 87 46 13 29 122 38 86 99 141 112 46 116 76 134 131 94 112 125 90 117 96 92 98 84
66 64 54 40 26 40 16 34 29 10 8 12 7 16 13 31 23 1 -0 15 51 65 47 -20 -2 40 62 118 32 92 128 141 91 101 189 91 109 116 81 80 235 97 78 106 112 90 87
61 69 54 46 22 28 20 25 15 6 2 3 9 11 11 43 29 33 5 39 78 62 -22 4 49 70 77 105 104 73 140 110 136 99 172 169 60 90 76 92 133 35 81 101 132 98 106
66 68 51 36 23 23 13 18 14 1 -6 8 -16 16 30 62 53 19 27 27 45 2 64 62 29 60 115 79 105 145 71 105 109 130 105 85 49 70 68 80 107 120 77 100 140 120 96
60 67 56 46 24 25 21 14 20 10 -5 13 7 33 37 86 21 27 21 33 40 48 82 -87 -57 98 154 120 64 109 74 171 193 160 133 137 170 43 48 69 81 118 161 160 147 132 123
66 69 57 44 44 17 27 13 16 3 -6 14 48 34 28 45 56 56 84 37 30 85 94 44 301 89 130 134 49 69 118 86 160 84 104 126 175 66 53 32 71 155 117 144 155 157 141
73 67 65 41 46 11 24 14 13 10 -2 8 30 50 41 40 50 30 27 28 95 289 172 257 154 124 152 111 109 131 52 113 30 66 87 139 150 312 225 201 122 76 158 189 163 153 150
87 80 61 53 43 28 9 15 17 8 10 23 45 66 102 95 142 96 118 145 196 258 192 205 168 146 126 115 59 95 159 115 70 62 120 133 108 77 145 247 256 116 138 220 199 168 176
91 89 77 55 43 31 -4 14 33 9 19 42 63 104 92 112 132 152 126 176 73 171 129 138 115 109 129 111 65 113 162 56 75 76 167 121 127 70 80 99 96 123 181 243 243 197 164
93 100 81 52 51 33 -2 31 36 33 16 33 46 90 96 88 104 110 89 79 92 121 119 94 85 117 157 56 53 61 196 118 65 34 75 121 128 104 79 51 67 87 86 111 128 152 169
109 104 83 52 51 32 -4 39 43 50 32 24 40 9 68 54 75 120 64 46 60 84 92 93 57 74 95 77 96 81 82 75 67 60 51 51 76 99 74 92 111 74 68 84 111 114 147
107 96 86 50 47 31 -5 38 47 57 70 11 47 55 12 27 47 66 35 22 71 43 69 69 36 25 34 31 39 65 61 44 62 74 42 46 61 76 63 76 55 83 77 102 109 114 132
90 96 77 54 43 34 15 39 50 52 83 2 20 38 -26 -13 4 11 36 36 53 74 70 60 45 39 46 64 49 45 42 29 71 61 51 56 48 73 82 56 63 61 66 71 106 78 65
101 98 72 48 35 32 26 42 53 64 49 -4 8 30 13 2 5 7 9 56 63 53 52 41 22 43 49 42 41 51 48 49 81 89 52 33 42 51 46 36 43 41 34 51 53 54 50
107 97 81 66 48 31 36 34 62 95 68 11 14 19 28 33 18 -3 1 -10 26 69 75 47 31 19 35 47 47 40 56 73 58 84 79 64 56 69 75 62 56 44 26 32 48 32 40
106 100 110 96 70 62 41 34 64 96 92 -0 39 38 25 8 13 10 -14 -35 -1 21 42 70 27 32 16 21 30 39 70 77 69 83 85 63 48 54 53 52 57 74 49 25 55 69 48
109 104 111 90 69 62 47 29 40 92 94 8 41 48 32 8 -5 -4 -6 -4 -33 30 43 38 36 52 42 15 25 22 55 55 43 50 87 88 41 38 38 36 28 54 37 23 23 6 9
112 99 108 91 72 56 56 27 21 63 40 37 23 34 38 12 12 -6 -22 -29 12 41 44 57 49 56 50 46 46 40 56 48 36 24 83 71 43 36 33 37 34 32 34 30 39 46 47
101 101 104 99 84 55 57 19 7 39 9 4 40 27 43 39 31 19 18 -4 -32 18 57 78 74 72 65 76 93 109 108 88 64 85 74 56 58 55 39 37 36 42 38 26 11 23 16
91 98 88 94 86 53 43 30 20 4 31 4 5 52 68 61 51 55 67 33 34 32 43 48 51 64 34 71 101 89 84 56 57 72 61 50 54 64 54 43 52 32 34 56 44 48 16
62 70 87 80 74 60 46 38 20 12 12 20 5 22 51 89 79 90 93 88 63 61 64 46 55 58 43 55 68 59 39 57 42 44 68 68 54 44 45 54 44 62 82 57 71 77 68
72 80 81 64 63 65 37 20 22 19 -9 19 23 14 47 77 68 110 109 123 103 79 74 72 55 40 43 46 59 60 56 53 38 32 44 50 50 32 35 43 45 33 83 72 71 79 67
52 101 78 58 48 29 16 21 17 -3 -7 41 40 44 19 61 40 57 88 186 145 95 73 63 83 59 57 44 49 56 52 44 45 48 39 31 42 45 42 40 41 58 88 78 91 88 65
90 102 70 50 24 20 2 29 22 3 18 84 70 70 49 72 86 108 34 50 102 120 121 61 90 80 71 66 63 58 56 48 50 52 63 47 55 51 31 43 52 68 100 101 75 84 87

GFSGBSN_con_3kmhel_057.txt.gz
Helicity
46 54 44 59 47 36 34 29 51 29 31 28 9 3 25 32 40 38 33 28 11 7 23 20 25 42 60 30 82 67 237 61 51 58 53 85 89 129 148 99 134 110 159 136 209 93 93
49 41 53 64 48 26 30 41 28 42 24 -3 -4 12 37 43 35 37 25 9 -11 16 13 16 16 39 41 62 34 69 85 283 68 59 51 67 99 88 180 122 132 129 205 152 153 72 83
56 42 47 60 36 33 32 30 37 35 9 -13 1 19 35 50 43 32 17 -7 -6 -0 9 -3 1 8 30 24 59 52 46 244 287 54 41 56 100 89 179 153 144 238 188 130 96 58 62
52 54 46 45 42 32 29 26 22 32 -0 -9 4 14 11 29 43 34 16 -26 38 23 -5 -16 11 12 33 26 33 130 -82 111 345 83 55 53 100 56 181 151 112 137 142 115 95 87 80
58 47 40 36 58 36 38 30 32 13 -12 -18 2 30 5 17 27 22 -7 -29 14 9 -16 10 34 25 18 23 40 104 -3 16 173 48 74 61 116 89 129 95 86 137 137 100 65 42 83
53 48 30 39 54 33 31 9 5 -3 -9 -7 21 27 -2 12 21 20 -10 -8 -2 2 14 40 24 4 22 63 24 77 62 59 175 94 122 119 142 152 134 103 126 119 105 49 98 37 67
69 54 34 46 54 30 31 11 7 -1 -0 5 21 32 5 28 31 14 2 9 16 34 40 -10 25 16 44 46 70 126 6 75 71 74 144 153 210 182 91 49 80 131 71 140 96 60 81
78 63 38 43 46 37 23 14 13 1 5 18 39 32 39 48 36 19 6 -5 21 70 -15 -23 9 30 -0 -35 77 118 69 51 103 76 113 152 99 105 45 47 116 240 95 118 123 96 84
91 71 44 44 47 46 20 12 8 4 3 19 39 44 48 60 61 39 11 -4 6 17 51 14 10 -3 -3 -19 111 73 111 59 78 59 98 80 70 147 169 77 112 155 107 114 101 114 99
101 81 52 46 47 48 13 6 -1 9 16 26 30 58 57 55 83 57 72 37 38 47 149 82 48 90 57 170 182 192 170 82 245 91 106 129 94 45 138 112 83 100 115 130 135 65 92
87 90 47 48 44 56 1 2 -5 2 29 30 46 60 50 56 95 148 123 76 29 57 110 11 49 40 70 60 118 185 111 227 203 229 166 118 75 87 49 120 59 119 103 100 130 165 185
91 87 62 53 47 53 -11 -7 -8 -1 24 45 41 72 74 157 119 96 73 39 53 192 233 295 180 149 63 137 96 102 83 249 190 209 164 164 174 137 149 183 118 83 124 144 156 157 104
93 83 72 53 43 46 -21 -8 15 15 18 44 46 54 81 87 70 85 54 61 130 183 204 172 150 173 18 120 137 74 198 255 164 114 134 203 154 276 303 250 222 91 102 198 162 170 191
85 85 70 49 48 41 -28 -20 21 32 30 49 49 37 123 89 59 60 47 97 -2 119 102 149 155 79 143 114 75 59 44 41 19 42 103 157 244 274 202 232 150 97 91 227 160 186 158
83 78 74 53 43 39 8 -49 24 44 51 52 63 71 79 108 53 48 79 46 78 85 109 135 90 76 41 22 68 75 76 28 19 52 63 88 138 79 185 233 232 157 199 177 252 240 182
79 72 71 65 45 43 22 -5 -29 49 57 54 34 71 78 63 34 15 45 12 63 26 60 125 72 76 37 67 96 81 38 48 11 32 80 69 81 55 75 49 151 156 95 182 180 159 150
69 68 76 79 58 37 18 27 -5 42 80 30 20 39 69 24 40 11 69 -3 32 72 66 80 65 21 13 31 64 62 36 18 33 18 19 39 63 65 56 78 59 76 93 102 139 185 228
67 73 77 72 57 49 35 25 27 27 96 -1 13 18 44 -14 2 -0 36 16 47 56 24 37 51 38 9 5 24 27 22 18 41 35 32 47 38 68 59 49 83 114 81 54 92 67 106
69 76 85 78 75 76 54 25 30 25 45 16 26 1 40 -4 -18 -13 18 25 31 49 43 45 29 35 26 34 23 32 37 31 57 62 47 25 30 58 62 37 30 35 37 95 113 110 76
71 84 85 80 82 76 58 40 32 35 54 -5 29 33 14 7 3 -17 -5 -12 -25 19 39 38 28 25 3 15 49 19 33 47 58 71 94 62 42 79 82 59 63 43 26 35 72 73 75
67 80 87 84 78 69 58 44 28 50 80 -28 40 58 50 3 -1 -12 -17 -12 -18 -1 19 34 25 37 31 14 17 17 32 46 47 56 69 76 58 61 67 54 52 53 37 20 46 40 68
71 79 90 87 85 76 64 39 25 53 128 36 38 61 61 27 -14 -2 -36 -42 -32 22 28 16 35 29 25 40 52 19 10 24 27 34 37 65 56 59 47 40 36 53 30 18 15 14 24
70 67 67 74 90 79 54 35 31 45 25 39 45 30 55 56 47 13 13 -48 -41 48 54 61 57 36 31 45 44 30 51 68 56 36 16 44 53 38 40 29 24 26 17 27 40 50 29
43 25 41 61 72 70 59 46 38 38 27 26 41 29 51 75 84 68 60 55 41 -1 19 62 84 84 71 53 52 65 69 65 49 65 48 38 51 54 39 29 21 42 49 40 13 40 30
11 10 23 42 56 49 56 47 38 31 36 35 17 38 55 74 89 82 59 58 42 31 18 37 82 91 62 81 72 60 63 45 54 58 49 54 42 44 53 36 57 21 32 31 38 35 14
-18 -1 29 39 46 45 49 35 45 33 25 16 32 18 35 59 94 107 93 87 94 39 43 38 38 62 70 78 84 71 50 56 37 34 55 61 67 61 61 59 55 43 44 30 52 83 81
2 12 44 40 45 42 31 27 34 34 27 14 29 19 23 37 80 105 107 119 122 108 83 56 44 42 46 53 69 70 66 66 41 33 37 52 45 35 43 50 55 25 58 67 78 101 117
30 6 43 52 46 32 30 30 46 36 14 21 35 44 36 17 50 64 118 91 152 127 100 68 60 37 30 27 45 48 58 41 41 47 40 31 44 46 46 45 36 49 65 82 93 73 76
35 41 57 44 53 31 25 28 18 38 45 56 68 63 48 71 78 129 119 14 54 170 190 107 94 49 42 47 57 58 47 47 39 34 49 42 46 55 37 54 51 38 135 112 91 92 95

GFSGBSN_con_3kmhel_060.txt.gz
Helicity
41 35 42 40 52 55 50 45 50 30 18 12 12 6 15 28 32 42 39 32 22 19 11 15 19 45 58 53 56 139 153 78 26 63 56 98 111 119 149 119 167 169 163 132 174 183 146
43 46 36 40 46 62 44 37 34 40 16 3 -4 15 16 20 33 39 38 27 13 -8 5 17 22 28 24 14 20 94 75 103 80 60 50 71 125 108 151 115 140 132 190 274 142 146 156
61 42 42 38 54 59 33 34 35 19 -8 -9 9 41 29 13 -0 4 40 21 -1 -21 -5 6 8 1 2 7 51 67 61 69 192 68 73 43 78 113 166 158 138 199 191 321 262 66 76
66 52 43 34 52 56 32 26 25 -2 -9 -4 7 18 11 -1 14 9 34 7 -41 28 20 2 2 -2 19 -5 50 101 31 46 111 208 112 52 56 117 142 138 180 159 196 226 204 90 69
69 58 40 42 55 48 35 30 27 10 10 18 16 24 9 3 19 27 13 -18 -15 29 1 -16 -5 15 2 -7 29 56 62 53 118 193 63 80 86 168 98 140 183 192 155 196 137 129 108
69 62 44 47 52 54 41 24 24 25 24 35 39 24 12 18 38 29 4 11 -2 -11 10 36 2 12 23 51 86 75 27 20 155 155 81 72 142 158 169 180 183 152 149 125 120 91 99
72 68 48 52 57 56 40 19 12 29 38 49 50 29 21 32 25 18 18 35 13 -5 5 -13 2 5 -22 5 -1 43 1 -26 166 129 190 122 200 119 90 128 132 86 94 150 94 119 95
79 58 50 57 52 52 35 9 4 16 37 61 64 48 37 39 40 49 62 19 12 -4 -8 -8 -10 -0 -22 -55 5 -2 -11 22 114 159 200 207 99 111 113 112 116 142 98 107 122 122 121
75 52 46 54 49 51 33 1 -0 -1 19 50 62 49 46 37 52 61 33 34 27 45 53 47 -2 1 3 -4 12 -75 48 16 142 302 276 219 160 116 90 103 111 126 153 160 213 205 204
67 54 47 45 56 54 25 -4 4 -3 4 32 54 33 43 38 86 80 60 34 31 28 166 92 114 48 -13 7 68 70 45 39 186 94 139 160 122 127 147 114 119 132 154 166 171 149 110
64 49 41 41 43 51 19 1 6 4 4 -0 32 30 43 40 52 67 42 30 30 38 163 -3 83 81 -16 35 53 108 124 60 158 192 142 149 42 95 195 141 110 130 136 213 154 130 201
68 42 32 31 28 44 21 -9 -6 1 15 2 23 43 28 50 41 95 53 38 68 141 106 126 77 71 98 164 121 85 78 123 158 220 221 192 194 92 93 86 150 146 229 222 191 176 153
64 40 25 29 30 37 22 -3 -21 -8 24 45 20 23 73 50 63 47 30 33 107 61 43 153 134 146 84 114 89 95 142 117 153 135 100 144 140 155 170 72 124 148 208 219 185 184 147
56 41 32 31 34 34 29 11 -5 -28 6 81 59 25 83 43 16 20 36 10 -23 40 88 109 103 101 207 109 138 158 117 101 115 101 100 44 61 115 116 260 261 201 143 209 181 161 159
49 48 49 33 31 41 36 23 -23 -13 -10 82 50 63 61 70 39 -10 35 33 -2 21 56 83 43 46 80 19 -13 42 137 89 48 103 70 121 121 129 141 252 237 182 155 127 223 182 152
52 53 58 43 32 40 43 35 -2 -34 -14 78 18 37 40 87 37 -13 48 29 2 16 64 84 35 35 -8 44 42 33 24 1 21 33 13 82 132 166 232 267 282 238 144 157 196 137 113
55 59 59 56 37 40 39 29 1 -53 -8 4 28 11 59 48 12 36 40 11 8 12 34 29 41 30 -12 43 37 18 6 4 2 22 51 20 78 126 200 182 119 279 188 208 187 159 155
55 57 63 63 50 42 33 29 10 -39 -9 4 12 13 40 32 7 1 20 3 12 45 13 10 51 33 35 32 45 40 18 18 47 20 41 73 51 96 89 70 40 233 101 132 108 118 150
65 64 68 65 54 42 40 34 16 -18 -2 32 32 10 24 14 22 9 11 -3 20 27 36 51 34 32 35 44 28 32 28 -9 47 47 44 13 39 61 71 41 27 70 99 123 102 85 91
71 76 71 67 62 55 42 36 22 8 -2 20 44 34 37 16 25 26 6 -13 -26 -5 5 20 31 27 23 30 57 27 18 30 45 45 67 58 54 69 75 65 51 50 52 80 114 92 70
68 78 74 66 69 61 47 35 36 28 -6 26 56 61 45 57 67 56 -8 33 46 20 2 -2 1 15 22 17 16 14 46 31 37 39 63 65 78 74 79 48 50 52 46 72 99 65 116
57 57 49 55 50 49 52 38 43 29 77 50 49 67 49 50 74 57 25 -18 51 35 43 26 34 32 34 63 81 33 14 9 26 38 43 60 61 59 53 35 30 46 36 32 28 12 11
30 22 19 31 33 42 51 56 44 39 30 54 42 32 23 66 102 86 74 80 105 58 52 55 71 43 32 64 52 55 54 65 76 33 35 39 55 65 62 48 46 56 38 57 78 57 53
15 5 10 10 33 46 55 53 40 37 32 32 41 24 26 30 92 115 97 81 53 86 42 63 94 98 62 33 21 46 66 64 59 69 69 38 45 70 48 43 65 25 52 47 65 45 44
18 15 22 29 41 44 48 47 50 41 30 19 29 23 28 29 77 111 104 73 78 55 33 53 88 86 79 72 68 49 40 41 52 52 52 54 41 55 54 37 43 45 28 39 61 40 50
8 17 20 28 38 44 41 34 43 32 29 19 31 28 25 34 56 91 80 95 113 117 61 55 35 65 87 95 86 64 58 51 51 58 67 73 96 72 58 70 53 40 26 28 41 53 75
3 24 22 36 55 48 37 48 32 44 35 34 21 37 24 35 44 84 93 114 145 133 109 73 44 40 41 65 62 73 71 77 54 44 41 70 68 45 43 58 65 13 35 39 67 63 136
33 29 39 61 66 45 34 43 32 27 57 84 56 63 61 37 33 29 82 83 87 131 178 127 103 61 53 54 57 54 60 46 49 51 44 41 50 54 53 45 40 51 48 64 56 78 91
55 73 88 74 63 35 36 39 37 34 65 90 80 75 66 75 122 101 95 69 13 10 147 162 115 77 40 47 61 62 45 49 43 54 69 46 48 43 30 33 36 35 65 82 71 73 84

GFSGBSN_con_3kmhel_063.txt.gz
Helicity
48 52 56 47 44 53 46 31 16 20 18 20 30 36 59 10 18 16 26 41 27 14 13 18 9 22 52 68 31 70 312 114 31 61 50 76 107 160 182 163 154 125 113 66 49 115 96
51 54 65 52 50 60 47 24 20 22 22 22 30 45 53 8 7 13 7 37 20 7 -6 -3 6 20 31 31 32 84 196 195 59 53 61 84 95 131 146 152 174 140 137 223 91 120 203
51 65 68 57 59 54 46 23 24 29 32 36 40 49 30 10 9 26 27 38 13 -3 -7 4 3 -1 3 20 31 110 86 116 59 69 71 84 109 116 164 172 116 181 183 217 261 151 178
46 68 73 67 50 51 47 23 23 22 34 39 42 34 24 14 24 31 42 26 -15 -11 17 4 -4 1 39 53 54 33 57 98 56 68 82 58 63 96 175 174 191 183 205 236 195 177 158
54 68 71 59 53 43 39 21 13 23 25 33 39 34 25 30 23 18 8 -6 -13 -4 0 4 -8 3 36 107 61 54 49 54 87 101 111 64 87 155 137 166 212 224 203 253 206 170 133
57 63 69 64 48 40 32 18 4 10 22 23 30 28 34 36 24 10 4 18 3 -15 -8 27 -27 -6 11 34 47 99 46 -13 133 140 131 103 142 149 147 186 128 155 182 173 209 209 158
51 58 68 54 49 42 38 3 0 -1 7 17 18 17 22 14 33 20 48 20 17 17 3 14 9 -4 -2 -3 10 61 48 -13 24 181 150 148 220 91 -28 111 170 147 199 149 113 146 143
58 54 59 45 49 38 15 3 1 -2 2 6 11 9 8 3 -3 18 34 62 49 34 18 20 17 -5 5 9 53 62 61 -15 9 131 140 265 58 68 111 127 152 114 115 102 110 64 104
57 56 48 37 36 30 15 -1 2 3 -1 7 12 9 5 18 -2 45 108 85 38 31 75 30 31 12 40 31 46 40 53 -28 1 86 220 180 60 70 92 122 82 95 142 151 130 212 234
50 50 38 32 29 31 25 7 1 -5 2 6 11 20 10 13 66 55 129 95 55 14 131 147 86 51 44 17 -45 -25 21 65 23 78 286 289 101 117 86 70 100 106 116 144 206 241 179
45 45 28 35 39 38 25 18 6 -10 -8 1 6 13 32 29 67 102 92 63 58 47 233 79 69 48 60 29 -58 76 46 41 57 123 173 119 121 134 107 125 165 110 115 141 210 192 179
46 41 23 41 35 30 29 19 -1 -5 -17 -2 16 17 46 62 108 119 82 31 50 101 169 85 115 178 71 51 75 92 11 113 333 328 315 239 225 197 134 96 178 230 266 292 234 218 151
50 39 31 34 39 35 33 20 6 -13 -18 -13 49 15 60 42 117 110 39 58 59 75 142 204 121 126 71 54 43 57 58 134 178 288 282 242 252 179 109 151 253 285 261 288 212 200 113
44 40 38 34 40 41 34 17 6 1 -11 -7 22 -7 47 40 67 62 44 45 7 116 146 108 120 15 85 77 74 40 11 101 141 94 133 85 110 122 163 127 209 158 171 168 162 187 162
49 36 37 43 45 50 34 24 8 10 3 1 -14 20 48 34 57 42 41 29 16 63 87 66 143 26 8 -10 173 67 60 68 79 73 51 66 52 106 85 137 259 133 143 157 149 149 170
55 43 43 47 48 47 31 24 7 -1 10 -4 25 10 18 90 51 19 27 21 35 32 58 77 70 25 30 33 103 34 51 44 57 46 23 74 39 72 91 87 210 218 196 171 189 141 145
55 48 54 52 46 43 37 31 14 -8 1 -7 27 26 18 67 42 5 18 1 6 7 5 25 78 36 67 49 44 47 53 57 44 32 44 54 68 114 104 114 205 214 188 127 125 130 115
61 58 59 56 47 41 34 36 29 1 -12 50 35 67 15 51 18 21 21 9 6 -40 -18 -2 11 35 31 59 45 9 8 38 50 31 24 33 46 124 163 96 101 212 151 145 128 108 111
68 62 61 60 51 44 32 30 39 25 14 70 60 48 7 42 41 41 13 15 0 -18 -32 -15 -13 7 64 28 17 17 10 47 58 36 19 21 57 86 131 172 137 116 179 154 162 109 70
69 64 50 56 54 51 39 41 42 45 6 77 74 92 34 29 72 58 57 12 16 0 -18 -7 -7 7 13 25 23 24 24 8 33 42 57 31 37 52 46 48 87 69 94 167 89 113 94
65 50 49 67 65 59 42 40 45 54 31 76 85 85 38 52 44 94 73 24 71 38 29 13 9 -4 8 11 6 29 31 27 34 32 52 47 62 51 67 67 80 69 69 95 82 89 80
48 43 35 58 55 52 45 43 42 52 38 76 91 99 28 20 36 122 76 87 80 65 65 74 63 55 51 48 36 31 30 18 30 42 49 63 74 73 96 43 42 49 41 54 73 74 101
52 39 32 46 60 53 45 48 45 55 52 75 61 42 40 35 73 112 128 114 99 89 63 57 60 63 45 36 41 37 33 40 24 40 45 51 64 82 85 61 61 65 43 63 73 87 87
40 22 35 61 48 45 41 49 46 61 58 30 47 36 71 54 69 111 107 107 87 109 53 63 92 76 51 50 72 86 73 74 72 60 39 49 54 70 67 86 83 42 51 43 120 81 66
18 19 29 50 55 39 52 47 46 45 43 50 36 58 47 65 45 95 113 70 64 79 57 40 69 79 91 81 87 70 49 53 50 69 79 65 63 58 57 60 45 41 38 53 65 42 41
0 21 37 51 47 42 46 49 37 52 37 59 43 42 63 58 62 83 100 80 83 99 80 55 48 73 102 104 94 69 42 44 49 63 75 83 68 70 62 61 52 49 54 38 67 42 39
1 21 36 51 46 39 43 31 35 28 54 83 55 62 72 51 62 52 79 112 118 116 102 66 63 55 73 92 85 64 57 65 62 57 67 81 77 59 44 47 44 29 19 50 54 39 57
2 26 36 43 40 30 39 23 27 35 58 101 65 84 113 93 110 44 25 73 102 81 108 95 136 75 80 89 83 69 68 44 53 49 57 68 53 58 53 44 39 29 48 46 24 57 67
1 35 48 43 26 18 32 11 3 17 18 86 115 63 120 117 111 52 41 49 50 63 13 23 151 116 78 105 80 69 55 58 53 56 61 63 49 35 40 25 16 15 30 43 40 51 68

GFSGBSN_con_3kmhel_066.txt.gz
Helicity
49 62 80 66 53 38 28 14 12 15 15 32 38 26 35 16 10 9 28 12 54 14 12 24 13 29 49 66 50 20 225 302 207 78 49 73 167 149 190 205 143 174 57 118 30 22 2
57 67 73 72 59 30 35 17 1 11 10 22 22 9 19 17 6 6 10 23 39 26 4 3 4 21 22 63 41 76 110 228 97 80 78 75 108 138 156 153 168 125 180 69 171 79 9
64 69 69 71 62 36 36 22 -4 2 8 14 17 11 6 19 24 25 29 28 18 12 0 1 0 -7 12 16 27 98 16 223 158 80 87 79 114 117 151 149 152 124 115 179 75 28 81
67 67 70 65 53 43 41 10 -6 -5 10 15 17 -5 2 11 16 18 4 -5 -16 -13 -4 5 -12 5 12 42 50 29 50 205 220 118 85 40 84 75 193 175 201 145 161 128 65 88 99
71 77 80 59 47 36 42 -5 -5 1 1 13 18 6 -9 -1 1 -4 -3 -6 -10 -6 2 12 7 2 15 59 24 36 18 141 114 44 95 93 108 123 150 208 222 225 179 162 119 92 117
71 78 78 53 39 36 34 19 6 11 8 7 20 16 11 6 -4 0 -19 -8 15 -12 5 35 -1 6 21 28 38 56 44 45 16 192 127 110 198 181 153 179 156 109 167 246 164 153 174
72 75 70 53 43 34 36 26 20 5 10 15 13 23 28 15 2 -13 19 54 53 22 3 3 3 3 12 11 21 51 38 25 -15 169 157 116 262 72 48 127 156 186 204 178 220 202 194
72 71 65 51 41 37 40 32 27 7 1 7 12 20 18 29 28 10 46 49 82 36 37 14 14 16 20 20 61 63 70 -22 24 244 234 194 70 121 167 136 157 104 136 119 142 135 116
73 65 63 55 42 29 40 39 24 10 -5 -4 15 16 2 35 38 107 107 56 19 33 90 23 17 -3 23 33 49 57 59 -24 78 219 209 76 73 108 126 142 136 122 66 128 131 153 139
67 61 62 57 41 36 42 33 34 13 -6 -7 0 17 10 43 118 142 133 48 24 12 109 106 66 25 19 32 68 42 61 57 78 101 145 157 91 106 98 99 123 146 89 92 91 142 126
64 55 57 57 48 44 44 30 32 28 2 -10 -13 6 30 84 95 127 117 72 36 39 140 62 56 27 40 6 57 47 39 58 114 106 128 187 96 114 82 78 102 134 99 113 132 163 139
65 46 51 54 57 55 49 37 29 28 0 -9 -25 -8 33 87 107 73 104 50 50 58 77 65 62 58 -14 -19 49 95 47 68 14 84 167 312 229 192 127 141 120 124 168 212 190 197 142
66 48 48 50 57 59 51 35 31 23 2 -12 -12 -20 44 63 66 67 55 52 55 31 72 37 56 97 113 117 104 52 48 99 54 163 236 246 228 202 177 163 138 123 230 221 160 148 126
67 50 51 45 51 48 59 44 32 16 -6 1 -1 -12 44 52 46 49 36 46 6 43 33 26 48 40 40 52 82 108 86 201 199 100 171 149 131 159 154 128 159 172 194 161 101 167 142
77 53 50 42 44 42 53 40 20 6 13 -11 -7 15 16 35 58 33 34 8 24 29 15 19 59 94 65 58 52 35 47 105 190 135 121 157 145 167 151 138 170 184 147 169 128 138 109
79 63 51 48 41 36 36 32 15 -2 9 -14 51 38 11 40 48 31 19 8 5 7 10 20 0 19 9 92 58 70 77 60 78 71 92 72 151 138 96 149 137 170 196 177 197 115 99
82 69 59 56 37 39 32 29 25 -2 -1 -3 78 81 15 28 24 30 26 8 -5 33 28 29 59 31 20 28 52 44 66 98 60 87 88 53 89 114 109 89 110 258 217 182 177 161 109
93 84 64 54 43 41 40 35 29 4 -1 63 79 101 27 31 29 70 40 17 10 28 -3 6 28 46 15 4 -24 10 32 55 95 74 84 54 73 125 110 75 71 176 175 200 158 171 126
95 85 63 65 50 49 38 43 36 16 3 77 82 89 30 34 51 38 53 25 23 20 12 6 2 10 44 21 6 -6 -1 34 46 36 29 26 49 141 122 128 166 122 177 210 200 179 93
90 76 57 67 44 42 42 32 40 14 -9 79 75 125 81 51 35 38 63 58 53 42 31 14 6 11 23 39 49 22 6 29 42 32 37 38 54 32 42 63 147 140 111 151 223 71 123
82 57 53 62 39 45 37 24 36 21 0 63 61 97 84 104 76 61 72 73 64 72 49 46 41 33 23 21 41 44 34 30 37 46 51 45 46 59 73 58 80 81 97 171 159 55 -11
62 53 60 51 35 31 23 26 27 41 17 56 78 75 64 103 103 113 94 130 95 122 92 64 50 66 24 32 19 13 31 28 29 50 50 65 56 67 70 58 62 65 68 59 71 121 102
60 60 44 35 25 18 24 26 23 26 30 42 36 34 63 88 131 143 105 128 118 122 90 75 66 57 45 32 36 37 16 23 28 40 60 61 68 95 72 78 69 45 2 64 81 110 97
62 44 28 23 6 7 8 10 15 31 51 38 49 67 85 90 105 120 82 123 108 96 88 120 84 62 56 57 46 54 66 60 63 62 58 60 73 85 84 113 83 55 62 69 99 81 130
40 23 14 11 3 6 12 0 3 29 45 65 50 86 100 111 79 73 51 92 80 72 44 52 60 74 96 102 82 69 61 54 56 63 66 66 86 70 68 74 58 50 65 66 67 56 106
19 9 6 11 14 6 9 -7 3 14 30 58 43 32 72 106 108 80 77 118 105 90 77 52 57 69 103 105 89 53 43 37 41 46 88 98 95 90 69 67 59 59 69 57 53 53 48
7 6 6 15 16 7 11 0 0 3 20 71 44 50 64 65 38 65 51 49 104 121 110 116 104 81 81 98 87 59 48 55 51 47 61 87 89 69 71 41 39 42 43 42 79 49 50
-4 4 4 9 15 5 -3 -8 -15 -13 3 69 50 64 94 46 -18 22 30 35 31 83 111 119 112 85 103 92 83 71 67 57 57 49 57 75 75 72 65 56 44 42 73 53 28 47 35
-27 -11 13 18 20 14 -4 -19 -27 -28 -21 51 66 39 89 83 12 17 61 58 17 -18 44 71 124 206 143 109 96 97 84 82 75 71 62 54 53 53 53 33 23 12 41 36 37 47 42

GFSGBSN_con_3kmhel_069.txt.gz
Helicity
48 76 76 68 48 49 48 40 21 7 13 8 4 -2 8 17 18 14 26 22 25 16 26 21 6 27 54 50 69 34 235 233 158 136 90 113 171 186 158 186 205 220 74 86 182 126 118
56 74 75 67 53 50 50 40 13 1 16 15 18 8 13 24 36 25 40 57 24 9 2 -5 -7 10 45 70 40 50 32 138 235 191 54 89 123 188 160 157 179 114 223 181 133 44 119
61 70 77 74 52 46 48 29 19 15 18 23 23 15 13 30 37 33 18 27 10 -17 -13 -15 -12 2 19 27 33 86 34 85 209 234 67 60 99 155 182 170 175 152 249 169 95 70 27
69 74 82 66 50 43 45 38 35 25 19 24 34 23 24 21 27 37 17 6 -11 -21 -27 -17 4 3 -6 6 19 43 0 169 299 83 48 52 86 130 197 177 233 235 196 136 61 78 109
76 80 80 63 58 50 47 41 38 34 29 26 26 23 30 26 12 25 14 0 11 2 1 7 21 19 12 36 20 21 -39 114 333 141 126 91 96 129 181 186 251 230 136 102 107 35 83
75 82 84 63 50 56 51 51 48 36 32 25 27 31 31 35 23 4 -1 23 38 21 11 23 25 1 26 34 24 16 -36 9 227 179 121 113 100 160 183 224 173 130 139 109 109 61 35
80 83 79 68 57 50 62 60 53 65 43 24 25 29 29 43 34 11 26 42 89 52 41 26 -1 -15 -5 24 13 10 21 129 188 79 210 122 123 135 57 160 195 177 170 56 115 57 80
89 86 74 72 72 62 47 56 50 49 61 21 15 20 34 42 34 30 77 104 77 26 38 23 6 -17 22 -4 21 45 42 100 104 269 133 127 3 161 174 144 160 134 157 117 132 112 107
97 84 73 70 74 76 63 53 36 45 52 29 0 7 24 44 51 91 116 69 36 17 71 23 7 -11 4 24 21 55 66 17 -7 211 240 91 61 100 121 180 149 148 132 151 122 150 155
103 84 71 69 73 73 69 55 47 34 37 28 -6 -11 13 58 121 103 124 52 18 -2 69 61 34 19 11 9 28 42 55 -38 -115 192 80 92 76 169 152 177 141 147 74 112 118 141 73
102 85 65 66 70 66 73 60 50 32 22 9 -25 -21 11 71 94 99 84 53 12 6 112 100 71 30 6 26 26 41 23 6 -12 120 231 197 193 172 153 163 119 118 93 67 88 113 76
100 80 58 57 64 63 59 60 47 33 9 -4 -41 -21 26 55 46 84 62 46 39 51 37 135 28 35 29 1 21 20 30 98 30 98 151 342 273 200 147 166 112 119 143 177 146 114 41
97 74 56 54 53 62 50 51 38 26 7 -18 -45 -22 42 56 24 72 61 56 58 32 58 60 83 74 72 50 95 95 68 28 89 206 249 183 220 171 158 173 146 152 170 202 148 118 44
88 74 56 49 49 57 49 37 32 22 2 1 -21 24 52 29 18 41 39 35 26 40 -26 51 43 8 35 84 56 35 60 90 35 149 339 252 177 185 213 141 116 139 150 141 85 71 53
92 74 60 50 43 40 43 37 19 18 5 -12 26 47 39 14 35 23 36 23 41 45 38 36 61 11 5 21 70 103 101 -3 75 102 151 235 265 180 205 181 164 125 114 107 102 120 86
94 75 65 53 41 37 36 32 14 7 10 -6 81 67 34 23 30 31 30 11 30 32 14 18 11 19 -4 21 42 79 86 76 38 40 68 92 109 145 140 149 136 160 186 142 160 71 62
84 79 68 56 40 38 32 27 9 -11 -9 29 75 87 34 28 15 38 43 23 15 7 20 -27 2 -48 17 32 22 34 37 53 90 87 92 75 85 128 101 95 121 179 184 165 130 112 67
82 86 68 56 45 40 38 24 2 -13 -20 60 71 103 44 26 57 60 63 31 20 3 9 -8 21 46 20 -2 -6 21 43 39 55 41 40 50 81 142 156 144 121 142 124 160 185 148 134
86 80 69 55 52 47 36 31 8 -18 -10 57 102 81 40 34 115 105 61 40 36 15 8 6 14 53 26 21 -3 -9 -9 65 51 50 35 35 54 116 83 91 123 114 109 157 174 118 116
84 79 68 54 53 49 28 31 16 -21 -5 58 110 147 52 64 64 72 92 74 61 36 16 15 18 33 34 24 21 -7 -8 61 65 71 88 80 41 52 67 74 147 144 104 157 177 160 151
88 77 58 58 55 40 16 26 8 -22 1 48 78 122 103 118 86 64 60 66 48 93 48 41 44 45 33 35 37 36 40 38 66 70 72 57 41 52 49 59 83 85 104 123 182 144 156
85 68 61 68 47 33 11 16 8 3 20 42 92 109 77 88 88 69 58 60 54 117 91 62 62 73 43 45 42 25 37 32 38 56 57 62 38 60 56 43 33 44 54 89 85 121 43
79 69 70 61 40 30 17 25 17 18 28 37 22 42 78 87 119 126 81 76 35 112 89 66 79 77 65 57 49 36 25 33 37 46 72 67 58 73 40 69 47 24 16 90 104 148 135
73 68 63 51 36 27 15 28 30 4 12 18 22 55 98 161 146 153 89 47 33 128 88 110 84 74 69 61 35 46 69 61 51 56 62 72 88 86 52 91 53 34 50 43 79 87 108
58 58 48 40 35 26 23 41 31 -1 9 10 11 24 41 126 118 92 55 43 10 95 77 66 83 67 67 77 68 60 60 51 45 63 43 57 83 79 75 63 25 28 53 62 55 29 88
45 40 41 25 26 22 29 45 40 11 13 23 13 32 43 45 41 104 85 30 27 28 82 67 74 78 104 107 78 48 48 41 43 43 86 104 104 100 85 61 40 35 75 70 54 46 54
36 27 14 11 18 16 29 41 32 26 17 29 30 54 60 40 21 62 85 65 12 41 65 96 103 104 99 111 103 63 47 50 38 27 30 69 102 81 82 63 43 36 43 48 85 52 68
15 3 -4 2 19 23 27 32 25 27 16 39 39 56 64 48 16 38 45 73 32 28 51 97 106 90 105 89 85 63 46 57 68 53 30 49 62 67 87 71 18 43 79 58 46 42 28
-11 -9 -11 0 16 23 22 31 45 34 24 52 44 40 71 54 26 33 55 61 35 19 26 -2 95 164 151 108 96 83 74 68 71 54 84 62 57 40 54 48 39 18 28 34 30 40 46

GFSGBSN_con_3kmhel_072.txt.gz
Helicity
51 55 62 74 69 60 47 50 43 26 25 40 26 34 41 48 32 50 48 60 63 47 26 17 25 26 40 44 33 19 135 123 143 101 109 135 153 215 196 177 198 148 123 129 202 122 0
63 63 73 69 63 69 60 58 56 39 34 32 42 34 44 39 32 45 33 35 29 21 0 -7 8 23 33 28 33 56 72 103 162 145 94 99 141 169 169 162 162 125 109 105 165 89 108
68 71 75 70 76 74 70 56 46 40 44 45 28 41 41 41 33 36 32 15 2 -10 -16 -6 7 6 12 1 22 77 53 63 80 148 105 72 100 158 192 164 152 138 201 175 152 112 112
85 76 81 70 73 82 68 63 54 48 38 47 33 34 45 45 27 24 25 14 0 -12 -23 -15 5 25 -1 -4 -3 43 101 36 101 146 20 58 51 145 186 183 196 149 185 144 106 44 107
91 81 81 71 72 71 71 74 60 43 43 39 28 18 43 38 30 15 11 13 29 9 -1 -5 6 26 9 28 15 10 52 70 113 148 77 41 30 161 204 188 229 177 185 165 115 121 91
99 86 79 75 73 67 67 72 69 52 52 50 28 12 27 37 34 23 1 35 73 38 15 4 11 3 29 16 14 -2 15 66 166 246 103 104 27 168 205 197 158 196 258 216 191 168 152
103 92 79 77 75 70 70 70 70 57 51 49 25 4 13 35 37 36 40 58 69 70 57 54 9 10 -21 17 -10 -7 3 -24 208 171 164 71 95 122 119 194 212 204 201 147 165 66 43
107 92 78 71 77 70 66 69 67 65 57 48 25 -8 4 22 48 40 83 101 66 61 71 43 22 -3 -19 3 1 2 -18 33 252 210 257 65 -34 78 126 186 138 130 133 128 126 61 78
112 98 76 64 70 70 66 63 68 75 63 40 19 -21 -9 24 55 91 116 95 39 21 77 47 25 17 17 -8 15 17 0 51 226 262 190 89 28 83 109 144 150 159 121 129 92 121 145
113 99 82 62 59 62 63 57 59 60 60 39 8 -24 -4 43 79 104 104 69 26 1 80 58 36 21 13 8 13 11 22 73 205 246 197 153 92 78 89 140 141 151 107 105 96 138 77
115 104 87 69 57 51 57 54 48 45 43 33 -2 -27 8 64 73 83 67 54 13 10 88 103 60 -8 -22 24 12 39 44 117 121 130 170 114 -33 148 148 161 139 133 95 123 124 136 83
108 99 91 69 61 48 49 48 40 33 30 25 -6 -15 40 55 51 57 65 42 42 64 51 87 32 31 5 18 26 1 88 115 120 125 137 138 69 135 118 189 148 92 159 175 131 105 23
106 101 87 69 64 51 38 38 29 29 19 19 1 8 55 58 52 49 57 55 54 72 35 54 60 52 27 17 -32 1 65 79 93 104 111 85 168 209 201 182 175 143 187 212 159 95 6
95 100 89 74 65 53 35 31 23 26 11 13 20 71 48 36 27 52 38 30 54 25 0 24 16 81 50 127 45 21 42 20 12 20 315 240 257 253 211 131 122 166 165 135 106 76 31
86 95 91 79 71 60 44 30 18 17 13 18 90 66 40 14 43 33 40 29 58 40 29 9 -16 6 0 39 39 41 6 33 16 243 177 400 320 201 198 181 161 160 137 128 117 113 65
91 89 89 78 75 66 51 32 17 10 12 31 104 83 36 17 38 31 41 25 31 16 16 11 11 8 -4 7 32 60 82 26 18 67 106 124 166 188 148 134 154 129 140 135 144 51 35
100 88 83 72 82 60 52 36 23 3 2 63 94 128 40 27 28 39 57 27 37 17 16 0 -11 -8 9 -1 -11 15 17 35 35 51 83 95 94 140 146 114 127 175 144 135 90 67 36
111 93 79 69 77 64 59 42 19 -6 -2 61 92 134 42 13 72 55 46 41 27 14 11 -3 -4 6 1 12 10 30 18 49 80 52 89 88 70 127 113 119 120 119 106 167 129 107 112
122 105 78 69 75 70 54 36 7 -14 17 55 121 126 32 30 146 90 44 35 23 13 14 11 2 12 33 8 -6 -6 25 39 47 40 19 35 53 89 104 65 129 124 125 146 149 130 76
127 102 79 67 73 63 48 22 -9 -13 37 66 118 118 84 57 59 95 91 63 41 22 23 18 32 44 29 28 17 -4 -9 49 49 50 62 59 30 20 48 23 91 158 133 128 155 137 162
131 98 73 69 73 66 44 10 -13 3 52 78 104 111 115 122 85 89 91 64 58 28 51 64 41 63 48 38 31 23 11 46 53 66 95 65 45 67 54 63 90 100 135 148 124 139 166
124 100 80 82 82 64 53 24 13 22 55 85 112 111 78 88 68 78 75 96 62 28 28 78 65 78 70 59 51 35 35 26 29 62 62 77 60 58 80 49 29 58 64 61 -4 88 -21
123 94 83 85 85 61 50 35 35 33 47 84 65 63 99 94 99 131 93 61 54 1 27 91 74 69 79 74 70 56 42 38 34 36 65 70 55 61 23 59 43 25 19 117 96 112 138
119 84 94 90 79 63 34 37 38 45 42 27 29 51 69 108 115 130 76 38 18 -7 -9 86 92 88 74 71 46 53 77 64 63 68 57 54 75 67 18 49 34 26 31 25 70 84 124
110 85 98 88 55 38 29 54 48 42 42 31 32 42 42 79 62 74 53 19 9 -13 -58 12 95 98 106 91 92 89 83 63 57 68 54 64 86 67 48 46 10 -2 34 44 39 26 10
98 85 88 64 32 24 27 36 48 43 36 31 31 30 44 75 47 42 52 40 15 -14 -53 -31 71 105 96 101 94 61 72 54 49 58 90 112 100 96 78 58 37 13 32 27 33 45 36
90 91 66 32 15 17 22 22 33 48 34 26 32 38 47 57 12 35 42 76 46 17 1 -23 60 79 87 84 96 56 48 55 39 37 41 70 77 94 90 71 42 28 31 44 56 37 77
99 70 37 13 12 16 13 17 29 37 47 33 10 11 44 40 8 31 37 56 78 50 35 15 47 55 91 91 97 69 53 58 70 62 39 35 48 45 87 76 22 62 72 51 40 42 28
78 45 13 0 0 11 18 27 26 38 41 38 22 4 24 20 20 39 52 78 105 86 51 35 81 101 128 109 98 83 72 56 55 52 84 49 63 47 59 46 31 31 32 28 36 39 39

GFSGBSN_con_3kmhel_075.txt.gz
Helicity
29 48 62 68 66 57 51 39 36 44 37 40 28 41 37 37 58 46 43 43 39 51 46 30 21 29 21 51 50 28 87 141 68 109 109 144 130 203 245 191 189 183 169 138 130 198 191
45 50 64 79 77 76 66 44 47 34 34 43 47 33 35 38 44 46 41 32 30 27 28 16 22 19 13 30 24 49 55 94 105 99 127 115 142 159 201 194 179 116 214 147 156 214 163
44 54 65 72 72 82 78 63 60 39 35 41 59 34 34 38 40 37 30 32 30 16 15 12 18 20 14 -13 10 46 64 9 156 66 133 107 114 139 208 171 184 107 168 169 132 144 205
53 55 75 75 71 72 71 84 79 58 41 48 48 37 16 30 33 33 24 14 39 24 17 11 18 34 20 -10 7 42 58 -4 65 116 58 75 112 133 158 182 201 177 156 168 142 97 101
77 61 78 77 76 72 72 74 76 61 51 48 50 35 20 22 35 42 14 6 37 52 23 15 19 29 24 4 13 24 54 25 33 142 25 23 83 120 130 193 240 218 156 211 157 94 119
88 72 75 79 76 73 70 71 76 60 57 54 50 32 18 19 34 42 28 39 55 61 42 30 15 29 10 10 3 23 48 35 72 164 75 123 57 175 150 180 179 226 159 210 146 123 96
117 82 74 83 78 74 74 68 60 63 54 54 55 41 12 15 39 51 75 68 67 54 77 79 44 19 4 15 -13 3 29 49 76 125 75 112 70 104 162 183 141 230 188 122 143 74 81
120 88 72 81 73 69 73 64 63 58 53 56 51 35 11 12 49 68 97 109 83 40 59 53 43 4 -9 9 13 26 29 73 89 100 50 94 87 60 110 163 137 164 174 162 137 84 54
106 90 80 86 77 69 69 62 58 58 55 51 48 31 5 13 68 87 101 75 34 10 72 78 44 24 3 -0 15 -0 -18 88 147 122 43 81 -3 28 114 180 161 171 142 150 112 94 74
91 98 87 82 79 70 69 65 54 55 48 47 34 26 11 44 78 80 92 62 29 3 87 82 74 22 12 1 22 10 18 151 134 224 161 105 16 36 97 148 126 125 100 124 110 137 100
115 99 92 80 73 69 67 66 50 46 48 43 28 23 22 48 85 78 70 57 28 18 110 79 64 9 8 48 27 9 26 198 156 210 176 90 111 10 157 125 116 114 92 115 129 135 80
117 100 100 86 73 69 64 64 47 48 45 34 17 23 74 52 52 53 72 45 35 100 75 76 28 30 12 17 16 3 53 115 201 152 126 107 105 78 122 131 115 86 201 215 180 129 32
127 105 107 96 81 56 60 63 49 45 43 26 6 36 67 49 60 64 55 44 79 87 35 60 71 -11 -0 -21 7 38 70 137 168 71 134 72 114 66 186 165 140 138 187 186 118 74 18
141 115 108 100 90 61 54 67 46 38 35 25 46 101 63 43 32 55 34 34 65 27 37 17 50 93 64 65 60 97 82 36 54 103 111 119 74 43 106 228 159 171 150 140 89 62 13
160 130 116 108 86 73 57 67 51 33 29 32 86 72 56 24 44 37 46 46 47 55 28 37 24 49 -2 13 32 91 32 19 67 55 90 90 83 182 125 108 148 157 169 150 122 97 35
164 136 124 107 88 71 65 61 49 27 22 55 73 85 49 29 44 43 46 33 22 35 24 21 20 27 -1 1 37 29 1 12 47 132 244 183 202 214 200 167 172 128 109 143 158 44 23
164 137 127 113 94 76 74 55 34 18 11 85 66 168 61 42 33 49 94 36 20 30 24 22 12 -0 7 10 11 -1 5 -1 30 -25 98 228 177 169 125 122 121 154 151 150 107 84 7
165 133 125 121 102 80 69 48 21 7 17 74 101 186 63 41 104 63 68 42 31 23 24 11 15 16 5 -6 -34 -13 9 -0 -8 20 25 76 162 161 122 113 92 102 85 142 110 72 77
170 135 122 118 107 85 76 41 11 1 24 77 150 177 56 38 193 128 40 22 23 21 19 21 7 24 11 -10 -39 -54 7 29 46 53 39 32 77 114 107 67 87 82 112 137 166 115 68
167 136 118 109 99 87 71 43 7 -2 52 77 140 143 126 96 72 95 87 42 31 21 9 9 30 33 21 33 35 -19 2 36 35 67 40 60 60 80 64 55 78 113 142 185 169 146 116
180 143 112 94 89 81 82 50 6 4 63 81 106 116 125 158 131 90 78 56 32 13 -0 3 25 53 39 24 24 17 -12 37 48 62 69 67 56 62 51 48 64 64 93 137 162 171 164
166 143 112 96 83 79 85 58 6 14 74 90 119 127 102 133 111 99 72 72 46 18 -9 -12 -9 81 53 57 40 17 25 20 28 40 40 53 39 42 47 41 48 53 44 63 70 72 66
157 141 124 99 80 84 74 58 20 20 45 73 58 62 81 91 97 114 87 70 53 -2 8 10 25 71 88 73 61 41 39 45 34 43 53 55 48 49 55 69 60 23 31 102 136 135 112
150 142 128 95 92 86 66 40 30 50 45 31 23 51 58 75 87 81 54 48 42 5 9 -2 15 85 81 88 50 53 66 57 68 80 61 53 65 62 27 54 40 24 38 23 36 44 91
154 139 116 81 93 79 54 24 27 41 38 18 9 35 50 67 43 51 37 42 8 -9 -4 -3 -5 85 100 87 91 86 82 65 68 75 70 67 69 60 44 47 26 3 36 36 47 36 30
160 134 95 89 87 63 32 16 31 42 45 26 16 13 33 76 37 38 38 43 57 31 27 6 -5 44 97 104 100 63 74 72 69 64 84 100 94 89 70 48 29 20 24 17 29 47 48
164 135 99 86 75 40 23 14 28 30 36 30 13 7 25 49 1 19 26 37 51 63 83 14 16 3 67 60 97 98 70 81 69 51 47 73 73 78 70 64 39 35 37 59 65 40 60
155 97 93 86 55 27 8 14 21 23 31 16 8 -10 20 26 -5 15 30 49 55 65 93 43 60 29 25 13 94 84 72 49 75 72 57 60 58 52 79 58 13 46 76 49 35 40 23
138 114 98 71 34 6 7 19 10 8 22 12 13 -17 -0 11 -0 4 15 44 82 84 101 101 91 40 43 29 106 85 76 64 58 67 78 67 75 61 68 45 20 25 17 29 44 24 26

GFSGBSN_con_3kmhel_078.txt.gz
Helicity
11 15 37 43 48 63 56 59 57 54 46 24 51 45 22 16 31 48 54 49 61 65 45 25 28 40 25 24 25 36 68 71 30 72 139 149 147 126 161 181 147 178 107 181 186 188 210
29 20 42 54 63 64 66 61 61 56 56 43 42 56 22 10 26 37 48 57 54 59 34 21 20 10 21 9 22 44 61 47 138 74 112 87 122 136 173 210 154 119 202 94 150 213 216
52 46 48 70 66 67 72 62 69 63 62 52 47 49 34 12 15 31 41 33 53 57 30 21 11 15 19 21 11 43 48 28 55 76 152 99 140 167 153 175 203 108 206 136 105 126 161
72 56 55 72 80 68 77 75 73 69 72 70 55 53 33 20 10 29 33 21 42 56 37 28 18 16 13 17 20 26 26 20 36 108 157 142 140 227 199 186 151 141 101 115 81 101 128
70 57 74 81 82 72 72 73 62 76 61 74 66 53 28 20 11 20 24 16 36 61 52 36 31 18 31 4 10 16 25 -14 6 93 71 95 80 218 184 153 177 150 113 81 78 87 96
72 64 85 86 88 75 68 77 77 69 68 64 73 41 26 19 16 22 25 47 61 51 52 49 41 30 21 -9 20 12 -6 2 40 170 126 64 110 163 150 178 175 145 134 108 74 122 105
105 106 110 89 89 82 72 73 68 68 68 60 71 47 21 12 16 34 52 64 90 60 57 61 72 28 17 -7 -7 6 -1 15 39 212 158 113 176 147 114 130 192 82 130 93 87 107 80
132 101 90 91 93 91 77 72 68 68 57 67 65 37 14 8 15 74 65 104 82 36 68 55 34 32 5 -4 -14 16 23 44 98 160 106 140 166 147 93 129 135 123 90 52 62 60 69
148 101 91 87 104 96 80 71 69 61 64 68 65 39 16 1 76 70 77 84 44 7 49 72 57 33 16 -1 -2 38 61 47 102 43 145 104 20 100 105 112 97 96 65 71 42 47 31
152 119 98 94 114 97 80 72 75 65 58 63 58 35 17 38 66 76 83 67 29 -7 93 72 61 35 26 28 66 31 47 122 90 45 121 105 68 50 146 127 82 95 99 53 69 39 62
161 130 107 106 114 95 83 79 78 70 57 56 50 27 26 33 74 74 69 44 9 -0 97 74 47 15 6 21 39 89 129 118 80 95 115 91 34 7 49 111 122 147 60 58 55 56 79
164 160 136 111 109 98 83 83 80 72 49 44 34 26 75 51 45 46 63 30 17 43 82 83 32 26 18 33 26 104 151 112 178 116 100 86 30 61 83 108 115 64 93 129 114 102 35
158 150 147 111 105 97 82 81 84 71 38 28 24 64 62 29 64 60 41 35 62 31 48 84 64 37 22 15 31 105 101 146 152 89 91 66 12 104 144 116 77 104 90 164 86 44 -3
143 153 145 112 100 93 86 85 83 62 35 27 81 112 58 10 24 39 25 34 63 28 33 40 45 47 8 21 40 67 84 128 147 90 93 58 39 44 98 69 95 71 105 150 78 14 -3
155 148 136 99 95 90 89 85 74 56 51 54 97 92 61 22 29 22 24 71 50 32 30 29 52 36 27 27 52 77 104 86 115 86 80 103 57 44 110 132 132 122 131 155 104 84 56
159 150 135 95 90 88 90 78 63 51 50 75 84 95 59 15 17 21 37 57 26 14 15 19 16 7 4 -3 -4 64 89 54 34 66 72 92 43 47 72 164 135 129 89 113 129 35 49
174 153 142 92 85 79 63 76 66 41 48 88 81 127 66 19 11 40 94 44 15 24 12 18 11 26 14 27 42 48 53 53 7 76 94 113 102 102 78 84 58 102 96 117 110 131 110
176 157 149 96 79 59 40 76 52 38 75 86 76 142 67 22 94 56 83 15 11 19 16 -0 8 10 19 21 10 10 -14 9 -5 -10 74 114 102 131 106 111 98 80 93 65 65 38 91
165 170 159 108 77 43 32 72 39 26 69 89 114 137 61 32 121 135 54 15 4 9 7 7 4 6 -5 3 -6 7 7 12 -4 9 27 68 111 159 102 41 57 63 39 87 99 106 57
181 183 160 115 75 30 33 72 40 28 77 74 95 119 109 80 40 65 111 65 33 4 3 -2 -7 -1 7 1 -10 -23 -3 18 22 49 39 34 57 71 39 59 89 83 54 61 100 99 64
188 152 155 124 69 39 53 72 60 53 81 54 72 98 96 129 102 71 63 60 59 25 -11 -1 -8 3 4 21 17 8 15 26 44 45 43 61 55 70 83 69 64 55 37 47 124 64 70
205 128 146 124 73 63 59 76 60 60 83 54 78 101 104 111 105 102 65 87 77 31 6 -1 -5 -4 24 27 47 21 8 10 25 49 48 55 61 64 69 62 58 60 49 48 26 24 37
218 151 137 121 78 62 76 91 69 52 32 59 43 48 71 78 101 103 103 108 93 33 12 -11 -8 -3 -2 70 75 58 48 43 33 28 43 45 50 54 63 64 56 40 6 50 85 63 56
177 145 113 108 77 70 86 101 79 54 15 36 26 44 53 65 65 67 63 76 87 58 35 -13 -17 -5 17 78 57 74 72 68 67 75 61 49 54 55 56 39 38 70 70 69 16 27 28
244 117 99 91 94 91 104 104 80 57 37 33 16 31 39 55 55 52 42 50 64 53 43 7 -6 -0 -13 61 80 58 63 45 65 82 64 60 62 57 47 45 44 30 46 40 26 43 44
223 145 93 87 98 119 113 94 65 57 61 48 14 10 21 57 44 25 17 12 59 76 60 29 -18 -14 13 19 5 -9 7 88 59 50 83 82 73 61 65 44 39 52 43 29 20 41 48
200 132 119 69 98 104 93 74 57 48 44 24 13 -0 8 48 2 -2 2 11 37 73 76 59 36 6 20 22 9 -3 50 110 97 79 68 64 65 44 45 47 36 49 65 51 37 77 49
205 184 139 81 100 91 72 55 51 60 43 16 17 -20 -15 23 -2 -11 -6 16 41 71 118 88 122 52 34 40 26 20 5 64 79 83 69 65 68 66 69 72 25 58 82 49 72 49 29
235 149 99 88 90 84 61 41 39 46 25 3 23 -19 -0 6 -19 -28 -7 16 25 70 125 152 148 65 26 23 11 9 28 52 64 79 70 68 88 82 60 52 60 26 13 26 38 28 29

GFSGBSN_con_3kmhel_081.txt.gz
Helicity
30 21 36 17 26 36 48 47 52 58 52 61 56 74 48 45 8 20 35 59 47 44 41 21 15 23 19 31 16 24 28 40 24 26 89 145 165 106 122 170 85 109 115 104 52 174 12
67 47 58 36 37 54 49 61 65 62 57 55 52 75 52 40 4 12 29 47 48 40 35 22 11 -8 -0 11 34 26 31 13 68 -4 50 191 180 124 133 91 163 140 230 100 157 105 146
93 82 62 74 41 69 58 60 68 66 64 51 68 72 55 44 6 10 25 25 54 40 28 21 12 5 14 44 18 17 7 20 10 92 60 76 171 145 199 183 196 145 174 147 99 104 168
132 89 89 90 53 89 71 64 70 66 68 71 62 72 52 35 15 3 18 15 34 39 35 28 12 12 13 54 25 14 12 -8 1 30 132 179 79 254 284 177 133 144 125 121 89 90 131
211 139 92 81 80 105 78 64 76 77 72 82 62 64 46 28 12 10 19 13 26 38 41 33 27 21 27 33 20 15 19 19 -55 -77 39 150 116 218 244 181 177 162 136 95 68 73 158
208 184 108 87 105 108 77 66 80 78 78 85 72 61 41 16 5 13 29 33 57 33 39 35 24 31 27 17 19 -3 -3 -0 -24 1 41 108 107 264 159 182 191 135 162 60 58 88 88
175 183 131 95 107 105 73 68 84 83 89 83 77 53 36 11 5 10 51 67 103 76 40 30 63 40 3 -20 3 -27 1 7 1 57 110 144 163 207 68 124 110 108 145 37 52 80 53
174 190 164 109 109 108 68 77 86 90 88 93 74 53 30 6 -6 49 42 84 58 20 78 62 40 37 18 -8 -23 -48 11 32 115 125 96 85 143 192 138 75 138 107 141 191 158 70 59
182 197 164 115 100 96 66 83 89 90 95 91 71 50 24 6 41 52 57 65 13 -8 35 86 43 40 22 8 -17 4 32 10 108 101 132 134 98 115 177 197 136 119 83 77 53 51 45
167 183 154 131 94 88 65 86 91 90 102 88 64 50 22 35 46 68 68 52 8 -18 71 87 54 55 31 18 38 38 40 53 54 118 135 89 145 89 106 148 153 132 63 47 72 55 96
188 172 149 124 108 87 69 91 85 92 93 76 59 42 28 59 49 55 66 26 -6 8 96 91 50 22 21 20 46 34 74 101 38 76 143 29 108 139 94 85 138 83 149 99 69 49 107
204 178 158 125 108 85 66 83 79 87 81 59 42 42 76 67 35 43 35 11 10 43 97 78 29 15 34 11 53 90 90 94 41 147 86 21 83 124 169 113 127 75 115 124 91 92 54
167 189 177 127 111 81 66 76 73 89 76 53 44 87 57 43 49 37 18 39 54 38 39 55 35 12 19 -10 39 184 165 53 90 148 127 75 73 57 144 118 118 66 72 153 113 102 85
184 190 150 129 102 77 66 72 66 87 77 66 116 107 46 17 9 14 21 30 119 50 16 11 19 7 -11 -2 28 195 122 23 30 89 126 117 124 88 86 88 129 141 74 141 115 62 37
194 175 156 125 94 73 65 66 60 78 82 90 104 81 56 27 6 3 22 93 93 37 34 40 22 15 41 13 64 85 83 60 50 65 108 7 43 101 114 106 139 126 106 107 206 176 125
209 179 163 113 92 62 62 54 50 77 77 87 112 75 50 16 -2 6 43 93 29 15 27 20 21 9 34 8 73 108 92 46 62 29 71 63 54 43 40 102 106 142 78 101 153 30 44
223 186 139 111 89 55 51 41 58 69 64 74 103 84 40 12 3 31 111 83 34 11 7 -3 -11 15 7 25 37 48 51 24 -3 7 54 82 24 45 41 62 42 84 90 136 172 159 153
259 165 122 116 88 53 30 43 69 72 85 91 105 94 33 6 70 51 97 19 6 25 2 -13 -16 -11 20 36 56 47 44 30 15 63 50 48 46 36 23 64 94 108 53 36 88 53 96
292 189 125 119 82 52 -1 37 65 79 76 98 98 101 27 2 129 126 56 32 9 22 17 2 -1 -20 -10 11 10 -5 -1 17 -1 18 77 82 55 68 38 18 14 35 25 68 62 105 74
289 172 123 113 79 48 -6 26 43 58 56 69 83 91 87 51 29 62 114 74 62 -1 7 -2 -11 -5 -6 -2 5 -4 -6 18 13 29 52 82 54 85 72 82 54 48 30 26 80 117 65
253 192 140 107 63 57 -4 24 41 61 68 60 65 79 85 100 92 80 66 60 76 65 2 -0 1 -11 -1 9 8 10 16 20 9 24 32 45 73 76 102 73 63 49 35 18 67 41 52
314 224 131 107 45 65 14 26 45 79 78 47 59 74 85 87 94 107 89 88 76 45 36 25 8 -15 -3 -9 1 32 16 -3 9 16 13 24 42 44 56 43 36 42 37 23 10 -12 -2
345 220 160 85 63 48 36 50 30 99 77 43 44 46 47 72 78 90 110 94 72 42 30 14 7 6 -2 -13 25 57 55 40 45 28 27 48 47 52 62 62 51 19 16 -7 3 26 22
356 259 140 80 72 31 42 55 12 53 42 40 34 51 40 57 50 61 80 77 65 32 68 51 32 34 -18 -11 25 40 50 52 48 56 57 39 39 58 52 50 59 86 60 89 86 34 27
318 199 185 71 42 14 62 61 65 21 14 12 14 31 32 53 53 59 68 63 40 25 46 64 43 13 -5 5 -2 -12 -13 21 49 55 54 59 52 59 63 41 40 33 59 66 74 74 51
236 183 122 70 77 41 74 39 76 42 55 58 18 7 17 60 38 33 58 39 47 43 48 52 17 -1 14 32 27 9 -0 -22 -28 61 78 74 70 70 75 75 54 92 45 42 47 65 86
278 209 158 100 63 43 68 85 88 52 62 72 27 1 16 48 19 12 17 31 30 28 55 65 70 64 14 38 39 20 11 -14 -21 -39 3 63 58 52 49 72 56 72 90 68 52 116 76
307 228 143 161 127 64 68 87 92 60 81 70 49 4 5 36 23 -7 -5 8 23 43 91 67 131 83 73 83 65 37 6 -19 -7 49 75 79 84 70 68 105 59 98 97 62 112 71 59
330 210 195 116 131 50 79 85 76 71 69 57 70 19 74 25 18 -22 -16 -16 16 38 89 101 91 64 55 72 52 30 11 -0 -14 -0 67 69 83 133 111 108 104 40 17 24 46 47 40

GFSGBSN_con_3kmhel_084.txt.gz
Helicity
51 73 63 72 33 31 5 36 56 70 62 59 44 66 94 59 48 10 11 37 46 37 34 31 28 14 -1 22 27 100 -9 5 45 12 -19 48 151 195 187 140 193 32 58 34 71 68 125
90 87 119 72 71 44 24 39 60 68 70 71 56 78 91 61 50 18 15 37 30 31 25 32 28 6 25 4 29 38 -6 1 34 28 30 47 166 143 214 124 179 55 124 -7 69 -19 11
81 146 181 85 91 50 46 39 78 66 71 77 71 77 92 57 44 14 15 35 26 25 16 23 24 19 4 23 51 -5 -31 31 -1 13 94 78 41 191 319 196 183 172 32 105 24 95 62
48 126 180 125 129 86 54 60 71 69 76 82 79 79 84 56 38 17 20 23 15 11 12 19 15 10 35 70 24 8 18 -38 -22 -49 58 108 10 139 253 368 166 133 59 97 28 44 64
35 47 228 179 128 89 64 66 69 71 76 85 93 85 77 52 29 15 25 23 8 18 21 24 29 45 36 42 24 -4 -8 -10 -46 -42 8 224 22 115 209 342 197 227 136 142 98 77 93
24 25 157 201 152 119 75 73 64 68 77 92 85 98 75 50 23 22 25 33 28 18 38 34 16 38 2 37 14 -7 -35 -23 -34 -63 -0 145 68 91 207 300 176 204 164 162 163 124 149
34 31 80 200 156 134 84 72 68 68 81 86 94 83 67 39 13 21 46 65 87 59 33 33 59 29 20 -44 -1 -29 -8 -7 -56 -72 111 95 94 125 65 76 157 127 190 145 141 89 51
44 31 78 196 153 140 98 63 66 68 81 90 92 72 59 26 10 38 58 84 54 5 54 73 39 45 34 11 13 -17 32 2 -4 70 83 95 109 222 183 143 92 115 67 98 223 130 52
52 20 63 206 153 137 105 60 61 64 72 90 88 67 48 21 35 40 48 53 -17 -16 51 106 47 25 35 39 1 22 43 37 31 101 104 72 182 187 129 155 68 86 145 70 128 51 98
28 36 61 204 146 150 116 70 63 66 69 81 76 53 36 40 50 43 45 41 -5 -11 74 114 75 54 47 49 62 9 31 77 89 111 174 110 172 139 74 137 127 172 114 74 58 80 88
58 31 61 195 164 149 118 73 62 65 66 68 60 40 26 36 35 49 50 16 -11 12 118 112 55 32 45 49 48 55 59 117 95 110 104 137 151 262 118 105 118 295 187 174 83 50 114
57 37 48 207 184 163 123 70 57 62 64 50 41 29 56 44 33 37 27 6 23 66 83 64 30 29 60 59 71 118 138 79 69 163 25 62 92 171 315 204 133 60 128 241 194 140 149
48 28 64 242 183 157 121 73 58 64 58 36 30 47 53 39 57 21 32 35 77 67 32 53 14 -12 -11 25 128 137 48 119 145 120 135 112 141 159 163 228 242 171 133 224 213 194 165
41 18 70 205 189 137 107 74 53 70 51 36 77 72 39 15 11 7 43 52 145 53 16 21 11 -23 -61 -16 139 81 44 93 85 103 84 79 91 75 93 184 148 135 152 142 125 114 87
27 22 187 242 173 125 99 69 54 69 60 56 84 43 52 9 2 -0 52 130 106 32 35 44 31 -19 -7 4 37 71 58 30 54 83 72 44 47 97 100 176 183 94 106 136 176 151 107
69 55 183 237 141 119 95 65 59 61 60 60 66 50 57 -1 -6 13 76 102 31 19 17 35 -28 42 -8 -23 15 63 75 53 75 47 78 43 52 90 71 142 127 153 118 122 160 163 131
229 93 208 186 123 109 93 56 55 55 50 47 45 61 28 -5 -1 50 126 84 29 13 -22 -13 -38 -16 3 -12 38 56 35 7 4 4 32 72 30 53 29 49 83 80 120 163 151 165 140
93 130 221 160 128 104 87 50 45 52 71 72 49 47 15 -2 80 56 96 42 -13 4 -10 -14 -16 -36 -19 -7 9 46 33 30 -6 5 34 56 22 37 12 28 56 73 67 86 78 94 102
19 164 197 177 133 97 77 47 34 51 95 49 50 51 8 -3 121 118 73 52 11 -0 -3 -2 -1 -23 -33 -20 -26 -2 22 17 -11 48 90 120 51 41 38 15 29 17 19 54 71 90 83
316 95 212 187 144 82 72 39 21 30 32 26 28 34 45 18 4 59 107 103 72 -39 -40 -37 -33 -7 7 1 -5 -18 6 10 18 39 55 94 74 63 53 40 38 41 40 45 91 103 107
214 148 188 183 124 64 66 37 5 4 20 19 -12 31 48 60 54 67 37 92 119 54 -24 -24 -18 -9 1 6 7 4 -0 21 25 34 32 39 73 74 85 84 76 70 46 41 91 96 123
271 66 304 153 122 53 59 10 -1 7 68 3 10 20 31 55 52 82 66 67 121 54 23 13 -1 -25 -6 -11 -15 -6 4 16 16 9 17 29 57 72 70 38 57 53 49 45 41 27 80
371 53 299 164 108 59 48 14 12 60 100 7 4 20 18 48 59 65 79 81 99 65 11 -15 -12 9 11 -23 -23 -11 33 46 29 30 18 36 43 44 45 69 50 56 32 54 75 88 80
262 126 319 217 141 80 29 28 13 40 46 27 13 32 9 19 38 48 70 97 81 50 61 5 -5 10 -24 -9 10 11 -1 -12 18 34 59 35 49 67 50 47 59 28 51 78 96 72 63
336 125 169 210 154 57 23 27 4 13 32 45 29 30 17 28 63 56 63 76 57 31 30 34 -15 -36 -23 6 21 17 3 -12 -16 3 50 61 81 69 67 45 26 25 87 59 60 64 56
313 97 222 180 192 84 75 42 -0 -3 -5 22 33 34 49 42 32 25 66 36 46 53 36 5 -19 -26 -7 16 44 95 87 -1 7 -11 13 70 89 110 104 70 53 63 31 28 30 58 113
301 280 257 185 140 82 106 87 53 32 30 53 50 50 67 33 59 59 23 25 9 43 71 44 12 29 -0 45 83 81 121 64 75 22 -10 -2 29 35 84 80 67 74 73 41 72 66 78
221 278 197 151 85 73 103 105 17 33 32 80 70 83 82 48 88 47 23 12 19 62 88 52 86 52 48 97 82 65 82 76 26 13 41 15 22 41 64 85 52 95 96 59 54 49 46
99 207 223 138 81 85 106 53 32 46 48 83 95 120 148 76 60 38 33 25 26 70 118 90 69 48 24 57 59 42 59 49 39 44 34 35 56 69 122 141 128 79 55 51 47 38 51

GFSGBSN_con_3kmhel_087.txt.gz
Helicity
46 68 103 109 99 64 39 54 30 33 51 54 52 56 93 84 70 65 37 17 16 42 44 45 50 45 57 95 49 67 47 -26 10 22 31 34 7 175 166 118 162 138 36 62 55 101 202
36 64 91 110 155 91 71 70 40 30 64 49 61 62 77 83 75 57 31 16 18 17 37 30 42 43 85 86 43 41 -32 -29 -14 -14 62 31 46 237 222 137 146 91 132 68 91 71 210
50 46 52 78 162 148 118 82 46 38 66 62 68 65 72 80 63 46 24 15 6 5 22 22 34 46 76 32 33 50 -13 -28 -26 -18 35 44 44 216 159 166 153 123 120 134 85 49 93
45 45 42 57 154 195 157 105 62 56 66 68 66 78 66 84 54 38 6 9 -8 -6 5 17 27 44 44 25 27 26 -12 -48 -48 -47 -31 119 28 91 99 287 243 147 161 74 84 3 63
34 33 32 45 79 179 178 115 90 64 66 76 86 73 75 79 53 22 7 2 -7 -2 14 23 40 74 34 23 21 -6 -20 -31 -39 -81 -93 140 56 93 115 349 299 220 166 135 79 42 21
26 26 22 35 49 133 170 129 107 74 68 87 86 79 78 76 36 13 10 -3 2 1 9 20 42 32 42 63 16 -8 -33 -32 -28 -38 -34 100 56 95 141 386 238 278 187 148 61 54 60
87 -8 29 39 43 112 164 142 97 71 68 92 86 79 77 53 26 9 19 34 84 84 32 56 61 51 40 21 18 37 -9 -14 -34 -36 32 112 88 53 122 222 350 232 250 78 163 68 61
199 82 19 33 22 110 202 137 100 81 77 86 89 80 68 40 22 36 31 73 80 57 89 61 44 35 55 44 31 18 23 -8 10 36 123 134 66 29 101 260 313 86 155 143 107 54 77
26 138 50 71 54 118 221 143 105 89 87 87 94 80 63 24 39 36 41 37 19 1 93 78 56 37 63 30 40 40 36 48 5 78 113 183 102 71 143 173 203 167 106 213 94 138 205
45 116 51 79 56 135 209 128 116 88 89 91 90 74 44 31 52 47 46 30 -0 -3 116 76 75 53 72 128 40 56 80 73 60 174 171 166 188 137 84 93 115 89 73 127 130 157 75
99 135 106 79 58 113 205 158 125 84 83 79 82 66 34 21 34 46 34 5 -1 18 148 57 31 92 100 74 101 81 71 83 66 159 158 257 221 206 130 112 82 102 104 38 13 107 72
163 187 40 87 87 101 252 157 119 84 75 77 82 51 31 14 32 23 11 -8 15 70 26 6 -1 59 93 87 104 68 54 71 95 103 111 162 136 135 210 199 73 188 200 102 36 73 161
233 117 25 84 78 105 229 129 117 85 71 74 63 47 38 24 51 15 -5 11 73 116 23 -12 -30 -1 85 192 140 171 126 91 98 140 154 286 271 302 212 203 116 152 292 300 248 158 112
263 359 64 7 98 143 309 133 97 85 73 75 75 71 32 29 11 -16 -9 27 163 42 -12 -37 -30 -4 17 39 90 155 169 116 100 90 144 99 102 152 237 211 101 236 354 156 137 128 131
113 178 36 23 73 221 272 119 87 84 80 93 116 43 47 15 -8 -25 20 102 85 27 14 -21 -40 -3 32 62 71 57 125 83 72 102 92 66 37 102 137 227 192 96 118 88 162 187 142
115 22 141 27 84 207 199 109 99 84 87 102 100 66 50 11 -17 -16 37 77 17 10 -6 -17 -24 1 -32 19 43 56 94 68 68 50 47 35 33 37 99 147 138 171 174 173 202 156 147
117 58 154 87 144 232 151 96 99 74 81 74 82 63 26 -4 -21 12 82 67 4 -18 -37 -15 -29 -14 -22 13 52 42 42 56 20 34 57 37 4 5 55 45 93 131 131 151 144 126 133
92 33 377 119 218 241 154 94 79 76 104 77 60 36 37 4 38 21 57 26 -20 -16 -40 -47 -19 7 7 5 1 23 12 22 11 25 36 18 8 -2 45 64 57 70 109 114 94 104 107
184 11 222 152 236 219 135 56 67 84 113 120 76 49 43 10 44 48 40 22 -17 -14 -15 -30 -26 -24 -30 -21 -8 -30 15 31 12 75 51 60 15 48 68 51 27 -6 18 46 63 98 70
195 233 188 177 278 213 109 42 61 57 48 71 40 35 26 -24 -13 25 59 56 41 -37 -35 -47 -48 -49 -28 -26 -22 -23 -31 1 2 28 55 68 67 86 42 16 24 20 27 37 68 74 79
93 215 208 90 204 222 83 39 39 16 14 72 29 15 9 15 -46 5 12 47 69 30 -27 -27 -41 -27 -18 -9 -10 -23 -21 -11 -17 20 39 49 67 61 59 61 39 46 48 48 84 72 87
174 -36 286 57 206 206 74 31 22 29 58 50 38 21 18 17 23 43 26 33 58 25 15 19 -11 -35 -58 -20 -15 -0 -7 2 3 -8 20 28 58 49 59 32 31 45 52 47 42 33 72
141 -60 142 77 127 195 83 57 56 82 110 55 43 52 20 29 31 54 32 33 51 3 -21 -16 -3 3 -27 -23 -17 4 17 1 -0 19 8 25 26 39 34 56 59 46 30 64 92 81 80
138 65 215 -14 91 120 61 61 34 46 73 64 73 55 35 28 10 4 27 30 52 -1 19 -28 -37 -6 -27 -42 -14 -4 -1 -14 -6 -0 22 20 47 50 33 62 70 28 42 46 31 43 59
142 162 430 71 82 97 82 58 19 10 62 62 64 58 40 62 21 53 58 95 70 9 20 4 -21 -19 -33 -22 9 27 9 -5 -1 -20 18 38 36 3 -8 44 32 46 55 50 47 59 38
102 37 376 41 86 64 -18 23 -23 -5 24 63 73 53 55 86 26 33 52 55 42 35 25 5 -9 -14 -16 9 36 115 117 61 61 31 -14 12 61 48 62 20 -5 30 -8 -7 -1 32 51
134 -54 246 95 88 72 33 56 -35 32 45 58 63 53 61 51 97 84 40 36 3 10 18 29 31 34 -4 82 97 90 93 35 73 81 63 38 36 76 60 52 53 25 23 10 29 -7 18
66 92 12 150 75 90 109 145 80 49 67 60 71 60 50 46 145 75 65 36 14 16 43 29 52 28 60 85 71 50 54 52 58 60 58 68 87 70 65 82 33 49 60 46 25 44 39
70 -150 81 186 119 131 80 85 105 14 60 88 120 105 97 85 92 55 73 81 68 34 49 30 26 58 30 46 17 -7 12 6 42 59 25 60 84 81 125 119 62 71 96 107 88 96 88

GFSGBSN_con_3kmhel_090.txt.gz
Helicity
56 59 70 80 98 127 146 114 107 89 74 43 46 72 57 71 74 53 48 22 13 20 53 47 47 44 85 117 86 28 19 36 31 -11 -1 100 80 77 132 125 187 109 40 109 381 203 267
25 45 53 51 87 152 208 155 126 106 88 52 56 89 71 78 68 46 36 21 9 26 44 35 31 46 93 109 49 23 32 46 -20 -15 66 56 73 30 185 167 119 60 108 49 67 264 261
71 89 18 39 46 80 216 220 145 112 103 64 86 89 86 76 74 35 25 10 16 14 23 18 31 54 78 48 38 26 35 -24 -20 -26 17 115 90 -50 111 135 126 122 77 -3 123 145 253
78 95 108 33 14 38 72 251 204 119 112 82 92 97 85 90 73 41 4 6 23 10 -1 10 39 58 52 27 23 14 -5 -15 -15 -17 -22 -33 46 13 118 225 179 149 142 76 32 85 252
-8 87 71 88 66 0 41 176 240 129 114 103 88 112 91 105 75 22 11 19 20 17 1 21 41 65 30 15 31 20 -19 -11 -12 -32 -52 -18 18 60 163 265 196 144 159 85 97 95 118
-40 -62 32 55 51 41 31 118 258 148 126 116 119 109 106 111 66 19 6 17 22 -2 -1 19 21 46 40 54 34 12 -14 -3 -11 -33 -54 -13 63 110 183 237 176 173 144 70 -38 135 61
159 19 -77 -8 62 60 52 37 232 176 120 128 127 114 122 98 57 9 20 63 100 84 18 44 53 59 45 32 28 17 -13 -2 -8 -27 8 59 52 106 51 227 319 180 193 180 98 30 115
62 161 53 38 56 49 49 51 246 172 138 124 128 115 128 98 53 29 55 115 90 37 56 31 40 52 51 41 37 22 -9 20 19 74 73 77 102 -3 82 318 305 213 140 164 56 13 58
-19 68 135 75 79 80 50 74 215 192 110 121 145 119 124 83 72 28 45 54 8 2 34 38 66 65 66 25 55 46 12 47 83 118 77 81 78 2 125 351 229 251 161 227 183 95 160
29 52 116 159 135 102 -9 117 182 184 139 132 130 118 110 104 86 38 42 29 -19 -27 55 3 54 95 140 86 115 95 48 59 79 113 85 88 155 74 63 253 183 212 167 108 134 52 86
72 51 118 168 243 161 35 166 185 142 143 134 98 111 99 82 67 32 28 7 -32 -15 108 23 43 114 173 154 99 67 52 90 170 149 89 119 59 47 127 168 188 137 81 111 90 109 59
41 72 53 116 229 208 85 183 176 162 159 116 74 97 104 89 22 4 2 -15 -20 59 13 -36 17 49 81 64 75 62 54 104 234 251 163 216 166 114 124 142 142 72 128 148 123 172 86
30 43 60 51 187 324 183 242 219 198 142 110 62 88 80 50 29 3 -4 -7 62 110 -16 -54 -28 23 84 129 95 101 125 179 202 197 213 193 176 251 184 130 185 127 172 130 79 69 94
-24 17 47 89 486 197 167 262 219 166 135 91 53 126 54 43 32 -6 -11 -4 115 10 -74 -111 -47 15 46 87 159 123 110 129 211 183 101 114 172 191 185 105 136 226 76 104 115 160 105
-44 6 164 646 440 26 20 260 214 170 137 93 175 136 83 59 2 -38 -16 54 61 6 -51 -63 -44 -9 19 59 56 104 118 120 150 90 39 66 84 142 145 131 149 250 185 119 123 142 116
-54 85 526 572 230 117 88 226 228 217 117 128 212 120 67 65 -24 -37 -11 43 0 -10 -34 -61 -28 -11 -26 36 21 29 55 96 108 92 84 36 -5 87 136 127 91 105 119 154 187 135 122
-24 104 383 501 99 130 259 255 161 146 91 120 212 89 59 80 21 -29 50 39 -10 -20 -31 -30 -40 -52 -25 16 36 16 15 74 65 77 70 17 -1 38 104 118 112 123 111 108 83 106 121
-73 158 701 107 165 99 313 273 185 100 82 194 163 55 93 90 1 -31 31 29 -40 -35 -43 -51 -38 -25 -18 -14 -23 -12 -6 -2 5 28 18 26 -14 55 37 40 49 62 101 105 92 118 113
-80 75 567 203 241 149 325 187 166 74 101 246 196 102 106 77 -15 -7 39 11 -37 -37 -36 -29 -33 -27 -32 -24 -21 1 -15 36 44 62 -17 31 6 20 47 36 31 52 70 77 68 67 76
-58 154 313 212 105 279 297 211 112 48 83 219 105 70 70 -1 -1 1 32 31 26 -40 -49 -31 -34 -62 -55 -36 -37 -11 -16 -11 13 29 32 37 34 39 33 -2 23 30 24 42 67 51 38
-25 126 237 473 17 295 222 159 17 9 91 150 79 31 38 10 -63 -36 -4 7 50 37 -53 -49 -50 -36 -25 -31 -26 -31 -16 -16 -15 -7 26 54 56 55 44 14 27 17 29 13 25 44 34
-10 43 174 260 65 208 186 46 -7 40 114 109 50 32 57 25 10 -16 7 -7 33 19 -14 -8 -13 -27 -40 -28 -21 -10 -13 -4 6 0 -5 0 8 44 49 70 44 27 22 30 29 38 25
11 48 128 196 48 60 77 13 -6 63 62 78 66 70 61 84 56 -2 -16 15 3 -2 -18 -44 -4 -1 -10 -10 -22 -13 -12 -4 9 9 3 -1 6 -19 -11 54 56 51 60 55 50 52 51
55 67 198 187 82 81 46 72 46 86 83 51 62 66 61 74 52 5 -11 -39 33 -21 -8 -17 -35 -34 -17 -27 -24 -23 -23 -25 -22 -17 -12 -2 -7 -7 -16 -24 -55 18 14 22 25 52 51
77 84 66 119 35 58 34 38 41 40 69 52 77 60 46 81 50 34 -1 29 66 -3 -21 -29 -34 -33 -41 -16 3 7 1 -2 -9 -27 -30 -17 8 10 5 -4 -13 46 65 46 50 56 37
90 69 32 29 72 88 39 23 59 23 42 18 66 70 48 117 61 78 37 15 44 9 -3 -25 -31 -29 -34 0 16 55 92 60 54 8 -29 -2 6 31 43 40 31 19 35 27 47 64 22
92 68 16 16 -39 84 58 41 29 32 47 25 62 77 57 60 141 122 61 45 14 -10 -8 -3 4 -11 -31 30 46 41 51 38 79 86 70 54 42 99 104 86 29 33 23 45 43 56 55
76 83 -10 -47 21 125 41 53 35 30 40 38 59 75 49 59 184 129 91 83 54 27 29 21 17 7 6 22 25 27 12 15 18 29 44 65 93 75 81 97 46 46 52 77 79 62 79
89 129 0 -162 43 130 73 113 91 76 67 45 43 77 89 88 125 105 96 123 98 96 15 28 -3 52 18 18 4 -5 2 -18 -10 21 -22 38 31 47 76 78 104 98 89 112 120 84 76

GFSGBSN_con_3kmhel_093.txt.gz
Helicity
102 87 45 26 29 32 71 94 211 283 195 77 60 73 69 94 74 102 79 63 34 32 39 63 65 59 74 132 93 36 35 47 57 66 65 66 70 85 126 96 132 123 89 -2 176 306 164
114 127 70 42 37 47 32 30 96 276 293 124 77 81 83 105 86 106 78 66 40 33 47 71 51 48 117 142 63 46 26 49 53 60 40 45 42 54 76 107 114 91 81 116 38 215 200
93 87 134 81 38 61 52 48 -8 197 280 198 97 93 93 110 97 103 81 59 36 27 32 43 42 79 95 56 48 22 33 36 33 5 -13 61 57 68 48 107 123 137 83 98 -1 -27 181
99 104 100 66 43 21 56 68 34 175 244 237 98 94 97 107 119 113 70 40 51 21 7 13 60 78 70 40 17 19 41 43 5 11 -11 5 74 83 59 104 107 90 113 -46 -137 11 51
56 49 99 120 12 81 41 50 58 93 196 225 152 81 122 117 114 113 53 50 33 19 5 45 64 79 36 11 50 17 23 -14 -18 -12 -31 5 54 55 -79 122 124 178 42 -39 -60 -99 189
-4 42 71 99 113 69 79 63 62 75 227 225 176 125 94 111 117 108 43 56 20 -3 1 53 32 53 49 60 36 6 31 -1 11 -9 -4 -2 25 47 13 91 173 160 121 76 -33 -38 23
44 31 9 15 107 126 97 109 125 62 230 213 190 106 103 102 112 99 78 98 85 50 27 63 39 59 61 29 28 -24 -41 -31 -3 8 -3 30 60 18 57 172 181 121 122 78 135 3 -29
126 91 49 -42 17 105 94 93 146 144 267 195 231 103 100 99 115 124 111 89 41 13 36 16 40 79 56 47 45 2 -29 3 27 20 13 6 20 115 94 129 219 116 86 69 47 -43 34
80 86 87 57 47 33 87 104 202 197 259 252 229 102 111 101 138 104 83 44 -1 -31 7 48 89 96 88 57 61 48 1 10 77 45 26 10 -4 25 18 177 215 136 62 110 85 67 57
41 43 37 65 51 0 47 100 211 227 206 310 221 102 105 94 125 102 54 2 -13 -29 7 -10 57 89 88 68 88 98 80 139 85 73 48 25 25 -114 139 253 118 144 121 127 121 109 -6
41 37 44 24 46 58 74 78 164 296 209 352 150 92 91 80 127 83 34 16 -14 -26 74 -43 26 78 112 64 60 96 106 113 106 16 68 91 49 20 195 213 148 188 116 47 107 186 54
47 46 30 8 31 11 34 58 137 276 166 287 147 84 97 93 100 58 33 3 -9 27 -13 -65 -14 5 59 82 141 182 197 143 125 91 73 121 119 128 237 266 134 235 256 298 198 94 -44
64 31 3 -13 -4 13 15 79 130 342 232 277 188 68 129 88 23 59 21 -10 33 83 -99 -53 -27 -13 34 104 120 200 187 123 75 63 116 125 172 159 186 190 156 137 185 178 124 82 -22
-4 6 11 -14 -2 34 111 126 137 430 354 219 138 96 73 58 91 76 -2 -4 59 16 -65 -56 -44 -14 45 83 87 139 124 109 110 76 42 72 83 97 145 101 65 105 111 176 158 88 113
18 -1 -2 -35 -26 254 285 254 406 108 384 220 154 197 96 83 79 45 -13 4 28 -12 -83 -44 -42 -5 19 65 69 100 112 108 73 46 66 77 57 129 90 106 116 82 164 92 110 125 131
10 -26 -77 -40 -15 439 468 450 141 361 391 205 264 173 114 95 121 44 -35 -6 -54 -44 -47 -44 -25 -2 -12 21 23 38 55 72 55 48 46 47 49 94 103 53 160 146 66 96 95 103 122
-15 -21 -47 -44 133 732 96 197 202 385 338 181 299 102 103 112 143 31 -16 -18 -30 -50 -45 -65 -55 -21 11 34 27 19 21 44 40 40 10 17 7 39 52 71 60 173 104 96 72 64 49
-26 -9 -45 50 349 322 231 115 340 357 234 244 247 70 120 138 66 -7 -36 -45 -34 -40 -39 -47 -54 -45 -14 3 2 13 -2 11 36 29 16 15 25 71 26 56 46 53 57 57 75 85 97
-29 -2 13 270 432 478 309 415 395 230 199 312 262 166 143 131 36 8 28 -13 -56 -46 -43 -38 -30 -20 -12 -33 -25 1 5 33 45 -11 8 21 20 38 24 25 32 32 52 64 75 79 56
-9 -16 70 299 420 381 109 329 270 194 174 183 143 88 96 55 32 12 40 1 -32 -62 -51 -15 -35 -42 -52 -55 -38 -12 -6 -1 -2 14 13 8 -2 14 41 3 11 19 27 40 66 66 64
16 -6 191 232 610 -54 263 353 258 114 124 158 132 34 58 57 -12 44 53 -15 8 -14 -57 -35 -53 -68 -38 -27 -17 -8 -5 -8 -18 -21 -28 -20 5 10 43 39 25 19 19 24 37 37 14
38 47 152 325 482 129 289 308 177 53 68 153 49 15 96 47 30 26 64 -9 15 -10 -38 -19 -23 -24 -40 -27 -11 3 -5 -2 0 -8 -18 -10 -1 -10 -13 -32 -20 -17 28 28 38 48 14
53 75 168 209 57 167 261 150 100 45 93 123 77 47 71 70 92 78 47 29 -2 -41 -5 -51 -34 -23 -27 -23 -23 -22 -19 -10 -3 -3 -7 -14 -7 -9 -5 -12 -21 -26 8 47 44 49 52
70 82 124 181 112 58 26 65 -10 14 96 52 77 61 57 122 113 72 31 41 8 -15 -36 -7 -38 -44 -29 -23 -11 -22 -37 -43 -33 -29 -21 -9 -10 -6 -7 -22 20 19 -14 -2 30 62 50
89 112 76 131 1 59 37 -18 -40 41 45 64 97 82 63 106 107 88 82 69 110 116 -6 -17 46 -3 -29 -25 -23 -30 -26 -16 -26 -45 -37 -21 2 14 32 25 -3 10 25 17 -3 -4 -13
90 128 83 115 54 18 49 20 88 25 29 72 75 80 64 107 105 125 96 97 44 14 70 34 133 1 -33 -8 -8 -2 14 12 25 -6 -26 -13 -4 24 39 27 44 17 23 5 -15 -8 9
98 61 62 59 -48 18 73 53 70 -12 -3 9 71 71 62 64 178 134 93 68 88 58 51 23 15 -15 -34 6 17 4 1 0 26 37 24 10 0 53 62 23 6 23 13 6 55 68 6
75 70 17 -65 -126 -31 44 42 67 21 35 -11 58 64 50 52 177 142 130 99 98 75 18 14 26 59 -4 9 5 10 -6 6 1 6 19 31 54 50 69 74 46 29 32 66 47 21 -1
153 94 -27 -122 -168 -48 66 66 39 61 48 19 40 74 68 79 122 145 129 140 122 97 59 95 -16 52 19 12 0 -7 1 0 22 26 1 35 38 48 64 52 45 72 80 82 27 18 0

GFSGBSN_con_3kmhel_096.txt.gz
Helicity
132 138 118 117 108 97 83 64 74 50 45 243 293 222 107 73 48 48 83 87 93 80 96 81 63 59 95 121 99 62 54 75 75 80 92 92 80 98 131 81 105 134 123 101 64 55 131
124 123 131 158 121 92 107 96 66 56 49 252 210 170 189 103 54 60 91 80 74 72 97 76 60 61 105 147 69 66 54 47 61 75 78 94 76 71 73 87 111 116 62 119 123 56 86
65 61 62 109 134 126 88 70 82 68 64 3 284 186 182 140 49 57 76 65 62 61 68 51 49 81 141 85 70 54 33 37 56 64 73 82 14 35 80 99 71 136 79 88 94 54 114
32 29 39 57 78 102 115 69 80 88 82 74 240 174 209 145 51 76 74 40 51 64 45 27 65 111 77 61 36 41 46 40 34 48 28 -27 47 -37 59 92 101 125 126 69 31 -12 6
58 46 16 11 10 36 92 90 141 106 96 113 176 215 239 213 42 87 54 23 45 60 51 48 96 94 24 9 53 30 39 -7 -19 -2 -34 -20 34 49 70 81 131 125 120 34 -6 7 -8
97 88 90 64 29 -2 -29 53 90 133 101 137 16 300 296 159 48 68 27 34 52 64 33 70 49 53 53 64 54 37 16 -5 -29 -35 -8 26 -5 15 75 77 142 120 98 32 -15 -9 -184
89 105 106 105 90 56 -3 -26 67 114 177 176 60 274 290 170 40 54 63 72 104 65 40 41 54 49 57 43 50 34 3 -29 -32 -12 10 -3 11 -23 31 16 114 161 110 23 20 -29 -143
77 71 71 85 84 79 61 -2 -15 42 168 191 136 234 223 62 24 58 84 78 58 29 8 27 36 48 50 70 60 33 -6 24 20 38 7 15 38 16 15 96 79 91 62 5 -27 -31 59
37 40 37 33 22 21 53 48 -26 14 72 125 113 247 226 126 64 89 53 49 31 7 11 24 69 66 69 84 134 101 37 55 61 41 37 -2 -9 -7 15 65 88 98 45 55 24 112 31
32 40 42 29 20 5 7 42 34 18 46 70 108 260 187 158 123 52 47 46 20 14 7 2 41 58 59 64 77 124 98 81 33 6 24 71 12 33 3 95 47 54 68 61 23 105 79
34 42 46 36 28 25 25 56 54 53 39 39 117 219 150 134 62 56 62 60 20 -14 57 0 35 42 83 77 56 92 65 65 65 75 80 9 -98 -48 45 64 20 67 60 106 89 23 -22
34 33 28 51 23 8 9 24 36 51 44 48 65 187 111 127 93 41 93 44 11 11 11 -23 20 19 50 120 119 75 97 77 72 61 47 67 21 63 144 95 41 119 183 212 165 108 -5
29 3 -6 -6 2 -12 -1 17 38 44 84 65 87 164 145 116 47 61 95 18 32 61 -35 -2 16 3 41 106 82 84 71 69 74 35 75 139 247 226 207 175 166 176 150 108 85 68 -76
-25 -7 3 9 24 14 -34 31 30 66 128 128 168 215 154 121 92 83 88 24 23 1 -25 -16 -13 -2 52 41 92 63 56 50 78 58 42 51 108 145 221 98 75 180 104 61 40 65 36
-32 -16 8 -12 17 12 8 -10 77 147 57 30 248 272 166 44 64 89 32 -11 19 -36 -36 -11 -19 19 26 42 43 42 59 53 73 63 31 41 40 97 89 92 63 146 160 86 89 104 105
-34 -6 -11 -21 -19 -8 65 362 394 262 8 272 362 262 132 93 46 102 -9 -14 -26 -65 -34 -22 -31 5 0 6 3 16 23 45 48 32 40 49 31 79 71 80 51 69 87 97 134 112 115
-27 -31 -28 4 -14 135 332 494 561 50 353 376 440 220 122 104 78 71 -13 -24 -28 -48 -12 -34 -14 -6 16 17 20 23 29 32 33 50 21 30 30 44 52 49 92 86 72 72 67 99 106
-23 -29 -15 -8 101 343 374 461 69 237 380 448 345 102 122 145 71 27 -15 -34 -50 -52 1 -28 -33 -9 14 24 4 27 18 18 23 43 37 36 40 37 45 56 65 56 43 59 53 70 42
-21 -8 5 25 161 388 286 132 184 273 338 386 287 222 151 126 50 22 18 -15 -35 -15 -33 -41 -46 -14 7 -10 0 10 15 9 21 8 42 40 25 36 30 36 34 19 40 31 42 57 51
-7 19 10 214 293 293 212 248 257 241 268 368 189 83 94 44 35 14 14 -15 -14 -34 -60 -26 -12 -16 -25 -25 -18 -1 5 3 6 3 -1 17 19 37 55 44 -7 -11 1 15 30 32 26
33 13 108 377 367 178 84 277 227 245 389 252 145 22 40 87 9 32 35 -16 8 -2 -39 -40 -32 -27 -28 -29 -24 -13 -5 -1 -8 -3 -14 -9 27 26 22 13 7 2 9 9 11 6 2
68 17 163 418 141 7 13 176 253 386 356 261 74 28 61 13 44 38 64 7 17 13 -16 -10 -22 -28 -39 -25 -11 1 0 4 7 -3 -13 -9 14 -5 -3 -8 -21 -7 -1 16 21 25 13
69 49 216 380 42 73 104 205 227 275 277 192 98 39 34 18 83 63 52 41 6 -48 -5 -27 -36 -35 -36 -26 -24 -18 -9 -13 2 11 10 4 11 -1 0 -13 -18 -15 -15 -27 -38 -14 38
73 78 157 260 19 39 133 235 257 270 247 169 89 31 21 47 83 61 38 67 -5 -2 -50 -13 -30 -38 -25 -26 -9 -14 -15 -18 -17 -4 -3 11 3 3 20 -8 13 14 -4 1 19 9 -26
99 79 58 96 -15 -18 41 10 150 179 177 122 126 52 19 103 72 86 56 69 127 110 38 -10 33 -2 -27 -26 -12 -12 -8 -16 -23 -27 -20 -8 6 11 18 22 18 45 28 25 17 40 19
53 36 67 -4 78 -37 9 -18 77 61 123 138 101 75 51 129 104 143 102 83 48 51 73 46 116 44 -30 -26 -29 -13 3 6 -1 -17 -20 -12 -16 -14 -8 -9 27 26 31 26 8 10 101
27 19 24 7 -78 16 17 -27 72 65 55 130 98 98 61 49 178 147 107 98 99 96 35 41 24 3 -2 -14 -25 -24 -11 -15 -4 -1 -9 -15 -24 24 15 -2 -20 -2 15 28 33 -3 39
60 -18 -87 -86 -84 0 20 16 57 19 32 17 52 72 43 67 187 145 154 128 125 95 15 4 22 32 -4 -1 -6 0 -10 -6 -12 -1 1 18 43 35 42 48 36 2 25 32 38 55 36
102 35 -26 -76 -96 -50 3 11 30 -19 5 -37 38 60 69 61 113 161 156 152 138 118 71 98 -26 14 21 22 16 4 9 -5 18 30 10 24 37 42 61 42 20 35 76 98 78 44 26

GFSGBSN_con_3kmhel_099.txt.gz
Helicity
94 118 122 127 124 121 135 123 66 117 106 121 118 39 145 156 168 139 83 43 75 41 46 54 83 88 92 122 95 73 83 102 102 85 77 92 104 104 98 113 80 116 97 121 64 120 154
69 72 50 41 63 113 122 121 110 54 114 127 175 101 226 208 173 149 17 43 64 33 32 67 89 84 89 113 75 85 77 84 64 64 68 93 75 66 87 97 106 77 41 71 102 125 83
70 59 85 72 54 35 63 79 93 99 72 105 151 146 190 228 173 120 85 52 55 1 23 55 86 67 100 43 91 64 58 59 68 76 72 67 83 85 74 65 51 53 94 64 81 110 103
71 77 83 91 85 71 53 36 30 82 91 80 166 146 67 243 265 174 104 -3 26 -8 33 45 84 88 33 51 47 50 80 51 33 9 13 -24 14 33 16 45 61 50 92 105 62 91 92
74 77 72 82 78 84 57 35 22 17 85 90 130 178 71 224 307 144 59 27 9 -12 32 84 84 64 6 9 55 55 83 27 -34 -31 0 14 30 53 22 36 45 68 96 112 31 65 93
54 67 53 59 58 55 62 56 28 -8 33 82 156 210 54 274 214 125 -41 36 22 7 39 69 39 24 13 54 47 40 33 5 -4 -40 -25 -16 -24 59 23 80 34 48 79 86 91 92 76
55 50 48 44 39 36 40 52 62 23 -3 74 110 130 182 171 155 94 -48 80 65 14 18 1 19 8 15 60 49 27 6 -1 16 38 50 45 73 60 70 7 45 69 83 61 112 50 30
38 31 27 21 20 25 26 20 15 43 -2 59 91 121 150 170 132 33 11 53 2 10 4 -13 32 10 49 62 38 26 15 52 70 77 48 24 64 21 27 8 16 55 71 76 61 11 5
33 33 32 28 31 37 59 34 17 30 19 62 82 152 169 179 134 86 33 32 -16 -9 16 12 64 62 26 31 73 85 62 62 75 54 61 84 4 41 10 52 -1 134 76 59 6 28 -1
26 35 41 26 26 27 48 40 34 16 28 78 48 161 148 188 92 132 32 -24 -13 -3 17 9 39 26 17 2 53 60 53 37 53 54 108 103 36 15 28 25 92 30 65 33 -33 30 40
13 21 41 24 26 19 19 6 2 -20 16 83 80 133 126 156 86 50 3 23 -10 -13 18 13 12 9 34 47 41 58 47 109 111 150 48 -20 20 47 51 46 41 43 14 27 59 63 30
24 21 32 34 2 5 -11 23 21 9 9 35 91 157 119 195 114 21 35 6 -20 -14 -2 10 -15 24 57 86 98 70 83 117 114 120 0 -28 -31 78 57 39 40 35 61 92 52 114 46
22 27 13 -24 5 6 -3 -1 18 -19 10 43 128 62 176 149 58 36 36 -18 -13 1 2 24 49 34 39 59 55 57 72 86 77 121 118 79 128 137 78 34 50 57 37 93 102 41 -31
26 25 7 -10 -7 26 64 34 -6 37 55 80 62 37 175 139 84 61 40 -24 -15 -19 8 0 28 32 36 41 72 59 64 82 79 73 60 89 95 97 138 78 50 29 44 66 68 34 -32
25 14 -23 -4 -9 -1 38 10 -9 37 63 131 118 219 153 112 96 85 12 -19 2 -22 -24 14 19 19 31 48 45 15 59 70 98 78 43 72 77 71 91 117 94 92 49 51 49 76 69
7 -13 -3 1 -30 -31 22 30 205 273 215 158 131 194 106 96 60 84 -15 7 -26 -31 -17 3 -1 10 7 29 22 35 46 70 64 53 66 49 35 93 109 78 159 83 55 73 95 103 91
5 15 21 1 -24 50 130 194 313 294 266 71 275 133 98 106 95 16 1 3 -5 -17 7 -14 -9 11 31 42 33 38 42 62 56 62 31 53 39 69 29 80 110 69 115 101 93 104 64
34 25 3 2 26 166 233 290 328 141 42 289 241 95 69 95 24 14 3 -2 -10 -24 8 -7 -10 2 21 34 32 37 42 66 57 82 49 62 42 56 59 82 70 45 83 89 72 149 128
46 -3 -30 86 248 360 368 255 79 196 184 285 241 201 114 96 14 -2 35 11 -6 -17 -8 -22 -25 -2 20 18 30 38 38 39 49 42 48 41 34 47 72 49 13 8 32 31 27 32 77
12 32 214 459 403 217 129 181 90 98 117 258 249 91 72 33 -9 4 30 -4 -10 -5 -24 -26 -23 -14 -7 -1 7 20 19 25 32 23 17 24 29 52 58 61 47 10 10 10 18 43 26
16 225 548 470 150 9 175 153 188 182 142 109 105 46 32 29 -32 7 23 -12 0 20 -12 -5 -21 -21 -11 6 9 17 23 18 15 10 5 10 37 34 31 36 40 34 23 11 0 -16 -1
108 314 302 222 -12 224 133 189 228 200 184 91 13 -32 43 4 -17 9 28 -4 17 30 6 20 -11 -18 -16 -2 15 38 28 23 25 10 6 14 32 27 25 26 14 20 14 8 6 9 9
87 226 150 37 69 103 141 232 244 245 124 72 50 52 31 1 4 38 14 25 3 -17 2 -16 -24 -17 -11 3 8 4 1 -3 12 18 19 12 22 15 19 16 7 -20 -13 -15 -22 -17 -21
82 60 22 -36 80 180 153 256 260 249 111 26 15 11 -4 24 45 27 13 33 1 11 -31 -10 -28 -16 -3 -14 5 1 -2 -13 -10 8 7 22 21 15 37 11 16 31 3 -4 -2 -13 -16
57 -7 -13 13 -23 46 170 233 221 162 119 33 47 0 -10 17 27 46 30 21 47 47 32 3 -11 -9 -8 -15 -8 -5 8 11 10 -2 -1 -10 3 -5 3 4 3 -5 5 10 17 6 17
58 27 -12 -27 -127 56 87 124 110 117 84 59 63 0 -30 76 39 81 54 56 52 35 46 21 35 15 -26 -21 -17 -7 15 10 -3 -9 -10 -13 -22 -23 -23 -5 28 -6 14 5 9 6 53
46 28 -12 2 0 1 45 67 24 51 62 58 99 66 18 26 93 96 58 44 54 47 19 17 11 -5 -17 -10 -14 -5 6 0 15 13 -2 -14 -18 7 12 3 -22 -6 13 37 0 -13 43
51 77 63 -51 7 5 24 60 19 26 14 10 59 94 18 32 119 95 104 91 82 40 15 9 0 2 -16 -10 -8 2 -4 5 -1 9 13 30 42 33 20 34 27 16 25 4 29 56 53
106 94 76 -5 37 10 -2 22 30 38 -4 11 48 47 54 32 76 103 124 117 110 97 70 15 -22 -14 -6 -17 -8 -7 2 -3 19 30 4 32 38 44 43 39 13 27 44 97 81 60 50

GFSGBSN_con_3kmhel_102.txt.gz
Helicity
42 53 43 50 63 59 73 96 108 120 113 108 116 138 180 40 107 173 158 113 115 65 49 78 84 65 51 61 44 102 99 119 103 79 63 69 68 89 111 114 103 79 70 99 100 112 146
80 93 70 71 72 77 71 69 81 91 99 111 110 136 171 92 145 249 164 96 93 54 44 64 42 61 49 1 85 85 84 84 71 50 48 43 63 79 95 76 103 97 65 87 74 97 105
-20 42 32 17 20 52 65 53 52 53 63 115 124 128 218 134 225 191 108 147 83 55 20 18 26 47 32 -2 63 55 57 69 80 55 31 40 53 54 68 19 23 30 87 85 52 68 57
46 69 63 34 34 29 24 26 30 32 39 86 125 143 135 210 172 163 166 158 32 16 12 -4 46 51 -1 48 42 27 44 37 37 25 24 -21 12 1 64 43 50 37 44 136 103 54 55
61 51 33 31 23 17 18 26 29 19 22 49 91 125 90 88 236 215 167 78 -1 35 1 37 46 25 -21 35 26 21 23 18 20 14 18 46 79 49 34 92 45 43 35 46 119 27 48
48 49 52 43 40 30 19 23 20 28 17 23 71 83 138 171 217 184 101 -50 42 68 42 24 16 4 34 53 37 22 42 26 19 22 17 37 25 40 51 68 36 62 -21 24 112 18 38
37 19 34 42 23 29 30 19 35 29 20 14 48 65 107 190 183 113 20 -40 106 47 4 -12 18 3 39 17 15 36 40 37 26 10 47 8 61 91 51 31 13 53 27 48 75 15 33
25 28 28 23 26 32 35 22 47 39 23 8 29 76 123 96 115 78 19 -61 66 40 11 2 12 18 32 13 45 73 55 47 37 68 71 86 46 45 18 28 1 4 65 105 49 1 57
12 18 18 10 25 35 11 21 37 32 28 14 27 86 128 124 118 54 -20 1 63 28 -13 13 52 56 13 45 44 60 64 41 59 87 132 202 64 4 27 -14 -3 56 86 69 57 51 82
14 20 18 25 31 26 -14 7 28 14 4 7 43 129 81 160 77 48 -0 -45 79 -0 -39 -9 26 12 22 31 48 50 64 58 106 120 89 92 74 25 12 13 51 11 42 75 -3 -6 32
11 7 15 20 -2 7 2 -2 9 5 -4 10 21 89 40 99 30 45 -1 28 28 -20 -36 -2 28 8 12 37 40 81 94 155 178 129 51 50 40 63 79 99 96 51 62 64 -6 13 49
-22 -34 -19 3 16 19 16 -7 -28 16 -4 10 29 90 60 119 80 26 22 78 6 -39 -39 -3 18 24 37 44 63 86 132 246 211 6 42 39 29 56 60 46 137 28 38 59 73 91 105
-5 18 11 29 32 14 13 14 27 20 -1 18 75 113 65 79 75 36 43 37 -18 57 44 31 11 17 25 38 57 93 136 123 91 56 54 95 69 85 47 74 58 55 86 116 132 107 91
-9 3 26 22 11 18 11 33 19 25 15 56 126 106 211 101 84 34 10 33 46 41 47 13 31 35 35 40 82 80 109 77 47 42 62 27 38 48 68 23 22 12 96 140 94 36 -18
44 36 35 32 27 4 -7 20 -6 21 31 83 145 149 162 98 69 66 42 12 26 51 28 27 41 32 37 40 52 61 75 83 83 65 48 75 18 112 78 98 54 44 73 77 56 72 8
27 16 32 25 -17 -28 -28 56 1 79 78 102 124 171 142 67 59 61 28 -0 18 41 40 26 30 29 46 49 65 52 49 67 84 80 71 42 111 48 84 101 54 57 73 76 63 21 57
11 -10 -24 -21 15 32 36 218 198 149 125 101 197 87 86 48 73 88 -3 8 29 38 44 16 10 26 43 57 56 57 67 78 65 76 52 74 54 71 56 73 134 106 110 70 39 46 -11
91 269 504 427 337 205 254 164 108 83 60 88 105 56 66 86 93 50 -23 12 28 18 41 19 13 22 49 52 43 65 73 76 59 79 65 58 51 50 69 98 132 112 124 120 67 49 44
447 382 329 217 322 293 299 171 101 103 33 126 106 116 59 109 46 16 13 23 34 12 24 14 7 21 25 38 47 45 50 52 62 37 39 58 40 65 37 26 26 70 91 100 67 19 25
325 320 101 35 46 42 23 -16 33 100 77 87 73 44 42 51 20 11 21 12 -4 2 -2 -3 1 7 15 21 17 43 39 39 39 47 23 48 41 41 64 46 38 50 61 79 59 20 32
388 56 -37 20 66 116 75 68 124 113 39 46 45 56 43 55 25 17 21 9 4 -2 -13 -4 -7 -7 13 31 35 36 35 37 31 19 25 33 22 39 39 75 62 45 45 49 28 52 49
309 -16 40 78 76 68 58 50 -16 -70 -38 16 24 43 48 19 6 22 23 12 22 3 9 3 1 -2 -0 15 19 37 39 47 46 24 20 30 28 40 30 20 28 25 59 44 27 9 19
143 116 74 60 108 93 12 -3 20 48 30 12 18 35 26 16 25 28 17 11 8 -7 -18 -16 -7 -3 -10 -2 1 1 6 9 17 33 30 30 35 35 47 13 21 36 4 3 -4 -11 3
72 46 22 48 99 70 58 95 81 58 28 6 5 -9 -0 42 37 19 -6 13 -9 -0 -4 -3 5 2 -10 -12 -2 3 -4 -7 -12 -7 10 36 37 45 66 68 75 45 13 12 5 -9 -14
20 45 -1 12 54 101 92 108 104 105 55 40 24 -3 -7 9 -0 2 4 1 -13 -22 7 4 -6 -2 -2 4 24 42 46 48 7 -3 -0 5 29 26 30 19 23 18 15 4 -0 -11 15
-3 26 17 19 4 44 58 81 93 68 21 -6 21 6 -0 5 -8 -1 9 10 8 -2 11 6 14 27 2 -6 10 22 25 27 25 19 2 3 -8 12 5 23 38 -10 3 13 -4 -21 13
-9 15 42 17 -47 6 7 1 41 46 25 -35 31 -27 -27 9 29 32 28 11 10 8 4 6 10 -4 -3 -10 -7 1 -0 1 14 12 8 2 -4 14 6 15 -8 -1 17 31 -26 -5 13
56 13 80 47 -3 -5 -17 -26 -20 -27 14 12 -4 5 -18 18 59 40 56 35 16 10 6 -15 -1 -10 -18 -7 -10 -8 -4 -15 -7 -10 -1 9 22 22 16 30 28 47 33 -20 19 65 59
109 48 61 -3 1 -14 -33 -32 -16 2 26 3 11 -2 23 29 63 82 82 87 78 63 -10 -11 -12 -20 -13 -15 -5 -10 1 -5 -3 21 1 26 23 18 30 26 16 31 10 73 79 54 43

GFSGBSN_con_3kmhel_105.txt.gz
Helicity
21 30 26 24 17 8 26 52 44 71 97 110 106 134 160 218 220 121 209 174 94 72 67 69 66 86 71 86 46 102 91 103 84 65 48 40 44 62 84 111 119 142 113 93 94 111 177
-3 24 42 29 33 13 -14 15 22 48 54 89 121 118 128 164 218 187 221 142 86 49 56 55 88 79 69 26 65 69 65 73 48 31 20 25 39 59 66 63 77 76 102 94 96 101 94
23 48 41 54 21 16 18 10 12 11 27 32 94 115 123 163 191 221 184 132 72 83 57 60 92 53 30 3 35 55 58 37 45 16 7 27 35 31 75 39 57 36 48 54 90 100 114
25 29 23 26 34 40 26 22 25 29 3 7 69 88 96 99 144 210 168 117 68 8 11 82 71 34 23 32 28 36 21 15 21 17 4 15 33 31 38 40 26 34 24 12 8 66 49
17 33 12 24 26 33 24 33 28 14 10 11 41 54 81 34 186 125 121 86 52 1 57 79 52 39 16 44 29 9 9 20 26 29 12 15 29 62 94 64 35 36 40 15 -10 28 49
8 26 25 26 35 41 19 23 11 27 39 11 21 55 96 28 117 156 118 100 2 61 96 67 46 29 26 23 52 35 27 26 45 38 46 66 93 113 105 78 40 24 6 8 5 19 27
34 30 30 32 32 35 27 24 22 35 40 18 7 33 118 72 139 115 97 37 20 31 16 -2 49 52 32 18 32 46 43 47 55 62 72 136 127 73 41 41 66 -18 -0 4 -18 -18 8
21 9 23 37 38 29 23 29 25 33 35 12 12 42 74 123 122 43 124 43 59 59 9 -17 35 19 -9 -4 38 70 62 61 90 81 58 225 180 19 -1 30 24 -9 28 31 51 19 19
5 4 -10 14 24 31 17 1 7 21 27 5 34 44 45 138 76 76 25 22 52 44 28 20 23 -6 10 44 58 78 104 80 74 71 69 150 113 -13 5 29 33 36 68 13 -4 -5 75
25 -22 -0 -2 -16 -5 3 12 -13 15 10 3 18 55 68 113 56 77 37 -19 42 28 19 1 10 -9 52 32 41 90 87 72 90 64 47 81 48 35 29 54 98 104 77 68 -15 5 26
64 -4 -1 2 29 35 18 46 19 18 10 6 32 51 24 136 31 40 12 -0 18 44 -5 3 4 5 -5 17 13 112 145 99 95 65 43 36 65 66 91 89 74 48 15 147 75 52 24
32 18 17 45 24 24 20 18 23 19 17 26 33 53 13 54 33 28 -28 -10 41 -29 -25 -28 15 33 52 88 69 81 125 117 79 53 72 76 61 74 66 16 83 63 -1 -6 27 61 48
14 29 5 40 38 17 22 60 77 22 -6 18 19 56 38 21 25 -2 -31 31 -8 -56 45 34 36 44 47 39 40 68 94 79 40 70 71 63 30 43 61 51 -9 17 62 106 86 136 108
5 -0 17 13 32 28 29 15 12 23 30 30 60 -8 35 19 42 28 56 88 64 42 45 28 32 57 57 34 60 63 47 18 27 36 44 3 17 2 5 38 65 90 122 116 120 143 127
94 12 -49 -23 -25 34 7 17 -7 10 25 30 29 76 73 85 64 4 93 100 71 55 43 40 55 59 36 59 66 47 37 36 43 4 49 67 75 69 45 54 87 116 115 76 73 40 87
257 461 315 35 -11 -5 45 -18 11 40 32 56 99 137 141 61 47 71 88 83 71 53 44 57 52 34 40 36 60 45 28 19 31 44 7 59 61 63 90 100 134 115 79 57 98 167 107
278 115 218 266 73 33 35 68 60 47 54 70 122 66 79 59 67 115 58 45 62 57 62 58 26 34 28 43 48 47 36 28 28 60 55 71 45 71 78 81 52 12 -6 19 61 12 25
130 50 31 261 38 46 44 82 84 47 27 76 45 46 28 48 66 68 28 46 65 47 69 56 40 29 25 38 53 65 56 48 43 60 68 65 41 65 69 90 93 116 33 12 -7 -9 -28
96 140 57 192 110 -34 45 21 -16 24 19 11 61 54 31 71 39 28 8 35 37 37 47 39 21 20 23 29 41 44 59 56 46 34 43 84 56 106 117 129 106 97 107 100 79 62 -3
161 108 69 -2 88 13 -7 -31 8 69 -5 16 49 58 27 29 53 22 6 13 -15 19 40 32 7 19 27 18 20 29 25 36 54 45 66 65 26 64 30 45 93 54 72 77 46 42 7
168 118 73 10 -121 -64 11 15 -23 -61 -50 5 55 37 31 56 53 11 27 8 -5 -2 8 16 5 5 21 31 33 23 23 33 25 35 40 48 57 62 57 60 48 27 57 80 67 62 44
48 50 27 -29 4 51 54 78 63 -51 -34 -12 26 27 40 37 23 11 13 19 11 -12 10 5 9 1 3 20 21 21 36 23 14 34 23 30 41 66 51 46 52 52 68 59 48 42 3
-137 -120 -17 -37 -32 -39 -36 -46 -45 -19 45 -3 33 31 24 56 36 17 18 -3 10 5 -20 -13 6 10 9 3 -3 2 6 14 6 23 11 13 23 30 29 13 16 27 -5 -6 -14 -15 23
-85 -154 -106 -28 -63 -54 -55 -71 -59 -23 -21 17 29 -0 18 64 46 29 -2 3 8 -3 7 -6 4 17 3 -2 15 21 13 11 -0 -7 13 37 33 37 46 34 87 5 -14 -3 6 8 -8
51 -61 -105 -18 -13 -9 -8 -19 3 17 7 27 21 10 4 21 35 12 5 -1 -7 -12 -8 -7 -17 1 12 29 48 70 79 72 40 14 12 21 49 53 91 109 71 37 24 27 23 14 23
67 30 -26 -53 -19 -0 10 22 16 25 40 45 33 38 2 27 22 -3 -2 10 11 2 -2 -10 -13 16 18 19 36 41 37 38 39 38 19 21 19 31 23 28 30 -2 16 18 -12 -47 14
70 47 -3 -65 -55 -13 -42 -12 12 6 21 6 -1 -9 -25 -22 -13 22 15 5 12 8 -6 -10 5 12 3 12 16 17 22 17 27 24 12 10 9 19 6 6 -19 29 48 34 -24 -5 45
62 54 11 -45 -29 35 -0 -15 -16 -40 -7 24 1 10 1 -2 24 2 12 7 1 16 -12 -25 -2 -2 -4 7 6 1 15 3 19 13 14 17 27 30 18 27 26 83 61 -4 44 87 75
104 97 45 -19 -17 15 20 1 6 -39 -16 27 30 -3 26 28 39 51 46 26 13 -1 33 -15 -12 -16 -21 -11 -10 -13 6 3 -0 22 13 28 29 28 35 32 37 59 49 98 82 73 73

GFSGBSN_con_3kmhel_108.txt.gz
Helicity
32 33 8 20 11 9 3 -6 -0 11 18 55 73 70 101 111 124 119 109 166 109 85 85 72 109 45 25 71 102 70 68 62 55 55 62 90 102 100 96 99 123 157 152 151 149 135 147
52 37 25 37 41 35 33 10 14 -2 -3 8 64 69 81 115 111 135 139 159 101 70 76 83 62 25 20 90 103 55 39 35 13 23 29 33 42 90 67 74 101 89 117 122 127 159 161
27 22 26 34 38 40 45 39 30 13 -3 -4 29 67 88 98 101 64 152 133 120 80 93 62 49 27 26 82 88 65 45 28 44 30 37 35 36 53 84 28 92 100 41 35 4 69 102
21 28 27 18 22 41 42 43 25 22 7 7 10 49 87 77 145 48 115 119 106 74 56 32 43 15 33 58 50 50 35 41 49 36 50 94 56 34 32 88 64 47 31 15 26 -7 32
72 16 18 31 36 18 22 26 27 10 19 6 3 40 69 85 57 110 97 139 53 49 24 37 28 2 41 23 25 24 17 33 37 34 38 18 56 50 84 64 49 31 57 13 23 18 7
13 17 24 15 25 10 -13 -13 -13 8 28 -8 -0 31 57 61 43 53 151 67 47 10 23 42 29 11 17 27 39 37 45 49 52 65 56 48 93 103 110 92 86 54 51 33 5 10 51
11 19 58 4 8 26 21 52 27 33 34 -5 -3 29 46 201 211 191 88 118 49 34 -6 25 11 44 29 44 33 28 36 47 45 47 25 59 127 151 79 71 41 4 2 -11 -2 13 53
22 21 23 4 -19 -24 -7 18 6 12 10 -14 14 26 26 164 107 91 165 62 79 45 34 -24 26 -13 -8 18 18 52 62 52 47 50 36 51 110 127 49 -7 25 44 -13 -29 36 35 -10
12 19 38 38 12 7 11 15 3 15 3 -5 36 31 54 77 20 38 63 91 91 92 11 30 -5 -23 -3 28 6 46 87 46 48 83 106 94 113 29 51 44 21 26 55 22 -10 -52 12
15 12 5 13 20 1 27 -5 25 27 -7 1 27 32 99 15 27 11 47 10 95 84 24 15 -10 -7 -1 -14 -5 72 116 68 75 64 43 66 49 54 13 43 45 48 -36 21 -6 -85 -84
-14 -4 8 28 27 35 17 20 50 17 -0 3 29 54 111 80 16 32 39 8 84 44 24 -21 -1 2 17 -4 -6 93 142 54 71 79 78 78 76 64 62 55 36 38 61 37 -83 -126 4
90 -1 10 16 28 16 21 30 20 8 6 7 22 -5 62 80 44 47 12 63 75 39 -4 -18 18 39 12 67 68 87 57 47 52 63 104 133 99 87 75 64 41 -24 -28 -61 -33 -24 26
307 87 23 7 2 29 47 33 14 -14 -17 -9 19 -12 35 41 42 35 52 73 45 36 67 43 37 25 71 90 109 96 82 48 68 60 56 75 69 51 57 19 1 -24 83 100 32 22 46
72 391 54 9 29 41 16 14 -25 -21 -18 -30 -47 -19 14 46 24 18 68 89 32 68 71 55 40 59 43 49 77 61 70 16 27 32 29 14 55 -1 -44 47 67 118 195 82 26 30 78
78 213 108 48 47 18 20 15 -8 -19 -4 -29 -22 45 57 38 65 49 104 135 98 75 70 46 77 73 82 73 41 54 28 22 -0 11 29 46 97 66 137 202 156 79 105 136 121 59 126
74 322 206 90 101 100 59 77 31 17 13 24 51 79 83 72 3 108 149 128 97 66 65 66 71 44 35 24 63 48 24 15 10 -13 -1 37 90 91 125 127 107 190 150 166 153 158 131
28 356 243 165 113 79 54 42 -2 -11 2 31 55 58 68 63 49 152 134 107 60 52 56 30 33 54 37 39 49 32 26 40 27 32 25 66 83 102 115 52 35 54 61 112 153 149 70
-56 190 138 54 16 -18 -69 -69 -24 -7 -14 10 34 23 45 57 93 140 80 76 93 51 73 67 78 35 39 39 44 47 53 55 26 58 59 20 53 53 73 36 36 83 67 78 35 77 29
-111 18 7 -14 -62 -97 -117 -78 -40 3 32 30 52 28 17 83 50 52 63 36 40 43 35 38 17 32 49 31 27 32 46 81 35 41 55 53 45 74 78 52 39 54 81 62 74 53 46
-146 -129 -54 -21 -62 -82 -62 -35 -11 -14 40 45 55 58 26 58 74 57 20 -3 -2 52 56 45 37 65 43 20 19 19 28 50 77 34 46 49 26 56 38 53 60 73 89 114 25 -25 22
-104 -148 -121 -133 -2 -31 -19 -41 -37 -17 78 92 67 68 74 61 48 -7 -7 -0 -1 2 31 47 26 14 30 10 23 17 15 47 47 47 47 28 29 32 11 5 19 -2 40 113 40 -17 5
-89 -107 -109 -80 -76 -37 14 5 1 -33 25 96 75 98 72 47 27 20 10 27 22 7 4 16 1 3 -16 5 14 21 29 9 12 71 32 52 21 22 15 10 -5 -15 9 -17 79 30 38
-24 -89 -47 -25 -12 -66 -46 -33 -15 -21 46 98 66 49 55 43 43 36 33 23 31 22 13 9 30 34 26 18 13 17 14 20 13 18 31 19 19 12 39 23 23 53 5 6 13 22 35
24 -24 -46 -4 -2 -16 -45 -45 -16 50 123 75 50 47 63 53 44 41 9 16 41 12 26 8 6 25 18 22 37 47 38 26 2 -1 10 37 25 36 59 47 84 57 -5 11 63 56 46
58 42 11 -16 53 26 13 -30 30 34 53 27 11 37 52 31 34 39 26 42 2 19 13 11 -2 15 2 38 56 71 84 66 40 4 7 12 31 32 53 65 27 35 34 44 43 34 52
-2 63 73 12 5 71 19 20 -21 20 33 -30 -14 13 28 31 -0 5 48 30 44 26 21 3 -1 18 23 32 46 54 64 54 56 42 22 24 26 27 18 46 51 -3 41 41 15 2 77
19 33 37 -6 -62 -19 76 43 12 -8 -24 -30 -0 23 16 4 -17 27 12 36 7 16 -2 2 18 20 8 19 35 44 44 24 44 42 33 27 29 49 42 51 28 57 71 53 15 21 93
14 -20 36 -1 -25 1 49 96 78 44 34 -46 -21 -24 -20 -16 -37 -3 -3 17 15 31 25 31 24 23 17 29 30 27 34 21 23 34 28 33 37 48 36 47 34 118 71 22 53 96 115
10 4 -30 5 -21 18 74 97 120 72 43 -7 12 3 -10 1 6 -11 -24 -29 -15 -11 39 40 28 26 25 11 22 20 32 38 23 23 26 20 38 32 39 39 58 102 82 119 106 103 107

GFSGBSN_con_3kmhel_111.txt.gz
Helicity
-8 16 1 19 16 25 30 47 37 23 16 19 8 49 80 96 97 86 128 141 122 99 74 75 31 50 62 89 77 33 70 64 54 58 73 87 105 160 171 199 203 205 179 181 166 173 159
3 14 14 23 11 25 35 26 22 29 13 11 -4 44 66 105 101 74 105 56 117 109 68 60 35 75 96 101 46 35 50 34 40 41 37 38 44 48 32 31 91 86 95 76 81 102 97
-33 53 34 2 12 25 25 18 35 52 27 2 3 17 48 89 103 117 12 116 63 72 70 33 37 59 78 84 60 19 54 34 47 36 54 109 77 83 70 58 81 65 24 -13 -17 6 29
46 35 30 30 19 22 30 9 13 32 43 8 -8 7 36 61 72 161 70 99 72 68 58 28 29 39 69 42 45 76 37 49 62 38 62 92 81 75 86 77 87 68 63 71 30 49 41
31 18 35 39 15 8 30 -12 -16 7 29 15 20 20 38 70 44 149 111 113 78 40 27 37 30 30 49 9 46 27 22 26 55 40 33 62 94 105 133 110 85 91 80 60 33 46 33
7 13 26 43 2 -14 0 11 16 6 14 -3 23 19 51 98 102 51 65 58 38 44 57 27 12 29 15 22 16 14 2 27 61 44 40 58 81 91 102 98 89 60 72 50 37 57 73
6 12 8 23 46 2 21 6 1 15 13 18 32 30 96 103 110 105 107 58 35 27 33 22 15 40 34 34 29 14 20 49 48 60 69 67 87 79 76 97 79 35 16 -12 20 24 37
24 6 17 9 14 22 41 28 31 16 26 23 34 34 64 25 99 125 107 69 83 39 35 45 16 13 15 -9 21 31 27 43 42 53 63 37 47 58 101 91 56 60 -42 4 54 47 -6
54 13 36 33 41 38 33 43 37 -6 19 18 6 18 -1 65 66 113 89 46 50 35 60 40 -7 -4 9 0 -20 58 60 38 26 12 42 89 80 50 44 70 89 78 108 91 141 36 24
142 60 43 22 64 25 32 8 -17 -8 21 30 34 31 20 32 54 72 47 49 50 68 51 30 16 -9 24 -8 -3 89 81 41 63 62 79 87 72 60 39 86 114 117 81 122 59 7 26
419 79 42 33 32 11 -19 -10 3 16 1 15 35 8 -23 25 13 54 88 46 78 42 34 38 3 46 53 6 40 26 28 34 90 105 101 111 92 93 72 50 49 94 73 95 90 -9 -78
86 123 53 48 44 17 12 25 14 10 -8 3 14 30 33 63 44 48 80 83 53 79 60 56 48 43 51 34 45 49 39 47 41 82 122 130 39 53 84 44 39 12 -43 -45 -113 -48 105
196 99 34 24 16 37 26 55 31 22 10 28 14 35 52 58 45 89 92 66 53 63 77 61 58 52 73 60 89 81 49 36 12 42 51 39 30 2 -2 25 19 0 -12 133 182 95 -3
158 76 47 36 28 55 44 45 49 42 3 -1 -9 7 46 37 101 102 91 50 15 87 100 64 49 54 73 85 56 60 52 22 22 5 70 53 53 38 2 186 98 158 106 42 57 39 37
52 8 -3 20 33 32 25 11 49 35 20 24 40 85 62 133 36 49 52 53 86 69 67 41 54 84 94 73 55 23 36 22 10 8 55 41 66 48 107 137 164 102 186 101 34 77 132
-123 -86 -66 -49 -49 -9 -7 -6 23 19 9 21 51 76 120 137 74 93 77 93 41 53 51 45 85 117 85 71 54 38 47 28 45 11 9 39 100 122 97 140 107 149 160 164 78 93 127
-106 -114 -154 -107 -106 -101 -65 -40 -12 -6 17 45 24 32 86 114 97 88 96 63 49 64 22 33 69 40 58 70 43 30 27 35 22 49 22 63 102 107 40 61 127 83 172 159 157 191 144
-50 -37 -69 -115 -90 -61 -50 -28 -23 -19 65 -3 49 39 64 51 47 107 40 29 62 57 78 68 80 48 42 28 47 51 58 65 61 52 22 17 43 87 85 88 101 132 175 89 79 120 100
-45 11 -8 -22 -41 -40 -29 -21 -4 53 15 55 55 45 71 69 23 58 50 28 34 25 27 30 37 49 62 49 48 47 48 64 48 42 35 14 22 53 81 57 60 91 150 85 71 46 71
-132 -30 33 28 5 -18 -24 -29 -19 31 63 30 33 24 27 34 49 50 23 19 26 48 54 47 66 59 46 61 22 38 54 55 43 29 39 18 10 33 65 88 107 108 137 55 78 24 52
-60 -90 -61 10 10 4 -20 -28 -48 23 77 70 75 44 47 21 -1 -7 -4 6 31 29 27 50 35 13 51 51 52 43 45 36 37 39 32 20 26 31 41 58 43 49 79 44 -8 20 48
50 -29 -37 -38 -13 7 -10 -26 -41 5 63 51 40 30 18 13 2 11 16 57 48 48 19 31 33 9 -2 40 49 60 56 28 29 38 19 14 43 27 51 36 44 32 36 54 42 31 20
88 67 36 56 13 -10 -16 -18 -19 -26 8 37 54 36 28 6 -2 15 66 64 41 23 28 12 26 35 26 36 36 51 37 37 25 15 20 13 31 44 110 44 54 90 84 81 66 53 61
10 88 57 71 79 70 57 19 -19 -15 60 69 45 15 6 7 -15 25 7 17 54 39 48 20 -3 16 19 6 23 24 14 20 8 -2 -6 25 20 29 64 35 71 57 23 33 61 38 18
-10 17 79 63 54 81 100 75 5 -47 -13 13 10 11 3 -11 -6 -44 -2 18 23 24 30 33 30 35 8 27 22 20 19 17 28 16 5 -6 14 22 34 46 34 32 48 62 60 29 41
33 14 25 30 21 23 65 71 38 18 -9 35 50 19 1 -25 -17 -27 -16 -5 16 28 18 16 10 6 1 17 18 43 67 46 43 28 23 19 22 40 38 57 78 37 51 46 31 39 64
43 38 12 -7 -35 -23 36 35 44 30 21 6 15 34 19 -11 -35 -81 -39 -24 -9 1 10 17 21 20 0 20 38 49 47 27 38 45 48 31 36 52 45 38 17 40 60 64 67 61 104
34 29 42 -7 -22 0 8 59 24 43 47 29 -5 -3 46 32 -16 -25 -48 -54 -60 -35 8 3 7 22 30 45 51 45 46 47 39 51 53 67 72 68 65 64 22 92 90 78 63 72 120
26 19 21 31 -7 21 40 47 67 52 21 17 37 9 27 52 29 25 14 -15 -38 -31 -22 -16 15 9 21 22 26 30 37 50 66 58 65 60 81 73 92 65 68 76 62 70 94 108 116

GFSGBSN_con_3kmhel_114.txt.gz
Helicity
39 26 48 35 20 27 26 32 35 28 12 18 18 11 41 54 74 106 52 131 49 71 74 48 44 58 31 57 59 17 56 59 72 93 96 101 104 97 101 116 144 155 155 179 162 136 124
53 28 39 29 17 17 30 34 24 22 20 29 -13 13 28 83 98 94 47 80 57 104 74 46 56 66 56 76 37 47 50 48 53 79 83 90 74 52 59 66 51 60 15 -3 21 66 76
48 26 33 31 12 16 15 34 36 47 47 11 22 10 30 91 126 176 22 31 202 89 108 41 58 61 79 66 16 30 33 29 36 71 103 87 58 78 48 59 67 52 30 21 14 39 68
37 23 16 8 19 4 18 13 14 22 67 31 18 17 21 43 131 200 44 141 49 26 18 40 63 74 65 51 17 33 35 50 54 56 62 55 63 74 70 91 114 93 110 101 67 83 77
37 16 16 4 27 15 -5 3 16 17 47 31 27 6 44 9 76 229 131 99 79 27 33 67 87 67 44 19 39 21 31 32 42 36 34 39 65 67 98 106 110 110 106 87 58 87 94
94 43 31 5 10 2 17 20 34 50 7 18 18 7 57 24 84 83 75 59 63 99 118 64 49 50 20 11 9 2 -11 13 41 57 61 54 67 88 125 157 123 92 117 76 67 85 175
174 90 32 15 -9 17 10 30 17 26 11 9 16 53 82 18 72 66 84 82 160 128 93 62 47 57 24 13 19 8 14 48 59 56 41 56 84 132 83 64 96 92 44 34 34 107 74
194 57 21 14 13 -3 1 27 15 -24 5 17 23 46 30 24 -69 18 101 86 94 75 67 71 37 34 3 -12 4 -2 30 28 25 21 52 49 32 54 -1 23 41 58 83 88 105 11 30
99 49 26 16 12 -15 18 23 9 4 5 21 15 17 4 19 67 117 85 74 84 75 64 59 14 18 -2 -11 -19 12 28 18 23 5 22 19 30 22 10 31 69 98 147 146 163 55 110
53 43 29 25 28 15 -23 -1 4 -0 8 41 12 -13 15 41 66 119 62 62 73 80 27 4 13 16 28 7 -15 41 43 33 36 55 66 84 50 70 56 67 59 52 26 83 111 91 -65
45 25 22 16 34 40 36 17 27 9 23 -11 3 36 27 38 49 76 53 69 78 53 57 65 36 32 15 20 25 28 15 19 84 90 60 64 31 40 12 10 -16 54 -31 -0 30 38 4
-0 3 15 7 35 48 46 48 21 20 33 11 1 -17 -10 61 45 69 75 65 38 71 87 50 28 26 18 20 28 19 25 28 51 33 37 33 -2 26 22 -10 21 54 -5 20 16 3 129
-34 -21 -6 -4 11 27 34 36 39 38 28 17 15 41 58 54 74 135 99 45 56 61 91 53 47 44 59 51 43 21 36 5 3 35 9 30 12 20 55 105 127 188 115 180 152 67 109
-77 -55 -34 -25 -19 -8 -0 14 24 44 30 15 20 50 86 98 129 89 12 15 -8 62 70 52 39 58 78 51 76 68 37 17 35 48 40 15 34 45 103 164 138 139 114 60 62 80 35
-86 -72 -49 -34 -32 -55 -41 -9 8 11 23 44 52 80 97 156 79 28 -6 -7 56 58 58 48 62 73 88 89 64 64 32 16 14 5 16 24 34 75 194 195 208 109 84 43 30 78 63
-9 -48 -53 -42 -32 -27 -26 -15 -5 24 49 34 57 74 77 115 44 20 -17 30 47 67 49 46 57 92 92 83 62 49 34 31 34 26 39 81 79 107 100 137 171 197 204 64 47 106 96
14 17 -15 -24 -18 -13 -10 -9 11 40 55 29 3 5 67 97 79 36 81 57 69 68 48 60 73 69 72 64 40 25 42 29 23 34 57 63 74 87 119 147 166 96 176 67 54 86 55
-4 30 32 15 -5 -1 -12 -12 15 33 18 -34 -38 -45 56 45 -3 53 25 31 45 52 46 47 60 56 51 55 57 47 72 65 52 53 34 51 95 141 143 107 135 155 149 140 91 161 119
42 35 38 19 8 -9 -12 -21 -10 -5 -6 45 -38 9 43 5 41 66 29 19 36 15 35 36 58 42 52 64 64 70 57 55 53 41 23 36 69 89 50 40 77 98 131 115 103 56 96
-4 34 51 35 25 18 -18 -45 -42 5 34 -17 -31 -70 -3 -1 40 54 53 41 41 46 64 57 67 42 50 55 53 55 41 35 32 45 44 31 49 75 90 101 109 95 122 85 82 59 48
4 9 33 47 36 21 19 -16 -0 35 58 -12 -24 -12 1 -13 14 15 22 53 68 47 34 17 41 23 66 52 53 39 34 29 26 35 19 17 44 44 71 98 95 98 101 69 62 74 86
29 29 28 49 65 62 20 23 6 11 24 -43 -5 -12 -16 -13 -14 -26 -0 43 79 75 39 43 38 48 20 37 47 28 27 21 26 20 8 18 90 73 127 96 70 88 85 78 78 91 62
61 38 45 36 58 80 64 37 13 23 11 8 -1 -8 -16 -17 -30 -13 10 -1 14 18 52 50 46 48 42 31 24 31 25 33 38 24 35 43 79 79 97 61 57 48 68 57 43 31 52
72 82 60 64 77 65 74 44 6 -15 24 39 24 -11 -20 -4 -34 -5 -6 -25 -40 -18 16 12 13 29 22 7 25 25 25 30 26 29 20 38 38 49 80 48 65 54 35 40 41 41 39
60 58 93 52 60 81 73 73 81 16 17 12 29 14 -1 -2 -10 -50 -42 -25 -32 -32 -31 -18 -12 -5 -1 -2 -3 3 14 25 33 33 27 12 38 44 61 68 33 38 41 39 42 25 74
53 70 68 77 43 42 69 66 52 60 64 31 15 51 37 22 16 9 -13 -39 -17 -18 -25 -5 -20 -26 -46 -31 -5 26 55 31 32 13 17 10 21 44 46 55 76 51 35 41 18 -8 100
44 46 55 66 56 18 32 61 46 44 29 41 22 44 35 23 19 21 30 26 -21 -12 6 -14 -20 -23 -28 -15 9 38 47 34 46 52 66 57 50 70 70 71 33 39 98 88 75 45 91
65 46 35 43 54 25 15 68 57 43 46 54 18 10 44 30 25 52 53 62 78 54 12 8 4 -4 -19 -0 20 20 28 29 25 45 59 78 83 79 92 88 40 104 149 113 59 31 89
76 67 38 16 57 26 29 77 86 58 81 76 29 28 29 44 34 60 28 34 75 55 97 42 25 38 48 42 13 6 13 22 36 35 50 59 91 78 104 76 47 52 75 70 60 83 84

GFSGBSN_con_3kmhel_117.txt.gz
Helicity
46 38 37 33 16 -4 -6 26 37 37 17 57 20 36 42 20 55 28 74 179 228 61 98 62 42 41 30 71 52 9 58 66 98 92 103 108 138 124 130 115 131 122 121 126 125 106 102
57 39 18 7 0 -6 -2 18 31 38 7 13 47 72 34 23 63 63 41 91 172 81 58 66 54 40 65 84 42 48 58 73 92 92 96 96 94 86 104 105 102 90 53 22 7 21 44
89 19 14 1 29 11 1 17 24 25 11 -28 -12 29 23 30 51 82 52 22 91 111 77 63 48 52 114 47 47 46 37 47 51 46 88 74 69 89 81 98 92 66 62 41 47 62 67
45 6 7 -1 4 1 4 20 21 23 52 30 40 21 16 61 68 169 67 133 178 107 93 71 67 82 74 37 9 37 41 57 51 43 45 55 77 90 91 89 112 101 107 106 74 95 47
64 49 23 9 9 -3 -1 -26 28 53 67 109 25 22 41 90 111 109 122 113 124 96 106 83 86 57 48 34 27 12 25 33 42 48 60 50 79 91 107 111 108 125 85 78 58 64 77
56 40 16 35 -1 19 4 7 34 70 46 17 39 6 20 89 36 129 101 104 105 81 83 63 51 57 33 21 8 9 13 26 41 52 62 75 77 88 88 105 76 78 102 66 51 43 72
73 44 30 35 19 17 9 0 13 -9 -9 2 52 62 31 35 53 80 76 120 180 115 105 64 48 59 20 6 11 22 20 42 43 67 68 53 91 62 63 68 63 50 45 22 41 86 49
63 38 28 41 40 29 18 5 0 9 10 20 30 47 -28 -46 25 148 101 89 91 61 125 91 46 30 14 6 10 9 9 16 25 40 26 38 35 7 12 16 43 48 2 11 26 40 86
22 13 12 19 18 22 34 14 28 12 15 49 -29 -37 -36 -1 68 117 114 125 124 92 78 95 56 27 8 -15 -21 -28 -2 -7 -16 -33 -20 -21 -2 22 -4 11 -6 18 34 38 72 3 1
11 10 9 16 35 36 24 17 16 26 46 21 -9 -16 17 64 74 119 128 155 110 72 55 67 59 29 -3 -13 -11 -25 -5 7 -49 -75 -58 -6 29 32 14 10 -9 -19 -48 -23 24 -16 36
5 3 6 14 17 25 36 44 39 -5 30 42 40 11 -17 -10 57 63 98 112 63 33 69 21 24 30 17 11 -8 20 24 18 -15 -2 19 43 29 25 47 -22 -17 -22 -26 5 85 93 101
18 5 15 10 11 13 15 26 30 8 0 7 20 21 47 47 61 99 96 53 29 48 79 22 15 26 25 28 17 21 30 31 17 -10 32 86 52 25 80 47 118 144 70 84 112 109 114
34 27 19 5 2 0 2 19 20 4 12 10 7 -14 8 38 51 128 55 28 54 41 82 49 20 42 42 43 29 20 10 12 41 56 33 26 42 52 102 84 16 90 102 59 93 83 117
18 28 37 -2 -9 -11 -13 -3 -8 -8 18 56 84 81 55 65 123 90 8 33 34 61 63 49 45 63 59 45 30 12 7 41 73 68 57 38 -14 58 167 128 55 20 20 -7 152 151 146
33 29 40 26 0 -8 -6 2 15 34 36 75 83 73 67 102 65 -9 8 11 63 76 60 50 52 72 64 46 5 6 38 57 61 103 80 50 20 100 188 166 128 60 39 26 65 123 119
36 30 16 35 22 7 11 15 24 31 53 61 64 35 38 71 16 2 -1 56 63 70 52 54 68 62 46 32 23 29 43 65 65 98 94 106 75 94 93 78 173 147 88 41 50 93 96
34 36 17 5 2 8 8 26 42 48 29 17 18 11 46 37 19 18 65 61 73 70 62 70 68 69 59 39 31 34 43 61 75 50 77 76 101 85 66 108 91 85 73 116 99 95 97
21 22 25 22 19 11 -14 3 9 24 4 -42 17 -17 59 27 -6 47 42 40 40 45 32 44 47 65 54 41 44 62 65 73 78 35 43 66 83 112 103 83 49 74 113 111 107 66 60
23 33 16 23 23 15 3 -4 10 43 10 -16 -16 13 28 -8 12 55 48 49 49 36 41 42 50 38 43 57 72 66 43 51 47 38 47 49 53 79 55 68 54 50 103 68 65 83 25
8 6 46 23 21 8 7 9 2 32 25 -23 -10 4 -11 -30 23 30 38 48 50 45 53 41 53 36 43 41 22 28 11 32 21 22 32 32 44 75 144 136 101 112 102 66 45 61 66
42 18 17 55 46 27 1 15 26 10 -30 -30 -25 44 52 57 8 7 9 28 28 23 26 15 38 21 44 32 22 2 20 17 17 -4 4 14 66 67 97 119 106 127 113 47 65 71 68
67 52 28 22 55 59 65 45 21 28 12 -43 -29 -2 -11 56 44 -11 -8 8 2 6 -2 18 19 27 12 26 27 14 16 22 37 22 7 14 70 53 93 81 68 86 75 47 33 54 55
44 62 73 51 36 26 29 18 24 11 -11 9 -6 -29 -37 -9 17 25 18 22 6 -7 0 -5 -5 2 19 22 26 34 31 28 48 36 52 50 56 47 88 41 42 58 74 77 38 48 59
57 51 70 97 84 85 85 12 10 6 -10 10 10 -15 -36 -20 -17 20 21 2 -10 -2 13 12 -6 4 2 -4 20 23 29 44 44 53 39 33 38 49 69 12 49 56 25 32 50 37 64
64 71 65 87 97 94 76 71 50 33 1 4 11 -1 -24 -27 -15 -37 -18 -18 -22 -27 -22 -7 -5 1 -27 -37 -29 -21 -11 0 7 20 33 16 41 53 54 67 53 41 69 77 69 30 113
71 59 87 67 84 80 71 45 62 55 38 31 25 25 30 -5 -17 -20 -13 -19 -38 -28 -33 -35 -52 -38 -47 -33 -21 5 19 8 12 -2 33 42 44 77 84 81 60 50 48 60 42 26 20
79 57 66 89 72 80 67 41 30 63 36 40 22 43 45 22 8 37 6 7 17 5 -12 -15 -1 -2 -33 -13 18 44 47 29 34 38 47 44 54 107 120 98 46 49 70 81 66 35 30
69 58 58 69 70 61 86 69 28 39 64 39 26 31 36 33 34 58 42 54 58 56 41 28 19 33 55 38 27 26 38 43 51 61 73 87 91 74 85 82 32 63 106 107 53 43 44
95 54 36 51 45 29 24 58 50 47 62 76 4 55 57 51 33 40 43 48 38 63 85 82 80 72 62 77 55 56 41 43 58 36 64 64 99 105 128 95 48 31 49 19 60 40 54